GFSMW_sfc_dewp_000.txt.gz
Dewpoint
45 46 49 50 50 53 53 53 53 53 51 48 49 49 48 50 45 42 41 40 39 39 40 40 40 40 39 39 40 39 39 38 42 39 37 38 39 41 43 43 42 42 43
42 42 43 45 47 49 50 48 48 47 46 47 48 50 49 45 42 39 38 39 39 38 39 41 41 40 39 39 40 40 39 39 41 40 39 36 37 38 37 39 40 39 41
42 40 39 39 42 41 41 40 41 41 43 47 46 42 41 41 38 39 35 37 38 38 39 40 40 39 39 40 40 39 39 39 39 39 38 34 33 35 36 35 36 36 37
39 37 36 35 34 35 35 37 38 38 38 39 39 38 38 37 39 37 34 36 38 37 38 39 39 39 39 40 40 38 37 38 34 37 35 36 35 33 32 33 33 35 34
38 38 37 38 38 37 37 37 37 37 37 38 40 39 36 38 37 35 34 34 37 37 37 38 38 39 38 37 37 35 33 35 33 34 34 34 34 34 33 29 29 30 33
39 39 40 39 38 38 37 37 38 38 38 37 37 36 36 35 33 35 35 36 36 37 38 37 37 37 36 35 34 33 33 33 33 33 33 33 32 31 31 29 28 27 31
40 40 39 38 37 36 36 36 35 34 35 35 35 34 33 31 34 35 36 36 37 37 37 37 37 36 35 35 33 31 31 30 29 30 30 32 31 33 32 31 29 28 27
39 39 39 37 37 36 33 32 32 32 33 35 34 35 35 37 37 38 37 37 37 36 37 36 34 33 35 34 35 32 31 30 29 28 28 30 30 31 31 31 29 22 24
37 37 37 36 36 37 35 32 32 31 32 33 35 34 34 33 34 35 36 37 37 37 37 34 36 36 36 33 33 31 30 30 30 30 30 30 30 28 26 29 28 27 19
37 36 35 35 35 36 37 35 29 25 25 26 30 28 29 30 32 33 33 35 36 36 36 36 35 34 32 31 31 30 29 30 30 31 28 24 26 26 26 25 26 26 23
35 34 33 32 30 29 28 26 23 22 23 25 27 28 29 30 31 32 33 34 34 34 34 33 34 31 31 31 28 26 27 29 28 24 23 23 23 23 24 23 22 22 22
33 32 31 28 23 22 22 22 21 21 22 24 26 28 29 30 30 31 31 32 31 31 32 33 33 33 30 28 25 26 27 24 22 22 22 21 19 20 19 20 19 20 21
33 32 29 23 22 23 23 23 23 20 21 21 23 28 30 31 30 28 29 30 30 30 32 33 31 28 26 25 25 26 24 21 21 21 21 21 21 19 19 19 20 21 24
32 30 27 22 21 22 24 23 22 23 23 22 25 28 30 31 31 31 30 31 33 34 32 30 29 26 24 24 25 22 21 21 21 22 21 21 21 20 20 21 21 23 22
30 29 25 20 21 22 22 21 22 24 24 23 24 28 31 32 32 32 33 33 33 34 31 31 24 22 23 23 22 20 21 21 21 21 21 21 23 26 25 20 20 20 22
30 28 23 17 19 20 20 19 21 22 24 24 25 30 31 32 32 33 33 33 35 32 26 19 21 23 21 28 28 29 27 24 21 24 24 24 23 22 22 22 22 21 20
29 26 21 15 15 18 19 19 19 22 23 25 26 30 31 32 32 32 32 32 31 29 26 22 23 23 27 30 30 29 24 23 22 19 18 17 16 19 20 22 22 22 25
28 25 22 12 11 17 18 20 19 20 22 24 26 30 31 31 31 31 31 31 31 30 20 23 24 26 24 26 27 24 21 20 19 17 18 17 18 19 18 21 24 22 22
28 26 22 9 11 14 17 17 19 20 22 24 26 28 30 30 31 31 30 30 30 26 24 24 23 19 20 23 21 21 21 20 18 18 18 18 18 20 23 21 22 20 20
22 16 12 13 13 15 18 20 21 22 23 25 26 28 30 30 30 30 29 28 21 22 22 22 20 18 19 19 19 19 19 15 18 20 18 19 19 21 21 24 22 20 21
15 18 17 17 17 20 22 22 23 23 24 26 27 28 28 28 28 27 25 20 22 22 22 22 20 18 19 18 18 18 17 17 20 19 18 19 21 19 18 22 22 23 22
18 18 19 20 22 23 23 23 23 24 25 26 27 27 28 27 25 24 20 22 22 19 20 13 17 18 19 17 18 19 18 18 13 17 19 19 18 17 18 18 21 22 21
17 19 20 21 22 23 24 24 25 27 27 28 28 27 27 25 25 22 20 20 19 17 17 19 14 16 19 17 18 20 18 17 14 17 16 17 16 17 17 17 18 20 19
18 19 20 19 22 24 25 27 27 28 28 29 27 27 26 25 25 21 20 20 18 17 19 19 17 14 15 13 14 16 13 16 17 14 12 14 17 13 15 15 15 16 17
21 21 21 22 24 26 27 28 27 28 28 30 29 28 26 26 24 21 21 22 20 20 19 18 17 6 2 11 16 17 14 9 13 6 4 8 11 11 13 13 13 13 13
22 21 23 25 26 27 28 28 28 28 28 29 27 28 29 31 28 22 23 26 25 24 25 24 16 10 16 18 20 20 18 16 16 7 2 -3 -1 8 11 12 11 11 9

GFSMW_sfc_dewp_003.txt.gz
Dewpoint
49 52 56 59 59 58 57 56 54 52 51 49 50 50 50 47 40 39 41 41 42 42 44 41 42 42 40 42 41 37 35 34 40 34 30 30 41 43 41 39 38 38 37
48 50 54 58 59 58 57 55 52 48 46 48 50 51 50 44 39 39 41 40 41 40 39 42 41 43 41 43 42 38 34 36 41 32 29 25 25 32 37 34 35 37 36
46 49 52 55 55 53 52 51 48 46 46 47 45 43 43 43 40 38 37 38 40 38 40 43 43 43 43 42 42 40 37 33 37 39 31 26 24 31 30 32 33 35 32
42 42 44 45 46 43 43 43 42 41 41 43 42 43 39 38 40 38 38 39 41 41 39 41 43 44 43 42 41 38 37 35 30 30 32 33 32 24 22 24 26 29 26
38 36 36 37 37 40 42 42 41 40 40 41 41 39 39 39 39 39 41 42 41 41 40 41 42 43 41 42 40 38 34 30 27 26 26 27 24 25 23 16 18 20 21
39 39 40 40 39 40 42 42 39 37 38 39 39 40 39 37 37 39 39 39 40 40 41 41 42 42 41 40 37 35 32 28 27 25 24 21 19 18 23 21 19 18 17
40 41 40 39 40 41 40 37 36 35 37 38 37 37 37 38 36 36 35 37 35 35 39 42 42 40 38 37 36 34 32 29 24 24 21 24 23 25 24 23 19 21 19
42 41 40 38 37 37 37 36 35 33 33 33 31 29 27 24 24 28 29 30 32 34 40 41 40 37 36 36 37 33 30 32 29 30 31 28 28 31 31 27 26 23 18
41 40 39 38 36 35 37 35 27 23 24 26 26 28 28 29 29 31 32 31 37 37 41 39 38 38 37 35 34 32 32 31 32 32 32 31 30 29 26 26 27 25 23
39 39 38 39 39 38 33 29 23 21 24 26 28 28 29 30 31 32 32 33 37 39 39 37 36 37 36 34 33 31 31 31 32 30 32 28 25 26 26 24 24 23 22
38 36 36 38 39 32 26 24 23 23 24 25 28 30 30 32 32 32 32 34 36 37 37 36 35 35 33 32 32 31 30 30 31 30 27 25 24 22 20 20 19 18 18
35 34 32 30 27 24 23 24 24 23 23 25 27 29 31 32 31 32 32 34 34 34 34 35 34 34 33 31 29 29 28 28 27 26 24 23 19 21 22 20 20 19 19
33 31 24 22 22 23 25 24 24 21 21 21 23 27 30 31 31 32 33 34 34 34 35 35 34 30 30 26 27 28 27 26 24 23 23 23 22 21 22 21 20 20 19
32 30 22 20 22 24 24 24 25 25 23 21 23 27 31 32 32 33 34 35 36 36 35 34 33 32 25 25 26 25 24 23 23 24 23 24 24 23 22 23 25 24 21
31 29 24 19 21 23 25 23 23 24 25 24 23 27 32 33 32 33 34 35 36 36 35 32 24 25 25 22 25 23 24 25 25 24 23 22 24 24 23 20 21 19 18
31 29 25 18 19 22 23 22 22 23 25 25 26 27 32 32 32 33 34 35 35 35 30 29 26 25 23 30 31 28 23 20 18 17 17 16 17 18 20 20 21 21 19
32 28 25 20 18 21 23 21 20 22 23 24 25 27 30 31 32 32 31 33 34 34 33 27 26 26 27 27 27 25 18 16 16 15 13 13 13 17 16 17 19 22 23
32 29 26 22 17 18 20 21 19 20 21 22 24 27 29 30 31 31 30 33 33 32 31 26 25 25 22 23 22 22 20 17 15 14 15 14 15 16 17 19 20 17 16
34 30 26 22 15 14 18 18 18 19 21 23 24 26 28 29 30 30 31 31 29 29 28 26 24 18 18 20 20 20 21 19 17 17 16 16 15 18 21 18 19 16 15
32 27 23 12 11 14 17 19 21 23 23 24 25 26 27 30 29 30 30 29 27 21 24 22 19 17 18 18 19 19 21 21 19 18 16 17 18 20 18 19 20 19 20
18 19 14 14 16 20 23 23 23 23 23 26 27 28 28 29 30 30 28 25 23 24 26 23 21 18 18 19 18 18 22 21 19 16 14 17 19 18 18 18 19 21 20
18 17 19 21 23 24 24 22 22 24 27 28 28 29 30 29 27 28 26 22 23 24 25 26 24 21 21 16 18 19 19 19 20 19 17 19 17 17 17 16 18 18 20
18 19 21 23 23 22 23 22 24 28 29 29 29 30 30 29 28 26 24 21 22 23 23 21 24 22 22 20 17 19 21 19 20 20 17 16 16 15 13 15 16 16 18
18 20 21 19 21 24 25 26 29 29 29 29 29 30 29 29 26 25 22 22 24 24 22 24 23 22 21 22 20 21 23 20 19 18 17 17 16 15 15 14 14 15 15
28 21 21 21 23 25 26 29 29 29 29 29 28 27 29 29 28 24 22 23 22 24 25 24 24 27 26 24 21 22 23 23 20 18 18 16 15 14 13 14 13 13 11
23 21 23 24 25 27 28 29 28 30 30 29 28 29 29 29 30 31 26 26 27 25 26 25 26 28 23 20 20 21 21 19 17 17 17 18 17 16 13 14 13 13 11

GFSMW_sfc_dewp_006.txt.gz
Dewpoint
51 53 56 56 56 58 58 57 57 57 55 52 51 48 48 46 43 41 43 43 42 41 43 41 42 42 41 43 43 40 39 37 39 34 30 28 29 34 36 37 34 36 37
51 54 56 57 57 57 56 56 55 55 51 49 48 50 50 45 41 42 43 41 41 39 39 43 41 42 40 42 43 42 37 33 37 36 31 25 23 23 31 32 31 35 33
51 54 56 57 58 57 57 55 53 49 48 47 46 45 45 44 43 41 39 41 42 40 40 42 42 43 41 39 41 40 39 34 33 35 32 27 23 25 25 29 25 32 28
52 54 55 56 57 57 55 51 47 45 44 43 44 45 40 39 40 40 40 40 43 42 40 40 42 43 40 40 40 37 38 35 29 29 26 30 29 25 22 23 25 23 22
50 50 50 50 47 48 47 46 43 41 42 43 43 41 41 39 39 39 40 40 39 40 38 39 41 41 39 40 42 40 35 32 31 29 28 28 24 24 20 18 20 20 19
43 41 42 41 40 43 45 45 42 40 41 41 42 43 41 36 32 29 27 24 23 24 28 29 39 42 42 42 40 38 35 33 30 27 25 23 22 20 19 19 19 18 18
38 37 37 37 40 43 44 42 40 38 40 40 37 34 29 28 24 24 22 24 22 24 28 32 36 39 42 40 38 37 36 33 29 27 24 23 23 22 22 21 19 18 18
39 39 38 40 41 42 41 40 39 37 35 31 26 26 26 24 24 27 28 26 27 29 35 39 41 42 39 36 38 38 34 31 29 28 27 25 24 22 22 21 21 21 19
40 40 41 41 41 40 42 41 34 28 26 27 27 29 29 30 31 31 31 28 31 30 36 41 40 39 37 38 36 33 31 30 29 29 27 24 23 23 22 21 21 23 24
39 42 41 40 40 41 39 36 29 27 26 27 29 29 30 31 31 31 30 31 32 33 36 38 39 37 37 34 33 30 27 27 26 24 25 24 22 22 22 19 21 20 20
40 42 40 41 40 38 34 31 28 27 25 26 29 31 31 30 31 30 30 31 33 32 33 35 37 36 33 32 33 28 25 24 25 26 25 24 24 22 22 21 20 19 18
41 40 40 41 40 34 30 28 28 26 25 26 28 29 30 30 29 29 29 32 32 33 33 33 34 33 32 32 27 25 24 24 24 25 25 23 18 24 23 21 21 20 20
40 38 38 38 34 30 28 28 29 25 22 21 23 27 29 29 29 30 30 31 32 33 34 33 33 31 30 27 24 26 26 25 25 25 25 24 24 23 22 22 21 21 21
38 36 34 32 29 27 28 29 29 26 23 20 22 25 29 29 31 31 31 31 32 33 33 33 33 32 27 24 25 25 26 26 25 26 26 25 23 22 22 20 20 20 22
35 34 32 30 27 27 29 29 27 26 25 22 22 25 29 31 30 31 30 31 34 33 33 31 29 28 27 22 27 26 27 26 24 23 20 19 21 20 20 18 20 18 17
34 34 32 30 27 26 28 27 25 24 25 24 25 26 28 29 31 29 31 31 31 31 31 32 32 30 24 31 28 24 21 21 19 18 17 17 18 18 20 20 20 20 18
34 34 34 31 27 25 28 25 23 23 24 23 24 25 27 29 29 28 27 27 29 31 30 30 31 30 30 28 24 23 20 20 18 17 16 14 12 17 17 18 19 21 23
35 35 34 32 25 25 26 24 19 20 21 22 22 24 26 26 26 26 27 29 29 29 27 27 29 29 25 22 21 21 21 19 18 17 17 17 17 17 18 17 17 15 15
37 37 35 32 28 23 23 20 18 18 19 22 23 20 22 24 24 25 28 29 29 27 26 27 28 27 23 20 19 20 23 21 20 18 16 16 16 19 20 18 17 14 13
38 37 34 29 25 22 19 18 16 21 23 22 20 22 23 23 24 26 29 30 29 27 24 25 26 20 23 19 18 20 24 24 22 19 15 14 17 19 19 20 19 19 16
37 35 28 23 21 19 18 19 23 23 19 22 24 22 23 24 26 28 29 29 28 26 29 26 26 24 23 22 18 18 24 24 21 19 17 16 18 18 18 18 20 20 17
32 27 22 22 20 20 24 22 20 18 23 25 24 25 26 27 27 29 29 29 27 26 29 32 29 26 26 20 20 19 20 20 24 22 20 22 17 18 18 15 16 17 19
21 19 21 24 25 24 20 16 18 24 26 27 27 27 29 28 28 29 29 27 26 26 27 25 28 27 27 26 20 19 20 21 23 23 21 19 17 17 15 13 16 16 18
19 21 23 20 22 23 22 23 25 27 27 27 27 28 27 28 29 27 27 27 27 27 25 26 25 25 24 26 26 25 25 24 23 22 22 20 19 19 18 16 16 17 16
28 29 29 28 23 22 24 25 27 27 26 28 27 27 28 27 27 29 28 27 27 27 27 26 26 31 30 27 26 24 25 26 23 23 24 22 20 18 18 17 16 17 15
28 27 24 24 25 25 26 28 28 28 30 29 29 29 30 29 27 28 29 29 27 27 26 27 29 34 29 24 23 22 22 22 21 22 22 24 24 22 18 19 18 18 15

GFSMW_sfc_dewp_009.txt.gz
Dewpoint
48 50 48 50 52 56 56 57 56 57 55 52 50 48 48 46 44 44 45 45 44 42 44 43 44 44 42 44 44 43 43 39 37 33 34 32 35 35 29 31 34 35 32
48 49 51 52 54 56 57 56 55 55 51 49 47 49 48 45 42 44 45 43 44 42 42 44 43 43 42 43 43 43 40 36 34 31 31 28 25 24 30 29 29 35 29
48 51 53 54 56 56 56 55 54 51 48 49 47 45 45 45 42 41 40 42 44 42 42 43 42 43 41 38 42 39 40 35 33 34 29 26 24 26 26 28 27 34 29
49 52 53 54 56 56 56 52 50 48 47 43 44 46 42 40 42 41 41 40 40 39 35 35 37 40 39 39 38 36 39 37 32 31 28 32 29 24 23 22 22 24 24
50 51 53 54 53 54 53 50 47 43 43 44 45 43 42 40 39 36 33 31 29 27 24 26 32 37 37 39 40 40 39 35 34 32 30 29 26 24 21 19 19 20 20
50 50 50 51 50 50 49 48 43 42 43 44 45 45 40 33 30 28 25 24 24 25 28 28 33 34 35 39 39 40 38 39 36 31 28 26 22 20 21 20 22 22 20
46 44 45 42 43 45 46 44 42 41 43 43 38 34 32 30 28 27 26 28 25 26 30 34 36 35 37 39 39 40 40 39 35 31 27 25 24 24 23 21 21 20 18
41 40 40 39 41 44 44 42 41 41 39 34 31 31 28 27 27 29 28 26 27 28 31 34 37 37 38 39 38 39 40 39 34 31 30 27 26 24 23 21 21 22 19
37 37 37 39 41 43 43 43 41 37 32 32 33 32 31 33 31 30 30 27 29 26 30 34 36 39 38 39 41 36 35 32 31 30 28 26 25 23 21 21 21 23 24
36 38 38 41 42 43 42 44 38 31 32 33 33 31 31 32 32 31 29 29 30 30 31 32 33 35 36 37 34 32 32 31 29 24 27 27 25 25 22 19 22 22 23
37 39 40 42 42 42 42 39 33 32 33 31 31 33 31 31 31 30 29 29 31 30 29 30 32 31 31 31 31 32 32 27 27 28 28 26 26 24 23 23 22 20 21
37 39 42 41 41 42 39 35 33 33 31 30 31 31 32 30 29 29 28 30 30 30 30 31 30 29 29 29 28 28 26 26 26 27 26 25 21 24 22 22 21 21 21
38 39 41 41 40 40 37 34 33 31 29 26 27 28 29 30 29 29 30 29 29 30 31 30 30 29 31 30 29 26 26 28 28 26 27 26 25 22 21 21 21 20 16
39 40 40 41 41 39 35 32 33 31 27 22 23 25 29 30 30 30 30 29 28 30 30 30 29 30 27 24 24 24 26 27 28 29 25 22 21 21 22 19 19 18 19
39 40 40 40 40 37 33 31 33 31 26 23 22 26 29 30 29 30 30 29 30 29 29 29 31 32 29 24 28 28 28 26 25 24 20 20 20 19 19 17 19 18 17
37 39 39 38 37 34 32 32 32 29 27 26 26 26 28 27 28 29 30 29 28 27 27 27 28 32 28 31 28 24 24 22 21 21 20 19 22 21 22 22 21 20 18
36 37 37 36 35 33 32 32 28 27 26 25 25 25 26 25 28 27 25 25 27 28 27 26 26 30 30 29 24 22 21 23 23 21 18 16 13 19 18 21 22 21 23
35 36 37 36 35 34 31 31 26 25 25 23 23 24 24 24 24 24 24 25 28 27 26 25 26 27 27 26 22 21 23 24 22 20 19 18 18 19 19 17 17 16 15
35 36 37 37 37 32 29 28 24 22 21 23 23 23 20 20 21 22 23 25 27 27 26 25 24 24 26 24 21 20 24 24 22 21 19 17 15 21 20 18 17 15 14
35 36 37 37 36 32 27 27 23 26 25 22 23 19 20 20 20 22 23 25 27 26 25 25 25 24 28 23 21 20 25 25 24 21 19 19 17 19 19 19 18 18 16
36 37 38 37 35 30 26 24 29 22 22 22 22 21 20 21 23 25 26 26 27 28 31 29 28 28 27 26 22 20 23 25 23 20 20 20 20 19 19 19 19 19 16
37 37 37 33 28 24 25 27 26 25 22 24 23 22 23 24 24 28 28 28 28 29 30 33 30 30 28 24 23 21 21 21 23 23 22 24 21 19 19 18 16 17 18
34 31 26 24 27 28 29 28 25 26 25 25 25 25 26 26 26 28 28 29 27 28 30 29 31 28 30 32 25 23 21 21 24 25 24 21 21 19 19 17 17 19 20
24 22 25 25 31 35 35 32 25 27 28 28 27 28 28 27 27 27 28 27 28 29 28 29 27 27 23 26 28 26 26 24 25 26 25 24 23 23 22 22 20 19 19
24 28 35 35 32 28 24 28 29 28 28 29 29 28 31 30 28 27 28 32 29 27 30 29 29 34 32 27 28 28 28 28 26 24 25 23 23 21 21 20 19 20 19
32 33 33 32 28 27 27 28 30 30 30 30 30 31 31 31 29 28 28 31 31 30 27 27 31 35 30 27 26 26 23 22 23 23 23 24 26 24 21 21 19 20 18

GFSMW_sfc_dewp_012.txt.gz
Dewpoint
46 46 47 51 55 57 56 58 58 59 59 55 52 52 51 51 49 48 49 48 48 47 47 48 48 48 46 47 46 45 44 43 41 36 34 35 34 32 34 32 31 32 30
45 48 49 50 55 56 57 57 57 57 57 53 54 54 50 49 48 49 48 48 48 46 44 47 46 46 45 45 45 42 42 40 40 35 33 30 29 31 30 32 30 29 32
47 49 49 53 57 57 57 57 57 56 53 53 50 50 49 50 48 47 47 47 46 43 42 43 44 44 43 43 43 41 41 39 38 37 33 30 28 29 31 28 30 31 31
47 49 52 53 58 59 58 56 55 51 51 50 50 50 46 44 46 46 43 40 40 36 31 35 39 40 42 42 43 38 41 40 36 36 34 34 32 26 24 25 25 27 24
47 50 52 56 57 58 57 56 51 47 48 49 49 48 46 46 42 39 37 36 35 35 33 35 39 39 39 40 42 43 42 40 38 36 33 30 30 28 24 21 23 24 25
49 50 54 55 54 56 55 52 46 45 48 48 48 46 42 38 37 33 33 34 34 34 36 37 39 41 41 41 43 42 41 40 38 36 34 30 27 25 25 24 23 23 23
49 50 53 53 52 52 51 48 44 44 47 46 42 41 39 37 36 34 34 33 33 33 36 36 39 40 41 42 41 40 40 40 38 37 33 31 30 28 26 26 24 23 22
50 49 49 50 49 48 48 45 43 43 44 40 37 38 37 35 35 36 33 34 33 34 34 37 38 39 41 39 40 41 41 40 39 34 34 31 31 29 27 24 24 21 21
46 46 46 44 45 46 47 46 43 42 38 37 39 39 38 38 38 36 34 34 33 29 34 36 37 38 37 39 40 40 38 36 35 32 32 29 29 29 28 26 25 25 22
42 42 42 42 44 46 45 48 44 40 35 38 40 37 38 39 38 36 33 32 33 33 34 35 35 36 37 39 38 37 35 34 34 33 31 31 30 29 29 25 26 24 23
41 39 38 41 43 45 45 45 43 36 35 37 38 39 37 38 37 34 33 32 33 33 33 33 34 33 33 33 34 33 32 33 31 32 31 32 32 28 27 27 25 24 23
40 38 39 41 43 44 43 44 41 35 36 37 36 37 38 37 35 34 32 33 32 33 32 33 33 33 33 33 33 32 30 31 32 32 31 30 26 27 26 25 24 23 21
40 39 40 42 43 43 44 43 40 35 35 33 33 34 36 39 34 33 33 32 32 32 33 33 34 33 33 33 33 31 30 30 31 31 30 29 26 23 24 23 20 20 19
39 38 39 42 42 42 43 41 39 39 35 33 30 32 36 36 34 33 33 33 32 32 32 34 34 33 30 29 28 28 30 30 29 30 28 25 23 21 20 18 19 18 19
37 38 40 42 42 42 43 40 38 39 37 34 28 33 35 34 33 34 34 34 33 32 32 32 33 33 33 29 30 29 27 27 25 25 24 22 23 22 19 17 19 20 19
29 37 41 43 43 42 42 38 36 37 35 33 33 33 32 32 33 33 35 35 34 32 30 30 32 31 31 31 28 25 23 25 24 24 23 21 24 25 24 26 24 23 20
33 36 40 42 42 42 42 38 36 36 33 31 30 31 33 32 33 32 31 31 31 32 31 31 30 29 32 31 27 24 20 23 26 24 22 19 15 22 20 21 20 20 23
35 37 39 41 41 40 39 37 35 33 31 29 29 31 33 33 30 30 28 30 31 31 31 30 29 29 30 30 26 23 21 25 25 23 22 20 19 21 20 19 18 18 17
36 37 37 40 41 39 38 34 33 29 28 28 29 31 32 25 26 27 29 29 30 30 31 30 28 29 27 28 25 21 23 26 24 23 22 20 16 21 20 19 19 17 16
33 34 37 38 39 40 37 33 31 28 30 33 30 27 29 25 25 28 29 31 31 30 30 29 29 28 28 27 24 21 26 25 26 24 22 23 19 19 19 20 19 18 18
36 38 39 39 38 37 34 30 29 30 28 29 34 35 29 27 28 29 30 30 30 31 31 29 29 28 29 26 25 23 23 26 25 24 23 24 21 21 21 19 20 20 18
35 37 31 28 28 30 29 28 31 32 31 35 36 30 29 28 26 31 30 31 31 31 30 31 31 31 28 29 26 25 23 23 22 24 24 25 23 23 22 21 21 20 21
29 26 28 28 30 32 32 30 34 36 37 35 30 31 31 29 28 29 29 30 30 32 31 31 31 30 31 29 28 27 25 24 22 25 26 25 24 25 23 24 22 20 20
24 25 29 35 36 37 36 35 35 31 31 32 32 32 32 30 30 29 29 29 32 32 31 31 30 30 30 30 27 26 25 24 24 24 25 23 23 21 21 21 24 24 22
33 34 33 32 31 31 32 32 32 31 31 32 32 32 32 32 31 30 29 31 30 30 30 31 30 30 29 28 29 29 29 28 27 21 21 20 22 22 23 22 22 22 21
34 34 34 33 32 31 30 30 30 31 32 32 32 33 33 33 31 31 30 30 31 32 32 29 29 31 32 29 28 28 27 25 24 21 18 17 18 19 21 19 20 19 18

GFSMW_sfc_dewp_015.txt.gz
Dewpoint
43 44 50 52 55 57 58 58 58 56 58 54 52 51 49 46 46 46 45 46 46 46 44 44 43 44 43 43 43 43 39 39 39 34 33 32 33 30 31 32 31 30 31
44 43 48 53 54 56 57 57 57 57 58 52 50 50 46 45 45 46 46 45 44 43 43 43 43 42 42 41 41 39 38 39 37 33 33 29 30 31 30 29 27 28 30
44 46 48 54 54 55 56 56 56 55 55 51 48 46 46 46 46 45 45 43 37 30 31 36 36 36 39 40 40 39 39 36 36 35 33 29 28 28 28 26 27 27 27
47 48 50 53 55 57 56 57 55 50 50 47 45 43 44 42 43 41 35 31 32 31 31 35 36 36 37 35 39 40 40 37 35 35 33 31 30 25 24 25 25 26 24
48 49 51 56 56 58 59 56 48 46 47 46 45 44 43 38 35 33 31 29 32 32 33 35 35 37 39 39 41 40 39 38 36 34 32 29 28 25 24 22 23 25 25
48 51 54 56 57 58 54 47 44 45 46 46 43 39 34 32 30 30 31 30 32 33 35 33 37 37 39 41 40 39 39 38 36 36 34 30 26 25 25 24 24 23 25
50 53 54 53 54 52 48 43 44 45 43 38 35 34 32 30 28 30 31 30 30 31 31 33 35 37 40 39 39 39 39 38 37 36 33 31 30 28 26 25 23 23 23
49 53 53 53 51 47 43 42 44 44 40 36 34 32 32 33 32 32 31 32 31 31 30 33 34 35 38 39 39 39 38 38 37 36 32 32 28 30 27 25 23 22 21
50 53 52 50 47 45 44 43 43 42 37 35 35 33 33 34 34 32 32 32 32 28 31 32 32 34 36 38 38 38 37 37 33 32 31 32 30 29 27 26 25 24 21
48 49 47 46 46 45 45 43 42 38 35 36 36 34 35 35 34 33 31 31 32 30 31 31 32 32 32 34 37 36 35 32 35 33 32 31 32 31 30 25 26 25 24
44 44 43 44 44 45 45 44 42 35 35 37 35 36 35 36 34 33 32 31 31 31 30 32 32 32 32 32 31 31 28 32 32 32 31 30 31 29 28 26 25 24 22
42 40 40 42 43 44 44 43 40 34 36 36 36 36 36 35 34 34 32 32 30 31 30 31 32 33 33 32 32 32 31 31 32 32 30 29 27 25 24 23 21 20 20
41 39 38 41 43 43 43 43 39 34 36 34 35 37 37 36 34 33 32 32 31 30 31 31 32 33 32 31 32 32 30 30 30 30 29 28 26 21 21 19 18 19 18
40 38 37 40 43 43 43 43 39 36 35 34 34 37 38 36 35 33 32 32 31 30 30 32 34 35 31 30 30 30 29 28 27 27 26 25 21 18 17 17 17 17 19
34 38 39 42 42 43 43 42 43 38 37 33 31 34 37 36 33 33 32 32 33 30 31 32 33 34 33 31 29 27 26 25 25 25 24 22 23 25 20 17 17 19 19
30 34 42 43 42 44 44 43 41 39 34 31 32 34 35 34 34 33 33 33 34 32 32 31 32 32 32 32 32 27 23 23 23 24 23 21 23 25 25 23 23 21 19
33 35 39 43 43 44 44 41 38 37 33 33 33 34 33 33 34 34 33 32 33 32 31 31 31 30 32 32 30 26 20 21 23 24 21 20 20 21 19 20 20 20 21
34 35 36 39 42 43 42 39 36 34 32 31 31 33 34 34 34 34 32 30 30 30 30 31 31 31 30 32 30 26 20 22 25 22 21 20 20 20 19 19 18 19 18
34 33 35 37 39 39 40 36 33 31 30 31 32 35 34 33 34 32 32 32 31 30 29 30 30 31 30 31 28 22 23 25 24 24 23 22 18 22 19 19 19 18 18
36 35 32 32 37 38 35 32 29 30 32 32 35 34 33 33 30 32 32 32 30 29 30 28 29 30 28 30 27 23 25 24 25 23 22 23 20 20 20 21 19 18 17
29 29 31 32 32 31 30 30 31 34 35 36 35 35 36 34 32 31 31 30 30 30 30 28 28 28 27 27 27 26 24 24 25 24 23 23 22 22 23 23 20 19 20
28 30 32 32 32 33 33 34 35 35 35 35 35 36 35 32 30 30 30 30 30 30 30 28 28 28 28 28 29 28 25 25 21 22 23 23 26 24 24 24 24 23 23
31 34 34 36 36 35 35 35 34 34 36 37 37 34 33 32 30 30 29 29 29 28 30 29 28 28 29 27 30 29 28 26 22 23 23 25 26 25 25 26 25 23 19
34 35 34 32 32 33 34 35 35 34 34 33 33 33 33 32 31 30 30 29 28 27 28 28 28 27 28 26 26 26 27 26 24 22 23 23 23 21 21 21 23 23 21
32 32 32 32 32 33 33 33 33 32 31 31 32 32 31 32 31 31 30 29 29 29 27 26 28 30 26 27 28 26 24 23 23 18 17 18 18 20 21 20 21 20 20
35 34 33 32 32 32 31 30 30 31 31 31 31 30 30 30 31 30 30 31 31 30 31 31 28 27 30 31 32 31 29 28 28 25 17 13 12 15 19 19 18 16 17

GFSMW_sfc_dewp_018.txt.gz
Dewpoint
49 53 54 53 53 55 58 57 54 56 56 53 50 49 47 46 46 44 45 46 45 44 44 43 43 43 41 41 42 40 37 37 37 33 33 32 32 31 30 29 29 28 29
46 52 52 53 53 56 58 56 54 56 55 51 50 48 45 45 45 45 45 44 44 43 40 40 36 38 39 40 39 38 37 39 37 33 32 29 30 30 28 28 28 26 27
43 49 52 52 54 57 57 56 55 55 56 52 49 46 46 46 45 44 44 36 32 31 35 35 35 35 36 35 36 39 38 36 36 34 32 28 27 28 28 26 26 26 27
43 46 51 52 54 57 57 57 56 56 56 51 48 44 42 42 44 42 34 30 32 34 35 35 36 36 38 36 38 40 38 36 34 34 32 30 29 24 22 25 25 26 25
43 44 52 52 54 57 57 56 56 55 52 48 48 44 44 42 38 34 30 31 33 35 34 35 37 37 40 40 39 39 37 36 35 33 32 30 28 25 23 22 23 25 25
46 50 53 53 54 57 58 57 49 48 47 46 45 44 38 34 31 30 30 31 33 35 33 35 36 37 40 39 39 39 38 37 36 35 33 30 26 25 24 23 23 22 24
49 52 54 54 56 57 52 47 45 46 47 43 41 36 32 30 29 29 31 31 31 32 30 33 34 36 40 39 39 39 38 37 36 35 33 31 30 29 27 25 23 22 23
50 52 54 55 55 53 47 45 45 42 41 40 39 37 31 31 32 32 32 32 32 31 33 33 34 35 38 38 38 38 36 37 37 35 35 32 30 30 27 25 23 22 22
52 53 53 54 52 47 44 47 45 39 39 40 39 38 34 34 34 32 32 32 32 31 33 32 33 33 33 37 38 37 36 36 35 32 32 30 30 29 29 27 26 24 20
51 53 52 50 49 44 43 44 43 39 42 42 39 39 36 35 34 33 32 33 33 32 32 32 32 32 32 32 34 34 33 31 33 33 31 30 32 32 30 26 27 25 23
50 51 50 48 46 43 42 43 41 39 40 42 39 36 34 35 33 32 33 33 32 32 32 32 31 32 31 32 31 31 30 32 32 31 30 30 31 28 27 25 24 21 20
49 49 49 47 45 44 43 43 41 40 38 34 34 35 37 36 34 33 33 34 32 32 31 30 31 32 33 33 31 31 31 31 31 31 31 30 28 25 24 22 19 18 18
45 45 46 46 45 45 44 42 41 36 34 34 37 36 37 36 33 33 33 33 32 32 31 30 31 32 34 33 32 31 32 31 31 32 30 29 27 21 22 19 18 18 18
43 41 43 45 45 45 45 43 40 38 37 34 35 36 36 34 35 33 33 32 32 30 30 31 32 34 34 31 31 30 29 28 27 27 26 24 22 19 18 17 16 17 18
40 39 40 39 42 43 44 44 40 39 37 36 36 37 36 36 36 34 32 32 32 31 31 31 33 34 33 32 31 29 28 26 25 25 23 22 23 26 21 17 19 19 19
32 36 38 41 42 43 43 44 41 40 37 36 35 36 38 35 35 34 33 32 33 33 32 32 33 33 31 33 34 30 25 24 23 23 23 20 22 25 26 24 22 20 18
35 37 42 42 43 44 44 44 43 40 36 34 34 37 35 34 35 33 32 33 34 34 33 33 33 32 32 34 34 31 23 22 22 24 21 20 22 22 19 20 19 18 19
34 35 35 42 43 44 44 44 40 36 34 34 34 34 35 34 34 34 34 35 34 31 31 30 31 32 31 34 32 28 22 22 24 23 22 21 20 20 19 18 18 18 18
36 33 33 34 39 42 41 36 33 31 32 33 35 34 35 33 34 34 35 34 33 32 30 30 31 31 30 33 31 25 21 24 24 24 23 22 21 22 23 19 19 18 18
31 32 32 31 31 33 33 31 32 33 34 34 33 34 34 34 35 36 36 35 31 30 31 30 29 31 30 32 30 25 25 24 25 24 23 24 20 24 22 21 20 18 17
32 32 32 32 31 32 34 34 34 34 35 36 36 37 37 38 38 36 33 31 30 30 30 30 30 29 28 29 30 29 24 24 24 24 23 23 24 23 23 24 22 20 20
33 34 33 33 34 34 34 33 34 35 36 36 38 39 38 37 33 30 30 29 29 29 29 29 29 27 27 29 30 30 27 25 23 24 23 23 25 25 26 24 25 26 25
34 34 34 34 35 34 33 33 34 36 37 37 38 38 34 33 32 30 30 29 29 27 27 27 25 26 28 27 30 31 29 28 23 23 23 24 25 26 25 26 26 23 21
33 32 32 31 32 34 34 34 34 33 33 32 32 32 32 32 32 31 31 29 27 26 28 27 26 26 27 28 27 27 29 28 25 22 23 22 24 20 21 21 23 22 21
33 32 32 32 32 32 32 32 32 31 30 30 31 31 29 30 30 30 30 29 29 28 27 27 26 24 24 28 31 29 26 26 25 19 15 16 18 20 21 20 20 20 19
34 33 32 32 31 31 29 30 31 30 30 30 30 28 28 27 29 29 30 31 31 31 31 31 28 27 30 31 31 32 31 29 26 22 16 18 17 18 19 17 17 17 16

GFSMW_sfc_dewp_021.txt.gz
Dewpoint
55 56 57 55 57 55 58 57 55 54 56 51 48 47 47 46 46 45 45 46 46 44 43 44 42 41 40 41 40 38 36 37 36 33 32 32 31 29 28 28 26 26 27
51 55 54 54 54 54 57 56 54 56 55 50 48 47 46 45 44 45 44 44 44 43 42 38 35 36 36 36 38 38 37 38 36 33 31 29 30 29 27 27 26 24 26
49 53 53 53 53 54 57 56 54 56 54 51 47 46 45 45 44 43 43 37 36 34 34 35 35 35 35 34 35 38 37 35 34 33 32 28 27 28 28 25 26 25 26
47 52 53 52 53 54 56 57 55 56 54 50 47 44 46 42 43 43 34 30 34 35 35 35 37 37 38 37 40 39 38 35 34 33 31 30 28 25 24 25 25 26 24
44 49 52 52 53 55 56 57 55 55 55 50 48 47 48 46 41 33 30 31 35 35 35 37 37 39 41 40 38 37 36 36 34 33 32 30 28 25 23 21 23 25 25
47 46 52 53 53 56 57 58 56 55 55 52 49 47 48 43 34 30 31 33 35 34 35 36 37 40 40 40 39 38 37 36 35 35 33 30 27 25 24 23 23 23 23
46 47 51 52 53 56 57 57 55 55 55 51 49 47 45 43 36 30 33 33 33 31 33 33 35 40 41 40 40 38 37 37 35 34 33 32 30 29 27 25 23 22 23
45 48 51 53 54 55 56 56 51 51 47 48 46 42 39 35 32 31 32 33 32 31 33 34 35 40 39 38 39 38 36 37 36 35 35 33 31 30 28 25 24 23 22
48 50 52 54 55 55 55 53 50 48 45 46 43 39 36 35 33 33 33 33 33 33 33 35 35 34 35 37 38 38 36 36 35 33 32 32 30 29 29 27 26 24 22
50 52 53 54 55 55 52 49 47 45 44 42 41 42 39 37 33 33 32 32 33 34 35 34 33 33 32 33 35 35 33 31 31 33 31 30 31 31 30 26 26 26 24
51 52 53 54 54 51 47 46 43 41 40 41 41 42 37 36 34 33 33 33 34 34 33 33 33 32 32 33 31 31 29 31 30 32 31 31 30 30 27 25 24 21 20
49 52 52 51 47 45 45 45 43 41 40 40 40 38 39 35 33 32 35 35 32 34 33 33 32 33 33 33 32 31 31 31 31 31 30 30 29 27 25 23 20 19 18
48 50 50 49 48 45 44 44 44 42 41 43 41 38 35 33 34 37 35 33 33 33 32 31 32 32 33 33 33 32 32 31 31 31 31 30 29 26 23 21 19 18 17
46 46 48 48 47 46 45 45 45 45 43 41 39 38 36 35 36 33 33 33 33 32 31 32 32 33 32 33 33 31 31 30 30 31 30 28 26 22 20 19 17 17 17
43 42 44 45 46 47 48 47 45 41 42 39 38 36 39 37 35 35 33 34 34 32 31 32 33 33 32 31 32 30 30 28 27 26 24 24 24 25 21 18 17 18 19
36 39 40 42 41 43 45 45 43 42 41 38 36 38 38 38 36 35 35 35 34 33 32 34 34 33 31 32 35 32 29 27 25 24 25 23 25 27 29 25 25 21 18
34 35 38 42 42 42 44 44 41 41 38 37 37 39 40 36 35 34 34 35 35 37 37 34 32 32 33 34 35 35 27 25 24 24 24 21 19 24 24 26 23 21 21
35 34 34 35 40 44 44 44 40 38 37 37 37 37 36 34 34 34 35 36 37 36 35 33 31 31 31 33 35 33 25 24 23 24 24 21 21 22 20 18 18 17 18
32 32 32 32 35 40 39 34 33 33 35 35 35 35 35 35 36 36 37 38 37 36 33 31 31 31 30 32 34 29 23 22 22 24 23 22 21 23 26 21 19 18 19
32 32 32 32 32 32 33 33 34 33 33 35 34 35 36 37 38 38 38 38 35 31 31 30 30 31 30 31 33 27 24 24 25 24 24 28 24 25 26 22 20 19 20
33 33 34 34 34 34 35 34 34 34 35 37 38 39 39 39 39 38 38 35 31 30 29 29 29 30 29 29 33 31 25 25 24 24 24 24 26 26 26 25 22 21 21
33 33 33 33 33 34 34 34 34 36 37 39 39 40 40 39 38 36 32 30 29 28 28 27 28 27 28 29 31 32 28 26 24 24 24 24 26 26 25 25 26 26 24
33 33 33 34 34 34 34 34 35 37 38 38 38 38 37 35 33 31 30 30 29 27 27 27 27 26 28 26 30 31 31 29 25 24 25 26 26 26 26 27 28 24 20
31 31 32 32 32 33 33 33 33 33 32 31 31 31 31 31 31 31 31 30 27 26 27 27 28 27 26 26 27 28 29 30 28 24 26 24 24 21 22 22 25 22 20
32 32 32 31 31 31 31 31 30 30 29 30 30 30 28 29 30 29 30 30 29 29 29 28 28 27 26 26 29 29 28 29 29 28 24 23 21 21 22 21 21 20 18
32 31 31 30 30 29 30 31 31 30 30 30 29 28 28 28 28 28 28 31 32 31 31 31 30 30 30 30 31 32 32 31 30 26 24 23 22 20 20 19 20 17 16

GFSMW_sfc_dewp_024.txt.gz
Dewpoint
55 55 56 58 58 57 56 57 56 55 55 53 51 51 49 49 47 46 46 48 47 45 44 43 42 41 40 41 39 38 36 37 36 34 33 32 32 29 29 28 28 28 28
54 55 56 56 57 56 57 57 55 55 55 53 48 48 47 45 45 45 45 46 44 43 42 39 39 39 37 36 39 38 38 36 35 33 32 30 31 30 28 28 27 28 28
53 54 56 55 56 55 56 56 55 55 54 51 46 45 46 44 44 43 43 41 39 36 34 35 35 35 35 34 37 38 37 35 34 33 33 30 28 28 29 28 27 28 28
51 53 55 54 55 55 56 57 55 55 54 49 46 44 45 43 43 43 36 32 35 35 35 36 37 37 38 39 39 39 38 36 33 33 32 31 30 28 26 26 26 28 26
48 51 54 54 54 55 55 57 55 55 54 50 47 47 46 45 43 37 31 34 35 35 36 37 38 39 40 39 38 37 36 36 34 33 33 31 29 27 25 22 23 25 26
47 49 53 54 54 54 55 57 55 55 55 52 50 47 48 44 40 36 34 34 34 36 36 37 39 39 39 39 39 38 36 35 35 35 34 31 29 26 25 23 24 23 25
45 46 51 52 53 53 55 57 56 54 55 54 51 49 47 45 42 37 38 35 35 35 34 35 38 40 41 40 39 38 37 36 35 35 34 33 31 29 27 26 25 23 24
44 45 48 52 53 54 55 56 56 56 55 56 53 50 48 46 42 37 36 35 32 35 35 35 38 41 41 40 40 38 37 37 37 35 35 33 32 31 29 26 25 23 23
44 46 46 51 53 54 55 56 56 56 54 54 51 49 48 46 41 42 38 34 33 34 37 36 36 40 40 39 40 39 38 37 36 35 34 33 32 30 29 28 26 25 24
45 47 48 51 53 54 55 56 56 54 51 50 49 47 46 45 43 39 37 35 36 36 35 35 35 35 35 36 38 38 37 35 35 34 32 31 31 30 31 28 28 27 25
48 49 51 52 53 54 55 54 53 50 47 46 47 47 45 44 41 38 36 35 36 35 35 34 35 34 34 34 33 33 32 30 30 32 32 31 31 31 30 27 26 24 22
47 50 51 52 53 54 52 50 48 45 48 46 45 45 43 40 37 36 34 34 35 35 34 34 34 34 34 34 33 32 31 31 30 31 31 31 30 29 28 26 23 21 20
43 50 51 51 51 48 48 48 48 45 43 44 45 43 42 38 35 34 35 35 35 34 34 33 33 34 34 33 33 33 32 31 31 31 31 30 30 28 26 24 22 20 18
44 48 49 49 48 48 48 47 47 45 44 44 42 43 42 39 37 36 36 34 34 33 33 33 33 33 33 33 33 32 32 31 31 31 31 30 29 28 25 22 20 18 18
44 45 46 47 48 48 48 47 46 45 44 43 42 42 41 40 39 35 35 35 35 33 33 33 33 35 36 32 33 32 31 30 30 30 29 29 28 28 24 19 19 17 17
38 39 41 41 42 45 47 46 44 42 42 42 41 41 40 38 37 36 35 34 33 32 32 33 38 38 33 34 34 34 31 29 28 27 25 24 29 30 31 30 24 20 19
34 34 34 37 40 43 43 44 43 42 41 40 39 39 38 37 37 34 34 34 35 37 38 39 37 35 33 33 35 35 32 29 28 26 24 23 21 25 23 28 28 26 24
32 32 32 34 37 42 43 41 40 39 38 37 37 37 36 36 35 35 36 37 39 39 39 38 36 33 31 33 34 33 32 29 26 24 24 24 22 22 22 22 21 19 18
32 32 32 32 33 33 34 35 35 35 35 35 35 35 36 36 37 37 38 39 39 39 38 36 32 32 31 32 33 33 29 26 24 24 24 23 22 24 27 21 20 18 18
33 33 34 34 34 34 34 33 33 34 34 35 35 37 38 39 39 39 39 39 38 37 33 32 32 31 30 32 33 33 26 25 24 24 24 29 24 26 28 25 21 20 18
33 33 33 33 34 34 35 34 35 35 37 38 39 39 40 40 39 39 39 37 36 34 31 29 29 29 30 29 32 33 26 26 25 25 24 25 29 29 28 27 23 21 20
33 33 33 33 34 34 35 35 35 37 38 38 39 39 40 39 38 37 36 32 30 28 28 26 28 28 28 29 30 32 33 27 25 25 25 26 27 28 28 26 26 25 24
32 33 33 33 34 34 35 34 35 36 36 35 34 33 32 32 32 30 29 29 28 26 27 28 28 28 29 28 29 31 32 32 26 26 26 26 27 29 28 28 27 25 24
31 32 32 31 31 31 31 31 31 30 30 29 29 30 29 30 29 29 29 28 27 26 28 28 28 28 28 27 27 27 28 29 29 27 27 26 26 26 26 25 27 27 24
32 31 30 30 29 30 31 31 31 30 30 30 29 29 28 28 28 28 28 28 28 28 28 29 28 28 28 29 29 29 27 27 28 28 22 23 24 25 25 24 24 24 23
31 30 29 29 30 30 30 30 30 29 28 27 27 26 26 25 27 27 25 28 30 30 31 32 31 30 31 32 32 32 31 31 30 28 26 25 25 24 24 24 24 24 23

GFSMW_sfc_dewp_027.txt.gz
Dewpoint
51 54 56 57 57 59 58 58 59 60 59 57 57 58 58 57 57 55 54 53 50 49 49 47 47 45 44 44 44 42 42 39 40 36 34 33 34 32 30 31 30 29 29
53 55 55 56 57 58 59 59 59 59 58 57 57 57 56 54 55 51 52 51 49 48 47 47 44 44 43 44 44 43 40 39 40 37 36 33 32 31 30 29 29 33 30
54 55 55 56 57 58 59 59 58 58 58 58 53 51 53 49 48 47 48 47 48 46 44 45 43 41 39 38 42 42 42 37 37 38 35 32 29 33 32 31 30 32 31
53 54 55 56 57 58 59 59 58 58 57 55 54 53 54 51 48 47 46 44 44 42 37 38 40 40 39 40 41 41 42 40 36 36 34 37 35 29 26 30 31 30 29
51 53 55 55 56 57 58 59 58 57 57 54 54 53 53 53 49 45 42 40 40 39 37 40 41 41 41 43 43 42 41 40 39 36 36 36 34 34 28 22 25 28 28
49 51 54 56 56 58 59 60 58 57 57 55 53 53 52 50 46 43 40 39 38 38 39 39 41 42 42 42 44 43 41 38 37 36 35 31 29 28 28 26 26 27 28
47 49 51 54 55 57 58 58 58 57 57 56 54 53 51 49 48 44 42 41 40 40 40 42 42 41 43 43 42 41 40 40 37 37 35 35 33 32 31 30 26 26 27
45 47 49 53 55 56 56 57 57 57 57 56 55 52 51 51 51 48 44 41 41 41 40 41 41 42 43 43 42 40 40 41 39 39 38 36 35 35 33 30 29 26 25
42 46 47 50 54 55 56 57 57 57 57 57 57 55 53 52 51 49 46 45 42 39 41 39 39 42 44 42 42 40 40 41 41 40 40 38 37 36 35 33 30 29 26
41 45 47 48 53 54 55 57 57 57 57 57 58 56 54 52 52 48 44 43 41 38 38 38 40 41 41 41 41 40 41 40 40 38 38 37 36 35 34 30 31 31 29
45 45 47 48 51 54 55 57 56 56 57 57 56 55 53 52 50 47 45 42 39 39 38 37 37 38 37 37 37 37 38 39 38 36 35 35 35 33 33 33 32 30 28
41 48 49 51 52 53 54 55 56 56 55 52 54 53 52 50 48 46 44 41 39 38 36 37 35 34 34 35 35 35 33 35 34 33 34 34 31 35 34 32 31 28 27
40 47 51 52 53 53 53 53 53 53 51 51 50 49 49 48 47 46 43 41 38 36 36 35 34 34 34 34 35 35 35 34 34 34 34 33 34 33 32 31 29 27 23
43 47 50 51 51 51 52 52 51 49 47 47 48 48 47 46 45 43 40 38 38 36 35 35 33 35 34 34 38 37 35 35 34 35 34 33 33 33 32 30 29 26 23
43 45 47 49 50 50 50 49 49 48 47 46 46 46 46 44 41 39 38 37 36 35 35 36 37 39 39 40 40 37 35 34 34 35 34 34 34 34 33 27 27 24 22
37 39 41 42 43 44 47 48 48 47 46 45 44 44 43 40 39 38 38 37 36 35 33 35 40 41 40 38 37 35 34 33 33 33 33 33 34 34 33 31 28 25 23
34 35 37 40 43 44 45 46 46 44 44 43 43 42 40 39 38 37 36 35 35 37 39 41 41 40 41 36 35 35 33 33 33 33 32 30 26 30 27 30 31 28 25
33 33 35 36 37 39 39 41 41 41 40 39 39 39 39 37 36 36 37 39 40 41 41 40 40 40 36 34 35 33 33 33 32 33 32 31 29 26 27 24 24 24 24
33 34 35 35 36 36 37 37 37 37 37 37 36 36 37 36 38 39 40 41 40 40 40 39 39 36 37 37 34 32 32 32 31 31 30 30 28 29 28 24 24 22 21
34 34 35 35 35 35 35 35 35 36 36 37 37 38 38 39 39 40 40 41 40 39 38 37 37 37 38 33 33 33 33 33 32 31 29 30 28 30 29 28 26 24 20
33 34 35 34 35 36 36 36 37 37 38 39 39 39 39 40 40 40 39 38 37 37 36 34 34 33 33 33 33 33 32 33 32 30 29 28 30 29 29 29 29 29 24
33 33 34 34 35 36 36 36 38 39 39 39 38 37 37 36 35 35 34 33 33 33 33 34 33 33 33 31 32 32 32 32 33 31 31 31 30 30 31 30 29 28 26
32 33 34 34 34 33 34 33 33 32 31 31 31 31 31 30 30 31 31 30 31 31 31 31 32 31 32 33 32 31 31 31 33 34 33 30 30 30 30 30 29 28 28
32 31 31 29 30 30 31 31 31 31 31 31 30 29 28 28 27 26 26 26 27 28 28 28 28 29 30 31 32 33 34 32 31 31 33 31 29 29 30 28 30 29 30
30 29 29 30 31 30 30 29 29 29 27 26 24 23 24 21 21 20 21 22 23 26 25 25 25 26 27 26 25 26 27 29 31 33 33 33 31 30 29 29 30 30 30
29 29 30 30 28 26 25 25 24 23 22 21 20 22 22 21 19 18 17 21 22 22 22 22 23 23 23 22 22 23 24 25 27 28 28 32 32 31 30 29 29 30 29

GFSMW_sfc_dewp_030.txt.gz
Dewpoint
48 51 53 55 55 57 55 56 57 59 60 58 54 53 56 59 60 60 59 57 54 52 53 51 50 48 46 46 46 41 41 38 40 37 37 36 37 36 33 34 32 32 32
47 50 52 53 54 55 57 57 57 58 59 56 53 54 56 57 60 60 59 57 55 52 52 51 48 48 46 46 44 41 37 37 39 39 37 37 36 35 34 32 32 35 32
47 49 51 53 54 54 55 55 56 57 59 57 54 57 58 58 58 57 58 57 55 52 50 51 48 48 45 42 43 41 39 37 39 41 38 36 31 34 33 35 33 34 33
47 49 52 54 54 55 56 56 56 56 58 59 56 57 54 55 57 58 57 54 54 52 48 48 48 47 40 39 39 38 42 41 40 39 36 38 33 25 25 32 33 33 31
47 48 50 52 55 56 56 58 58 57 57 59 58 57 57 56 57 56 54 53 51 50 47 46 45 43 39 40 40 43 43 43 40 38 38 36 33 32 28 26 24 26 27
47 48 50 52 53 56 57 58 58 57 58 59 59 59 58 57 56 53 50 49 46 47 45 42 44 42 39 42 44 46 46 42 40 37 34 30 31 30 29 26 26 25 27
46 48 49 50 53 55 57 58 58 57 58 59 59 59 59 59 56 53 51 49 46 45 46 44 43 43 43 45 44 45 44 41 40 37 33 35 32 29 27 27 26 25 26
45 46 48 50 52 55 57 58 57 57 57 58 59 58 58 58 55 54 52 50 47 45 44 44 44 41 44 44 46 46 42 42 39 39 38 33 33 32 30 28 28 26 23
36 41 45 49 52 54 57 59 57 57 57 58 59 59 59 57 56 54 52 50 47 44 44 45 43 43 44 45 46 42 41 40 41 41 39 35 32 34 33 31 30 28 26
39 39 42 46 49 52 55 58 58 57 57 58 59 59 59 57 56 54 52 48 47 46 44 43 42 44 44 46 43 41 39 39 40 38 37 35 32 32 32 28 28 28 27
39 44 44 45 47 50 53 55 57 57 57 58 59 60 59 57 55 53 52 51 50 46 43 41 44 42 44 42 41 38 35 39 38 38 35 34 32 30 30 30 29 28 28
39 45 47 48 49 51 52 53 54 55 56 57 58 59 58 57 56 55 53 52 49 44 41 42 40 38 39 37 36 34 34 36 37 35 35 32 27 33 33 31 31 30 29
38 44 49 50 50 52 53 53 55 55 55 56 55 56 56 55 54 52 51 48 43 43 43 39 36 36 36 34 36 36 38 41 37 34 33 32 33 33 33 32 31 29 25
40 43 48 51 52 53 54 54 55 55 54 53 54 54 54 53 53 52 49 48 45 42 39 38 37 36 34 32 36 40 42 41 36 35 35 34 33 33 34 32 32 29 28
43 46 48 50 51 53 53 52 53 52 52 51 50 51 51 51 50 49 48 46 44 40 37 36 37 36 36 40 42 41 40 39 36 36 34 34 35 35 35 30 31 31 28
42 43 43 43 43 45 47 49 49 49 49 48 48 47 47 46 45 43 41 40 38 36 36 36 38 41 41 39 39 39 40 37 35 34 34 33 36 36 36 35 34 31 30
37 39 41 43 43 44 46 46 46 46 46 46 45 44 44 42 42 40 37 36 35 37 37 39 39 40 40 39 38 36 36 38 38 35 33 31 27 31 33 34 33 30 29
36 38 39 40 41 42 42 43 42 42 42 41 41 42 41 40 38 37 37 37 39 40 41 41 39 38 38 37 36 36 38 39 34 32 31 31 31 30 31 32 31 29 29
37 38 39 39 39 39 39 39 39 39 38 38 38 38 39 39 39 38 39 41 40 40 40 38 38 39 41 36 37 37 36 32 32 30 30 30 30 31 34 31 30 29 29
36 37 37 37 38 38 38 38 38 38 38 39 38 38 39 39 39 40 40 40 40 40 40 39 38 37 38 37 37 34 34 33 32 32 30 31 31 32 32 31 31 30 28
35 37 37 37 37 38 38 38 38 37 38 38 38 38 39 39 39 40 39 38 37 37 38 36 36 34 34 34 34 34 33 34 34 32 31 32 32 32 32 31 32 33 30
34 35 36 36 37 37 37 36 37 37 38 38 37 37 36 34 33 33 32 30 30 32 32 35 33 34 34 33 33 33 33 32 34 33 34 35 33 33 32 31 30 31 30
34 35 35 36 36 36 36 35 35 34 33 31 30 30 29 29 29 30 30 29 29 30 31 29 30 28 29 29 31 28 27 27 29 30 33 32 32 32 31 31 30 29 32
33 33 32 32 32 31 31 31 30 29 29 29 28 28 26 25 24 22 20 21 23 24 22 22 23 23 23 25 25 23 24 23 25 26 29 28 27 32 34 34 32 32 32
32 31 32 31 30 29 29 29 28 26 26 25 23 23 23 19 17 15 18 19 21 22 22 22 21 25 25 23 22 22 22 24 23 25 29 28 26 25 30 32 34 34 33
30 30 30 29 28 26 25 25 24 24 23 20 19 22 21 20 15 14 16 22 21 20 20 20 21 22 20 19 19 20 20 20 20 22 26 30 31 30 26 29 32 35 34

GFSMW_sfc_dewp_036.txt.gz
Dewpoint
50 51 51 54 52 51 50 51 53 53 53 54 54 55 52 53 54 61 60 62 60 59 59 58 57 55 54 52 52 48 44 42 42 41 42 42 43 42 40 40 39 37 35
47 49 51 52 54 53 53 55 56 56 54 56 57 56 53 52 54 61 61 62 61 58 58 58 56 56 54 53 52 48 46 45 44 43 44 43 42 42 42 40 38 37 36
45 48 50 51 53 54 54 54 55 56 57 57 57 55 53 53 52 59 60 60 60 59 57 58 57 56 55 53 52 49 46 43 44 44 43 41 40 40 41 41 39 39 38
42 47 49 51 52 54 55 54 53 53 54 56 53 53 49 48 52 58 59 59 61 60 58 57 57 57 54 53 51 49 46 44 44 46 45 43 43 38 34 39 39 39 38
43 43 47 50 52 54 55 55 54 54 55 56 56 55 51 51 52 58 58 59 60 60 59 58 57 55 53 51 49 47 45 45 46 45 45 46 47 42 37 34 36 37 37
42 43 45 48 50 53 55 56 55 54 54 56 56 57 55 55 55 57 58 59 59 60 59 56 55 52 51 51 50 50 46 48 47 47 47 47 45 38 37 36 35 34 35
42 42 44 45 48 50 54 55 55 54 55 56 57 57 58 56 56 57 59 58 58 56 55 51 51 51 51 51 50 48 48 48 46 48 48 49 41 39 37 34 32 30 31
42 43 41 46 48 50 52 53 53 54 53 55 57 58 57 58 59 59 60 59 58 55 53 52 51 51 50 48 47 48 47 47 48 47 47 46 42 39 37 34 33 32 32
41 42 42 43 48 51 53 55 54 53 54 55 56 57 60 60 61 61 60 59 56 52 52 52 51 49 47 47 47 47 47 47 48 47 46 42 42 40 39 37 35 33 30
38 40 42 44 46 48 52 56 56 54 54 55 57 58 60 60 61 60 60 58 54 52 53 52 50 47 46 47 47 46 47 47 46 44 42 42 42 41 40 34 35 34 32
40 41 42 43 46 47 47 54 56 55 55 56 58 60 60 59 58 60 60 56 54 54 51 50 48 46 46 46 45 45 46 45 44 42 44 43 43 42 39 36 35 33 31
37 41 44 45 45 47 50 55 55 56 57 58 60 60 60 61 60 59 57 56 55 53 50 48 46 46 46 45 44 45 44 43 42 44 42 42 41 41 39 37 33 33 33
33 41 45 46 46 48 50 52 56 57 57 58 59 60 60 59 58 57 56 55 54 53 51 48 46 45 44 44 43 44 44 42 42 42 42 41 42 40 38 36 35 34 32
31 35 44 47 49 51 52 53 55 57 56 56 59 59 58 58 57 56 54 49 46 44 44 45 44 44 44 43 43 44 43 43 43 43 41 41 42 38 37 36 35 34 34
31 36 44 48 50 52 54 54 56 57 57 56 56 56 57 57 56 55 52 49 46 44 43 43 43 43 42 42 41 42 42 41 40 40 41 41 40 39 38 35 34 35 35
33 38 42 49 51 53 54 55 54 55 55 54 53 53 54 52 52 51 50 49 47 45 43 42 41 40 39 37 41 41 40 39 40 40 40 40 39 39 38 37 36 34 33
39 43 47 50 52 52 53 51 51 51 50 49 49 49 48 47 46 44 43 43 42 41 39 40 40 41 41 40 39 38 39 38 37 38 39 39 39 38 37 35 34 34 34
42 45 45 46 47 48 47 48 47 47 46 45 45 46 45 43 42 40 39 39 39 39 39 39 39 39 39 39 38 36 37 38 39 39 39 39 38 34 33 32 31 30 31
43 44 44 44 44 44 44 43 42 42 42 42 42 42 42 41 40 39 40 40 40 40 40 39 39 38 39 38 37 37 38 38 37 34 33 33 32 34 35 32 32 32 32
41 41 41 41 41 41 41 40 40 40 40 41 40 41 40 40 41 42 41 41 41 39 39 40 40 38 40 37 36 34 33 31 30 30 29 30 31 31 31 28 27 26 28
39 40 40 40 40 40 40 39 40 39 40 40 40 40 40 41 40 40 41 40 40 40 38 38 38 37 34 31 29 28 27 26 25 25 25 26 28 28 26 27 23 23 24
38 39 39 39 40 40 39 38 38 39 39 40 40 40 40 39 39 39 38 37 35 35 34 33 33 34 31 29 28 25 24 24 23 22 23 24 25 24 24 25 27 28 27
37 38 38 39 39 39 39 37 38 39 39 38 37 35 33 31 31 32 30 30 31 31 29 29 30 29 29 28 25 23 21 22 22 22 23 22 22 24 24 27 27 27 27
36 37 38 38 38 38 38 38 38 36 34 32 30 30 28 27 26 21 23 28 27 28 27 28 26 26 26 23 22 21 20 21 21 21 20 21 22 23 22 21 22 21 23
37 37 38 38 37 36 36 35 33 32 31 29 26 26 27 24 22 21 23 24 20 23 25 24 24 23 22 20 19 18 19 19 19 18 19 20 21 19 19 18 18 19 19
37 37 37 36 34 33 32 31 30 29 27 26 26 29 28 25 21 22 21 24 22 21 21 20 20 22 19 17 17 17 18 18 19 19 18 17 17 17 17 16 16 17 17

GFSMW_sfc_dewp_039.txt.gz
Dewpoint
52 51 51 51 50 49 50 52 51 50 49 47 47 48 49 52 54 56 60 60 60 60 58 57 55 53 53 51 49 48 41 40 40 39 39 40 40 39 39 38 36 37 36
49 51 51 50 49 46 46 47 47 48 49 47 45 47 54 51 53 54 60 61 61 60 59 57 54 53 53 52 50 45 43 41 40 39 42 40 40 41 40 40 38 37 35
49 50 51 50 48 47 46 45 45 51 49 50 48 53 55 51 52 55 58 60 58 54 58 58 55 54 54 53 50 46 43 41 43 42 42 40 39 39 40 41 39 36 37
49 49 51 51 49 49 50 51 52 54 52 52 53 54 54 51 49 53 58 59 59 58 59 58 56 55 54 53 50 48 46 44 41 44 44 43 42 38 36 39 39 38 36
48 48 49 52 52 50 51 53 54 54 53 53 54 55 53 52 50 55 58 58 59 59 59 58 57 55 54 53 51 49 47 49 49 46 45 46 47 43 41 36 35 38 38
45 48 49 50 52 53 52 53 53 54 54 55 55 55 55 50 49 50 58 58 59 60 59 58 58 56 51 50 51 50 50 49 49 48 47 47 46 45 42 38 35 35 36
42 46 48 49 50 51 52 52 52 51 52 53 54 54 54 53 51 52 57 58 58 57 58 56 54 51 51 51 51 50 48 47 47 48 48 49 49 48 44 38 33 31 31
41 43 46 48 50 51 52 53 53 52 53 53 54 54 55 54 53 56 57 58 59 59 56 52 52 51 52 51 49 48 47 47 47 47 48 48 48 46 39 35 33 31 31
41 41 43 45 47 50 51 53 53 53 53 54 54 55 55 56 58 58 59 59 59 56 54 52 51 50 49 48 47 47 47 47 47 47 47 47 46 42 40 38 36 33 30
40 42 42 44 45 47 50 52 52 53 53 53 54 56 57 57 59 58 56 57 55 55 53 53 52 51 48 47 47 47 47 47 47 47 46 45 44 43 41 39 36 36 33
36 40 44 44 45 46 47 51 52 56 56 56 55 56 58 59 58 59 59 57 54 54 53 54 52 47 47 47 46 45 47 45 45 45 44 43 44 42 42 41 38 34 33
38 38 40 41 43 46 49 51 53 56 54 55 57 58 59 59 58 58 57 55 53 53 54 52 50 47 47 46 45 45 45 44 44 44 44 42 42 42 42 41 38 35 33
37 41 42 43 44 45 49 53 56 57 56 55 56 60 60 60 58 57 57 54 54 53 51 49 47 46 46 45 45 44 44 45 44 43 43 42 40 40 41 39 37 36 34
34 42 44 45 45 48 52 54 56 58 59 60 59 57 57 56 56 55 54 52 51 50 50 48 46 46 45 44 44 44 44 43 43 43 41 40 40 41 41 37 36 35 35
29 41 45 46 49 52 54 55 56 56 58 58 57 56 56 56 54 52 50 47 47 46 45 45 45 44 44 43 44 44 43 42 42 41 40 41 41 40 39 38 37 37 35
32 35 47 49 51 52 54 54 54 54 55 55 55 55 55 54 54 51 49 47 45 44 43 43 43 43 42 40 40 42 41 40 39 40 39 39 40 40 38 38 38 37 36
35 40 49 51 52 54 53 52 51 50 51 51 50 49 48 47 46 47 47 45 43 41 40 40 39 39 38 38 39 38 39 38 36 35 36 38 38 38 37 34 33 33 33
43 49 50 50 51 51 50 49 48 48 47 46 46 46 44 43 41 40 39 38 39 38 38 39 40 39 39 38 37 36 36 36 37 38 38 36 34 33 31 29 28 28 29
45 45 46 47 46 47 46 46 45 45 45 45 44 43 42 39 38 38 37 38 38 38 37 38 38 38 38 38 36 36 36 38 33 31 29 29 28 31 30 26 24 22 19
43 43 43 43 44 42 43 42 42 42 42 42 42 41 40 39 40 40 40 39 39 39 40 39 40 38 38 36 35 33 29 26 25 25 26 28 27 29 27 23 22 22 21
41 42 41 41 40 40 40 40 40 40 41 41 41 41 40 40 40 40 39 39 38 37 35 36 36 33 29 28 28 26 23 24 25 24 23 23 25 24 23 24 24 24 26
40 40 40 40 40 40 40 39 39 40 40 40 40 40 40 39 39 39 38 39 38 35 32 31 30 28 27 26 25 24 23 22 23 22 23 23 22 23 25 25 24 23 23
38 39 39 40 40 39 39 38 39 40 40 39 39 38 38 38 38 37 33 32 32 28 27 28 29 26 26 23 22 21 20 21 21 22 20 20 22 23 24 22 20 21 20
37 38 39 39 38 39 38 39 39 39 38 36 34 31 29 26 23 27 26 25 24 25 25 24 24 24 21 20 19 19 20 21 20 20 19 20 22 22 21 20 19 19 19
38 39 39 38 38 38 38 37 35 33 31 29 26 27 25 22 22 24 22 19 22 24 22 23 23 21 19 19 18 18 19 18 20 16 16 18 20 18 17 17 17 17 16
38 38 38 36 35 34 33 33 32 30 27 26 26 26 25 23 20 21 21 23 22 22 22 23 22 22 20 17 17 17 18 18 20 19 14 10 9 14 14 14 14 14 13

GFSMW_sfc_dewp_042.txt.gz
Dewpoint
52 52 52 51 51 51 51 52 52 53 52 51 53 52 50 49 50 51 53 57 57 59 58 57 56 54 51 51 49 47 43 42 42 39 38 39 40 39 39 37 40 42 44
52 51 52 50 50 50 51 51 52 52 51 51 51 50 49 49 51 51 55 59 60 59 58 57 56 53 52 51 49 46 43 40 41 38 41 38 41 40 40 39 37 37 41
51 50 51 50 49 49 50 51 51 50 50 49 48 47 49 52 51 51 53 56 59 59 59 57 56 53 52 52 50 46 43 41 42 42 41 40 39 39 40 40 40 38 37
51 50 50 50 49 48 49 50 50 49 49 49 46 45 46 47 49 52 52 56 59 59 58 58 56 54 53 52 51 47 44 43 42 44 44 45 43 38 37 39 40 39 37
49 50 50 50 49 47 46 46 48 47 48 49 47 46 46 48 53 51 51 55 58 58 56 57 57 55 54 54 53 48 46 48 48 48 46 46 46 42 42 39 38 38 39
49 50 51 50 48 47 45 45 45 45 51 49 49 49 50 52 54 51 51 53 56 58 58 58 58 56 56 55 53 51 48 49 47 47 47 47 46 46 44 41 39 37 37
49 49 50 51 49 47 47 47 47 48 51 52 51 51 53 55 53 51 53 54 56 56 58 58 58 56 54 54 53 50 49 48 47 47 47 49 48 47 45 42 41 36 33
47 48 49 51 51 48 48 49 50 51 51 52 52 52 53 54 55 53 53 57 57 58 59 59 58 56 53 52 52 50 50 48 48 48 48 49 49 47 45 40 39 34 32
43 47 48 49 51 52 50 50 51 52 52 53 53 53 54 55 56 54 55 56 58 58 58 57 56 54 53 52 51 50 48 48 48 48 48 47 48 47 45 40 38 36 33
42 43 46 49 50 51 52 52 52 51 52 53 54 54 54 55 56 56 56 57 55 56 56 54 53 52 51 50 50 49 48 47 48 47 47 47 46 45 43 42 42 38 36
39 42 43 47 48 50 51 53 53 53 53 55 55 54 55 56 57 57 57 57 57 56 54 53 51 51 50 49 48 47 47 47 46 46 46 45 44 44 43 43 43 40 36
35 39 42 44 46 47 49 51 53 54 55 55 56 57 58 57 58 58 58 57 57 57 55 53 53 50 49 48 47 46 47 46 45 45 44 43 43 42 42 42 41 40 38
37 39 41 42 45 45 46 47 51 53 54 56 58 59 59 59 59 59 58 58 58 57 54 53 52 50 49 47 46 46 45 45 44 44 43 43 42 40 41 41 40 38 36
38 40 41 43 44 47 51 48 50 53 54 55 56 56 58 59 59 59 57 57 54 53 53 51 50 48 47 46 45 45 44 44 44 43 42 42 40 40 40 39 38 37 36
29 41 42 44 48 53 55 55 51 53 55 55 55 54 57 58 58 55 54 53 52 51 50 49 48 46 45 45 44 44 44 43 43 43 41 40 41 40 40 39 38 38 38
29 38 44 46 51 54 54 55 56 56 58 58 58 57 56 55 54 52 50 48 48 47 46 45 45 44 44 40 41 43 42 42 41 40 40 39 39 40 37 34 34 33 30
30 32 44 48 52 54 54 54 54 55 55 56 56 55 54 53 51 50 48 47 44 43 43 43 44 42 43 39 40 40 41 39 39 37 37 38 36 34 31 31 30 29 31
32 41 47 51 53 53 52 51 52 51 50 51 50 50 49 49 48 46 44 41 41 40 39 38 39 39 39 38 38 36 36 35 37 37 34 31 29 31 28 26 24 23 23
38 45 50 51 51 50 49 49 48 47 47 48 47 46 45 44 42 40 39 38 38 38 38 38 38 37 37 37 36 35 35 33 30 28 28 27 26 27 27 24 22 21 22
47 48 48 49 48 46 46 46 45 45 45 43 42 41 40 39 38 38 37 37 37 37 38 37 37 36 35 36 36 35 32 27 25 24 23 25 25 25 23 22 23 23 23
45 45 47 47 44 44 44 43 43 42 42 41 40 40 40 39 38 38 38 38 37 36 35 33 32 30 30 29 29 27 24 24 23 22 22 23 22 21 23 25 25 24 21
42 43 43 42 41 42 42 41 40 41 41 40 40 40 40 39 39 38 38 38 36 33 31 29 27 26 26 26 26 25 23 22 22 21 22 22 21 23 24 24 20 20 22
41 41 40 40 40 40 40 39 40 40 41 40 39 39 39 39 38 38 36 35 33 31 29 27 25 23 22 22 22 21 21 20 20 21 20 20 21 23 23 19 18 20 20
39 39 39 39 39 39 39 40 40 40 39 38 38 36 29 29 27 26 29 28 27 27 29 27 24 22 20 20 20 19 21 21 20 20 20 20 22 22 20 20 18 18 17
39 39 39 39 38 39 39 38 38 37 33 30 27 25 26 25 20 19 21 23 25 25 25 25 24 20 19 19 19 19 20 20 21 18 17 19 17 16 15 16 16 16 15
39 38 38 37 36 36 34 34 32 30 27 25 24 24 23 23 18 18 21 25 24 25 25 24 22 22 20 18 17 17 17 18 18 19 16 12 10 13 14 13 13 13 12

GFSMW_sfc_dewp_045.txt.gz
Dewpoint
52 52 51 52 52 53 53 53 54 55 55 54 53 53 51 50 49 50 52 53 55 57 56 55 55 54 52 51 49 47 45 43 42 39 38 38 39 39 39 41 45 46 47
51 52 51 51 51 52 51 52 52 53 52 52 51 51 50 50 49 50 51 55 56 56 57 56 56 54 52 50 49 46 43 42 41 38 39 36 39 41 40 38 40 42 45
51 51 51 50 50 50 51 51 51 52 52 52 51 48 49 50 49 49 51 52 56 57 57 57 56 55 53 51 49 47 44 41 41 42 40 39 38 40 41 40 39 38 39
51 51 51 50 49 50 51 51 51 51 51 51 49 49 48 46 46 47 49 51 55 57 59 58 56 55 53 52 51 48 44 44 41 43 44 44 43 39 38 39 41 40 38
50 51 50 51 50 50 50 51 51 51 50 50 49 48 47 48 48 50 51 52 54 57 58 58 57 56 54 53 53 51 51 48 48 46 46 45 45 42 41 39 40 39 40
50 51 50 50 50 49 49 49 50 50 50 50 49 47 48 46 48 50 51 52 53 56 56 57 57 56 55 54 54 53 51 49 49 48 46 45 46 45 43 40 39 38 39
49 50 50 50 50 48 48 48 48 49 49 49 49 48 46 47 47 50 51 52 53 54 56 56 55 56 56 55 55 53 51 50 49 47 48 48 48 47 45 43 41 40 39
48 49 50 50 50 48 46 47 46 47 48 48 48 49 49 48 48 50 53 54 53 54 55 56 57 57 57 55 54 54 53 51 50 48 48 49 49 48 46 44 42 38 35
47 48 49 50 50 49 47 46 45 45 46 46 50 49 49 50 50 52 54 54 54 56 56 56 57 58 57 56 54 53 51 50 49 49 49 49 49 48 47 42 39 37 35
45 48 49 50 51 50 48 48 46 45 45 46 48 51 51 51 52 54 55 54 54 56 56 55 56 55 55 54 54 52 50 49 49 49 49 48 48 46 45 42 42 40 38
43 45 48 49 50 51 50 48 48 47 48 50 51 52 52 53 54 55 55 55 55 56 56 56 55 53 53 51 50 49 48 48 48 48 48 47 46 45 44 43 43 42 39
40 43 44 47 49 50 51 51 50 49 51 52 53 54 55 55 56 57 57 57 57 57 56 55 54 52 51 50 50 48 48 47 47 47 46 45 44 43 43 43 41 41 41
36 39 42 43 47 49 50 51 53 53 52 53 54 55 56 56 56 56 57 57 57 58 57 57 54 53 52 50 49 48 47 47 47 46 45 44 42 41 41 41 41 39 37
35 37 38 42 44 47 48 50 51 53 54 54 54 55 56 56 56 57 57 57 58 57 57 54 53 52 50 49 48 47 46 46 45 44 44 42 42 40 40 40 39 38 36
33 38 40 41 43 45 46 47 48 51 53 54 55 55 56 57 57 57 58 58 57 57 54 53 51 50 48 47 46 46 45 44 44 43 42 41 41 40 39 39 37 35 33
29 33 40 42 45 48 49 51 49 51 53 53 55 55 55 56 57 56 54 53 52 51 51 50 48 47 47 44 41 43 44 43 42 41 40 40 40 37 35 34 33 31 28
30 30 38 42 45 51 53 53 54 55 54 54 55 55 55 55 53 52 51 50 48 46 46 46 46 45 44 40 41 40 42 42 41 40 38 37 34 32 30 28 27 26 26
31 31 31 44 49 53 52 53 54 55 56 56 55 55 53 51 50 49 47 45 45 44 44 43 43 43 42 39 39 38 39 38 38 37 35 31 30 29 27 24 22 21 21
33 32 33 46 52 52 51 52 51 52 53 52 51 51 50 49 47 45 43 41 41 41 40 41 40 40 39 37 37 37 36 32 29 28 28 27 27 26 25 22 20 21 23
35 43 49 51 51 50 50 50 48 49 50 49 47 48 47 46 43 41 40 38 38 38 38 36 35 36 36 36 36 35 31 27 25 23 23 25 24 23 21 23 23 23 23
46 49 50 50 49 48 48 47 46 46 45 44 43 42 42 42 39 38 37 37 37 36 35 32 32 32 32 32 33 31 29 26 24 21 21 22 21 21 23 25 24 22 20
46 48 47 46 46 46 46 45 43 42 41 41 40 39 39 38 38 37 37 37 35 33 31 28 27 26 26 27 27 25 24 23 23 22 21 21 21 23 24 21 19 19 21
44 45 44 42 42 43 44 41 41 41 40 40 39 39 38 38 38 37 36 34 33 32 29 27 25 23 22 23 24 22 21 21 21 21 20 20 22 23 21 18 17 20 19
41 41 41 40 40 40 41 41 41 40 39 38 37 34 32 30 30 29 32 31 32 31 28 26 23 21 19 20 20 20 21 21 20 20 20 21 22 19 19 18 16 16 16
40 40 40 39 39 39 39 40 40 38 34 30 29 28 25 24 23 24 25 25 26 29 27 25 23 20 20 19 20 20 21 22 22 21 20 17 16 15 14 15 14 14 12
39 38 38 38 37 36 34 34 34 32 29 27 26 24 22 21 20 20 21 26 27 27 27 26 24 23 21 19 19 20 18 19 21 19 15 11 9 13 12 12 11 11 11

GFSMW_sfc_dewp_048.txt.gz
Dewpoint
51 51 52 54 54 54 54 55 56 56 56 56 55 54 54 51 49 51 54 57 56 57 57 56 56 55 53 52 50 47 45 43 42 39 39 39 39 39 40 45 47 49 50
51 52 50 52 53 53 54 54 54 55 56 57 56 54 54 50 49 50 53 56 56 57 57 56 56 55 53 51 49 47 45 44 42 39 39 36 38 41 40 40 42 46 47
50 51 50 50 52 52 52 53 53 54 55 55 54 50 50 50 49 49 51 52 55 55 56 56 55 55 53 51 49 47 45 43 42 42 41 39 37 40 42 41 40 41 43
50 51 50 49 50 51 52 52 53 53 53 52 51 50 50 49 49 47 49 50 53 54 56 56 56 55 54 52 51 48 46 44 42 42 42 44 43 39 39 40 41 40 39
48 51 51 50 50 50 51 51 52 52 52 51 51 50 49 49 48 48 48 49 52 53 55 56 56 55 54 53 52 50 47 47 46 47 47 46 45 43 41 39 40 41 41
48 50 51 51 50 50 50 51 51 51 51 50 50 50 50 49 48 48 48 49 51 53 54 56 56 55 54 54 53 52 50 51 50 49 49 47 46 44 42 41 41 40 40
47 50 50 50 50 49 49 50 51 51 51 50 50 49 49 49 48 47 48 49 50 51 52 54 54 54 54 54 54 53 52 52 51 50 49 50 49 48 46 44 43 41 41
47 49 50 50 50 49 49 49 50 50 50 50 50 49 49 48 48 48 49 50 52 52 52 54 54 54 54 54 54 53 54 53 52 51 50 50 49 48 47 45 44 40 38
47 48 50 50 50 49 49 49 49 49 50 50 50 49 49 48 48 49 50 52 52 53 54 54 54 54 55 55 54 54 54 53 53 52 51 49 49 49 48 43 43 43 38
45 48 49 50 50 49 49 49 48 48 48 49 49 49 49 50 50 50 51 52 53 53 54 55 55 56 56 56 56 56 56 55 53 51 50 49 50 49 48 46 43 41 39
42 47 48 49 50 50 49 48 48 48 48 48 49 50 50 50 51 51 53 54 54 54 54 55 56 56 56 56 56 55 52 52 52 50 50 48 49 48 46 44 43 41 40
42 44 47 49 50 51 50 48 48 47 47 48 48 50 51 52 52 52 52 53 52 55 55 55 56 56 56 53 52 51 51 51 50 49 48 47 47 46 45 44 43 42 42
36 42 45 48 49 50 51 50 49 48 48 48 49 50 51 52 53 53 53 53 54 55 56 56 56 55 52 51 51 50 50 49 48 47 47 46 45 44 43 42 41 41 38
29 37 43 44 47 49 50 51 51 50 50 49 50 50 51 52 52 53 53 54 55 55 56 57 56 56 52 50 50 50 48 47 47 46 46 45 44 42 41 41 39 38 37
27 35 37 41 43 47 49 50 51 52 52 51 50 51 52 53 53 54 54 55 56 56 57 57 55 52 51 50 49 48 47 46 45 45 44 43 42 41 40 39 38 36 35
29 29 37 39 41 44 47 49 50 51 53 53 52 52 53 54 54 54 55 56 56 57 57 55 51 50 49 44 44 46 46 45 44 42 41 41 39 37 36 35 34 32 30
30 29 33 39 41 43 45 46 48 49 52 53 53 54 54 54 55 56 56 56 55 53 51 50 49 48 48 41 42 43 44 43 42 40 39 38 34 32 30 30 28 26 27
32 31 31 35 40 44 50 50 52 51 51 52 53 53 54 55 55 53 52 49 49 49 47 46 46 45 43 40 39 39 41 39 39 38 36 33 31 29 27 24 21 20 21
35 34 33 32 39 49 51 52 53 53 53 53 54 54 54 51 50 49 47 46 46 45 45 44 43 42 40 38 37 38 35 32 30 30 30 29 28 28 25 21 19 21 23
34 35 35 44 48 50 52 52 53 54 53 52 51 51 50 49 47 44 43 42 41 39 39 37 38 38 37 37 36 34 31 29 26 25 26 27 23 23 23 23 23 22 22
31 43 48 48 49 50 51 49 51 51 48 48 48 47 46 44 42 40 40 39 37 34 33 31 30 31 33 34 34 33 30 28 25 23 21 21 22 24 25 26 24 21 19
43 46 47 46 47 49 48 47 44 44 44 43 42 41 40 39 39 38 38 36 34 32 30 28 27 27 27 28 29 29 28 26 24 21 20 22 23 25 24 21 20 20 20
44 45 44 43 44 45 45 42 41 42 43 42 39 39 38 38 38 36 36 34 32 31 30 28 26 24 24 24 24 23 23 23 21 22 22 23 24 23 20 18 18 20 17
41 42 42 41 41 42 42 42 43 41 40 37 35 34 33 32 32 32 34 33 32 30 29 27 24 22 20 20 21 21 21 22 21 22 21 22 21 20 18 17 16 16 14
40 40 39 39 39 40 41 41 40 37 34 32 30 29 29 28 27 27 28 29 30 31 29 27 24 23 21 20 21 21 21 22 22 22 20 17 16 14 14 15 13 13 12
38 36 35 34 34 34 34 34 34 33 31 29 28 27 27 25 25 25 25 29 29 29 27 26 24 23 22 21 21 21 22 23 22 19 16 14 13 13 13 13 12 11 10

GFSMW_sfc_dewp_051.txt.gz
Dewpoint
52 51 52 55 54 56 56 57 57 57 57 57 56 56 56 55 56 57 57 57 55 55 56 54 54 52 51 53 53 50 49 46 45 41 41 41 43 45 44 47 47 50 52
52 51 51 53 54 55 55 56 57 57 57 57 57 56 55 53 54 56 58 57 57 56 57 57 56 55 54 54 55 52 49 48 46 43 43 41 41 41 42 42 45 48 49
51 51 51 52 53 54 55 55 56 56 56 57 56 55 53 51 50 52 55 56 57 55 56 58 58 58 58 54 55 54 52 49 47 47 45 42 43 43 43 44 42 44 46
50 51 51 51 52 53 54 54 56 56 56 57 55 53 52 51 50 50 52 52 55 57 57 58 58 58 58 58 57 54 54 53 50 46 44 48 46 43 42 43 44 43 43
50 51 52 51 51 53 53 54 55 55 56 55 55 53 53 52 52 51 51 51 53 54 55 57 58 58 58 58 58 57 55 54 54 50 48 47 46 46 46 46 43 42 43
48 50 52 52 51 51 52 53 53 54 54 55 54 54 53 52 51 50 50 50 50 54 55 54 57 58 59 59 59 58 57 56 54 52 51 48 48 45 44 44 45 43 43
48 49 51 51 51 50 50 51 52 52 54 54 54 54 54 53 52 52 51 52 52 53 54 55 56 57 58 59 59 58 58 57 56 54 53 52 51 50 47 46 45 43 44
48 49 50 51 51 51 51 51 52 52 53 54 53 53 53 52 52 52 52 53 53 53 54 55 56 56 57 57 58 58 58 58 57 56 55 53 52 52 51 48 46 43 45
44 48 50 51 52 51 51 52 52 52 52 53 54 54 53 52 52 53 53 54 54 53 54 55 55 56 57 57 58 58 58 57 57 56 55 53 53 54 53 50 48 47 43
42 47 50 51 52 52 51 52 52 51 52 53 53 53 53 53 53 53 53 53 54 54 54 55 56 56 57 57 57 58 58 57 56 56 54 53 54 54 51 49 48 48 47
40 46 49 51 51 52 51 51 51 51 52 53 54 54 54 54 53 53 52 52 52 52 53 54 55 56 56 57 58 58 58 55 56 55 54 53 53 51 50 49 46 45 45
36 43 48 50 51 51 51 50 51 50 52 52 53 54 54 53 53 53 53 54 53 53 52 53 54 55 56 57 57 57 56 54 54 54 52 52 51 50 49 47 45 44 43
31 40 46 49 50 51 51 50 51 50 51 51 52 53 53 54 52 53 53 54 54 54 54 54 55 55 55 56 57 56 54 53 54 54 52 50 49 48 46 45 44 43 42
32 32 42 47 49 50 51 51 51 51 50 49 50 51 52 52 53 53 53 54 54 54 54 55 55 56 56 56 55 55 55 54 53 52 49 48 47 47 44 43 43 41 39
32 32 36 42 46 49 51 52 52 52 51 49 49 50 51 52 52 53 54 54 54 54 55 56 56 56 56 55 54 53 52 51 49 48 47 47 46 43 42 42 40 39 37
33 33 34 37 43 46 49 51 52 53 52 51 50 50 51 51 52 52 53 54 55 55 56 56 56 57 56 48 46 49 51 50 47 45 43 43 41 39 38 37 36 37 34
34 34 34 35 39 43 47 49 51 53 53 52 52 52 52 52 54 53 53 54 55 56 57 57 56 55 54 44 44 43 48 46 45 42 40 38 36 35 33 31 30 29 27
35 36 36 36 38 43 44 47 48 51 53 53 53 53 53 53 54 54 54 56 56 56 55 53 51 49 47 41 41 41 44 42 41 41 38 36 33 31 29 25 22 20 20
36 35 36 37 38 40 45 46 47 49 50 52 53 54 54 54 55 55 52 49 48 46 45 45 45 44 41 39 38 38 37 35 34 34 33 32 30 31 29 23 21 21 22
43 38 35 37 37 38 48 49 49 50 50 50 52 54 55 53 52 48 46 43 42 40 39 38 39 38 38 37 37 36 33 31 30 29 29 29 29 29 26 23 21 20 21
40 38 38 39 43 48 50 51 53 53 53 52 52 51 51 48 45 42 41 39 36 34 33 32 32 34 35 35 35 35 32 29 27 25 24 26 27 27 26 25 22 21 19
43 45 46 47 49 51 51 51 49 48 48 46 45 44 43 43 41 39 37 36 34 32 30 29 28 28 30 32 32 31 30 29 26 22 22 26 27 27 23 22 23 21 20
43 45 46 46 47 48 47 45 44 45 43 42 41 42 41 38 38 36 35 34 33 31 30 29 27 25 25 25 27 27 26 24 23 23 24 26 25 23 21 21 21 19 18
41 42 43 43 43 44 45 44 44 43 41 38 37 36 35 34 35 34 34 33 32 31 30 28 25 23 22 22 22 22 23 23 23 24 23 22 21 20 19 18 17 15 15
39 39 39 39 39 39 39 40 40 38 36 34 33 32 31 30 30 30 31 31 32 32 31 29 26 26 23 21 21 21 22 23 23 22 21 19 17 16 16 15 14 14 13
32 32 32 33 33 34 33 34 35 34 34 32 31 31 30 30 29 27 27 30 29 28 27 26 25 25 26 27 27 27 25 23 21 20 19 18 18 16 15 15 14 15 14

GFSMW_sfc_dewp_054.txt.gz
Dewpoint
49 51 53 53 55 57 57 58 57 57 58 57 58 58 57 56 57 56 57 58 53 53 53 49 52 52 51 52 53 50 49 45 46 41 42 43 46 47 44 45 46 48 50
49 50 52 53 54 55 57 58 57 58 57 57 58 57 57 54 55 55 56 57 58 53 53 52 51 52 51 55 55 53 50 48 47 44 45 44 44 44 45 44 45 48 46
48 50 51 53 55 55 56 57 57 57 57 57 58 57 57 57 55 54 54 56 57 53 53 54 53 53 52 53 56 55 54 50 51 51 48 46 45 45 46 46 44 47 47
48 49 51 52 53 54 56 57 57 57 57 58 57 56 54 53 54 54 53 54 57 56 53 54 55 56 54 54 55 55 55 55 51 50 49 52 51 46 46 46 46 47 46
48 49 50 52 52 53 55 55 56 57 57 57 56 55 54 53 53 53 54 56 57 56 54 55 57 58 58 58 58 58 58 56 58 53 52 51 50 51 49 48 48 47 46
47 49 51 52 52 53 54 54 55 56 56 56 56 55 55 53 53 53 52 54 55 57 58 56 59 60 59 59 60 60 59 58 57 58 55 53 51 50 49 48 49 48 49
46 48 50 51 51 53 53 54 53 54 56 56 56 56 55 55 54 53 52 52 53 54 55 57 56 56 57 58 58 59 59 59 58 58 56 55 54 53 52 50 49 50 51
46 47 49 51 52 53 53 53 53 53 55 56 56 56 56 55 54 54 52 52 51 52 55 55 55 55 55 56 56 56 57 58 59 59 58 56 56 56 54 50 49 46 48
43 45 47 51 52 53 53 53 52 52 53 55 57 57 57 56 55 55 55 53 53 52 55 55 54 54 54 55 56 55 55 57 58 58 58 58 57 58 56 55 52 49 48
34 40 46 50 52 53 53 54 53 51 52 54 55 55 56 57 56 56 56 55 56 56 55 56 56 55 55 56 56 56 56 56 57 57 58 58 58 57 55 53 54 53 50
35 40 45 48 51 52 53 54 53 52 52 53 55 55 56 56 57 57 56 56 56 56 55 55 55 55 55 55 56 56 56 56 57 59 58 57 57 56 54 54 52 50 50
34 37 45 49 50 52 52 53 53 52 52 53 54 56 56 55 56 57 57 58 57 56 56 55 55 54 54 54 55 55 55 55 56 57 57 56 54 53 53 52 51 50 49
31 33 41 47 49 50 51 52 53 53 53 52 53 55 56 56 57 56 56 55 55 55 54 53 53 52 53 52 55 54 55 56 55 57 56 54 55 53 52 50 48 47 46
31 31 33 42 47 49 51 52 52 54 53 52 53 53 55 56 56 56 55 55 54 54 54 54 53 54 52 53 53 54 55 55 56 56 56 56 54 52 50 47 46 45 43
30 32 33 34 40 47 50 51 52 53 53 52 52 53 55 54 54 54 54 54 55 54 53 53 53 54 53 53 54 55 56 56 56 55 55 55 51 46 46 46 44 42 40
30 31 32 33 35 41 47 49 51 52 53 52 52 52 53 53 54 53 54 54 54 53 53 53 53 54 54 48 47 53 57 55 55 51 49 48 45 43 41 41 41 41 40
35 33 33 35 36 39 46 48 50 52 52 52 51 51 52 52 53 53 52 53 54 54 54 54 54 54 55 45 45 45 56 53 51 47 44 43 41 40 37 35 33 31 31
42 42 41 39 36 37 39 43 44 49 52 52 51 51 51 51 52 52 52 53 54 54 55 55 56 56 55 44 44 42 49 46 45 43 42 39 37 36 33 30 26 25 24
43 43 42 42 42 37 37 41 42 45 49 51 51 51 52 52 52 53 54 55 55 56 54 53 52 51 46 41 40 42 41 39 37 37 37 35 33 33 32 26 23 23 24
43 42 43 43 41 37 37 39 42 44 46 49 50 51 52 53 53 54 56 52 49 42 40 38 39 39 39 38 39 38 35 33 31 31 32 33 31 30 29 26 25 25 24
42 43 45 46 44 42 43 41 43 44 45 48 50 52 53 54 55 50 46 41 38 36 34 33 34 35 36 36 36 35 33 31 30 28 28 30 31 30 28 25 26 26 22
41 43 45 46 48 49 49 46 46 52 53 52 51 49 48 45 44 42 40 39 36 34 32 31 30 30 32 33 33 32 32 31 27 26 28 30 30 28 27 25 24 22 23
40 41 43 44 45 46 49 49 48 48 47 45 43 42 40 39 39 40 38 35 34 33 30 28 27 26 27 29 30 30 29 28 27 27 28 30 28 25 24 24 22 21 20
37 37 39 39 38 39 40 44 44 43 41 39 38 37 37 37 37 36 35 34 32 31 29 28 26 25 25 26 27 27 26 26 26 28 27 25 24 24 22 20 20 18 17
32 32 32 33 34 36 36 37 38 38 36 35 34 34 32 31 30 30 31 31 32 32 29 28 26 25 24 25 25 25 24 25 25 26 26 25 22 20 18 17 16 17 16
32 30 30 30 29 29 32 35 37 37 34 32 32 31 30 29 28 26 27 30 30 29 28 28 26 27 27 28 28 28 27 26 26 26 24 23 23 21 21 22 21 19 16

GFSMW_sfc_dewp_057.txt.gz
Dewpoint
46 47 52 52 54 56 59 59 58 59 59 58 57 57 57 58 58 59 55 56 53 53 55 53 57 56 52 51 53 49 48 46 47 42 42 44 46 47 45 46 46 48 50
45 48 51 52 54 55 58 58 57 58 58 58 58 57 57 57 57 57 59 56 56 52 53 54 53 55 52 55 55 54 49 45 46 41 41 41 43 45 47 47 47 52 47
44 48 50 53 54 55 57 57 57 57 57 58 59 58 57 56 55 55 55 56 57 53 53 55 55 55 55 55 57 56 54 49 49 51 46 44 42 45 48 51 49 52 50
44 46 49 52 54 54 56 57 57 57 57 58 57 57 55 53 53 53 52 52 57 56 53 54 56 57 55 56 58 56 56 55 51 52 50 55 53 49 48 49 50 50 49
43 45 48 51 53 54 56 57 57 57 57 57 57 57 55 55 53 53 53 54 57 58 56 55 57 57 56 57 58 59 59 57 55 54 53 53 52 53 50 50 49 50 48
41 44 48 50 52 53 55 56 57 57 57 57 57 57 55 54 53 53 53 54 55 57 57 55 57 59 60 60 59 60 60 59 58 59 55 55 52 51 53 52 51 53 51
38 44 46 48 51 53 54 55 55 56 57 57 56 57 56 55 55 54 53 52 55 56 57 58 57 58 60 60 59 60 61 61 60 59 59 57 55 54 52 53 50 51 53
39 43 46 49 50 53 53 53 54 54 57 57 56 57 56 55 55 55 54 54 53 55 57 58 58 59 59 60 59 59 59 59 59 60 58 58 55 55 54 54 54 52 52
37 41 44 48 50 52 54 54 52 52 54 57 57 56 56 55 55 56 56 55 55 54 57 58 59 59 59 59 59 59 59 59 59 60 59 58 56 55 56 57 56 54 50
31 37 42 46 50 52 53 55 52 51 52 55 57 57 57 56 57 56 57 57 56 55 56 57 57 57 57 58 58 57 57 57 57 57 58 57 57 57 58 57 57 56 53
32 34 37 42 48 51 52 54 53 51 51 54 56 57 58 58 58 57 58 57 57 56 54 54 55 55 55 56 56 56 56 56 56 57 57 57 57 57 59 58 56 55 53
30 32 37 43 46 50 51 53 54 52 51 52 55 58 59 59 58 59 59 59 58 58 56 54 54 54 54 55 55 55 54 55 55 55 56 56 56 58 58 57 55 54 53
29 30 34 42 46 48 50 52 54 53 52 52 54 57 58 58 58 59 59 59 59 58 57 55 55 54 55 55 55 55 55 55 55 55 55 56 57 57 57 55 53 53 51
29 29 30 33 42 47 49 50 52 55 53 52 53 54 57 57 58 58 59 59 58 58 57 57 56 56 55 54 54 54 55 55 55 57 55 55 57 56 55 54 53 51 48
32 34 34 33 34 40 47 49 51 53 54 53 52 54 56 57 57 57 58 58 58 57 56 57 57 57 55 54 55 54 54 54 54 55 56 56 55 50 53 53 52 48 45
35 38 39 38 36 36 36 46 49 52 53 54 54 54 55 55 56 56 57 57 57 57 57 56 56 56 54 47 44 50 55 54 53 54 55 56 50 48 44 43 43 45 44
38 40 42 42 42 41 41 39 44 50 51 53 54 53 55 55 56 56 55 56 56 57 56 56 56 56 56 44 44 44 54 56 57 56 56 51 46 45 43 38 35 34 35
41 41 42 43 43 43 42 43 38 43 48 50 52 53 54 54 55 55 55 55 56 56 56 56 56 56 55 43 44 44 55 55 53 53 50 45 41 40 39 36 33 31 31
41 41 42 44 45 45 45 42 38 38 40 47 50 51 53 53 53 54 55 56 56 56 56 56 56 55 54 43 43 44 44 40 39 40 40 39 36 36 36 32 30 30 30
40 40 42 44 45 47 47 47 40 37 39 43 48 51 51 52 52 54 55 56 56 54 46 41 41 39 40 41 42 42 38 34 33 33 34 34 33 32 31 29 28 26 26
39 41 42 43 44 45 46 47 48 45 40 41 44 50 51 52 53 54 55 51 45 39 37 34 35 35 36 37 38 37 34 32 31 30 30 31 32 32 32 32 30 29 29
38 38 39 41 41 39 40 43 47 50 53 52 51 51 51 50 49 46 43 41 38 35 33 32 32 32 33 33 34 33 32 32 29 29 29 30 30 30 30 29 30 28 27
37 36 37 37 35 33 36 38 42 46 48 48 45 43 41 42 41 40 38 36 35 34 32 30 28 28 29 30 31 31 30 30 29 29 29 29 29 28 27 26 23 24 24
35 34 34 33 31 31 32 34 38 40 39 38 38 37 36 35 35 35 36 35 34 33 30 28 26 26 26 27 28 28 29 29 28 27 27 27 27 25 24 23 25 24 20
32 33 31 30 29 29 30 31 35 36 34 33 32 31 30 30 29 29 31 31 32 31 28 27 26 25 24 26 28 27 26 26 26 26 27 26 26 25 23 21 20 21 20
29 28 28 28 27 28 29 30 32 33 32 30 30 29 28 28 27 26 26 30 29 30 29 28 27 28 29 29 29 29 29 29 29 28 26 26 26 25 24 24 22 20 19

GFSMW_sfc_dewp_060.txt.gz
Dewpoint
45 48 50 52 58 58 58 58 58 59 59 58 58 58 57 58 58 59 57 57 55 54 55 54 54 54 52 51 53 53 52 51 51 48 49 48 48 50 49 50 50 51 53
44 48 51 52 55 58 58 58 58 58 58 58 57 57 57 58 58 58 55 54 54 53 54 54 54 54 55 54 53 51 51 50 51 47 45 44 45 47 49 49 48 49 50
43 47 51 52 54 56 57 58 57 57 57 58 57 57 57 57 56 56 55 53 54 52 52 55 55 55 56 55 54 54 53 49 50 48 46 43 43 44 47 48 49 48 51
43 47 50 53 53 55 57 57 57 57 57 57 57 56 55 54 52 55 56 54 57 54 52 53 55 55 55 56 57 56 55 55 49 49 48 51 53 51 48 48 49 51 50
41 46 49 52 53 55 57 57 57 57 57 57 57 56 55 53 52 54 54 54 56 58 54 55 56 55 54 54 57 57 56 56 56 52 53 52 52 53 52 49 49 49 49
38 44 50 51 53 54 57 57 57 56 57 57 57 56 55 54 51 52 51 52 53 57 58 54 55 57 57 56 57 58 57 57 57 56 55 54 52 51 52 51 50 50 50
40 43 48 49 52 53 56 56 56 56 57 56 56 56 56 55 53 52 51 50 51 53 57 56 56 57 57 58 59 58 58 59 58 56 56 57 55 54 53 53 51 50 52
41 41 46 50 51 53 56 55 55 55 56 57 56 56 56 55 54 53 52 51 50 53 55 56 55 56 57 57 59 59 58 57 58 57 55 57 56 55 54 53 52 49 51
37 41 45 50 51 53 54 56 55 55 56 55 57 56 56 55 55 54 53 52 52 53 56 57 57 56 56 57 58 58 57 57 57 56 57 56 55 57 55 55 54 52 49
35 40 43 49 51 53 54 56 54 53 56 56 56 56 56 56 56 55 55 54 53 53 53 56 57 56 56 57 58 58 57 57 57 57 56 56 56 56 55 55 55 55 53
35 36 41 45 50 52 53 55 54 53 53 56 57 56 55 55 57 55 55 55 55 54 54 54 54 55 57 57 57 56 56 56 56 55 55 56 56 56 56 56 56 55 55
34 36 38 44 47 51 52 54 54 53 53 55 57 57 56 56 56 56 56 56 55 55 54 53 53 54 54 55 55 55 54 55 54 55 54 54 54 55 55 56 56 55 54
32 33 34 43 45 49 51 53 55 54 53 53 55 57 57 57 57 56 56 56 55 56 55 54 52 52 53 53 54 54 54 53 53 53 53 53 53 54 55 55 56 56 55
33 37 39 41 41 48 51 52 54 55 55 53 53 55 57 57 57 57 57 57 57 56 56 55 54 53 52 52 52 52 53 53 53 53 53 53 53 53 54 55 56 55 53
34 39 41 42 43 43 44 49 52 55 55 54 52 52 55 57 57 57 57 57 57 57 57 56 55 55 54 52 52 52 53 53 53 53 53 54 53 49 51 55 55 54 52
38 39 41 42 43 43 43 44 46 52 55 55 54 53 53 55 56 57 57 58 57 57 57 57 56 56 54 48 45 50 54 53 53 52 53 53 49 48 45 46 48 52 52
40 41 41 43 44 45 46 45 46 45 50 54 54 54 54 54 55 56 56 56 57 57 57 56 56 56 56 46 44 43 53 53 53 53 53 53 51 48 46 37 36 35 35
39 40 41 42 44 46 47 48 48 48 44 46 52 54 55 54 54 55 55 55 56 56 56 56 56 56 55 47 44 43 51 53 53 53 53 54 47 44 40 36 34 33 33
39 39 41 42 44 44 44 45 46 47 48 47 41 50 53 54 54 54 55 55 56 56 56 56 55 55 54 41 41 42 48 42 37 38 38 39 38 38 39 35 32 30 30
38 38 39 40 42 41 41 42 44 45 48 51 53 51 48 52 53 54 55 55 55 55 53 42 41 39 41 39 40 44 40 34 33 33 33 34 34 34 34 31 29 26 27
38 38 38 38 38 36 36 38 40 41 41 46 50 49 50 52 53 54 54 55 48 40 36 34 34 34 36 37 39 38 35 33 31 30 31 32 33 33 33 31 29 28 29
36 36 35 35 35 33 33 34 35 37 39 43 46 44 44 46 46 46 43 42 39 36 34 32 31 32 33 34 34 34 33 32 30 29 30 31 31 31 30 29 30 30 29
33 33 33 33 32 31 31 31 33 37 37 38 38 38 38 38 39 40 39 37 35 34 32 30 28 28 30 31 32 32 32 30 29 29 29 29 28 28 28 29 29 28 27
29 30 29 28 28 28 29 31 32 35 33 32 32 31 30 31 32 35 36 35 33 31 30 29 27 26 27 28 29 28 27 27 26 26 25 25 25 26 26 26 24 24 24
27 27 26 26 26 27 27 29 31 32 30 30 30 29 28 28 28 28 28 28 30 30 28 27 27 25 25 27 28 27 26 26 26 26 27 26 26 24 24 24 24 25 23
26 25 24 24 25 26 27 29 30 31 29 28 28 28 27 27 26 26 26 30 30 30 30 29 28 28 30 30 30 30 30 30 30 27 26 25 24 23 23 22 21 21 17

GFSMW_sfc_dewp_063.txt.gz
Dewpoint
46 47 52 57 57 57 58 58 59 59 59 59 58 59 58 58 58 58 57 58 57 56 55 56 56 55 57 53 50 52 50 50 50 48 49 48 50 50 50 52 53 53 53
46 47 55 56 57 56 57 58 57 58 58 58 58 58 58 58 58 58 58 57 56 54 54 54 55 54 55 54 52 50 50 50 50 47 46 43 44 46 48 49 49 52 53
46 47 51 56 57 56 57 57 57 57 57 58 58 58 58 57 57 57 57 55 54 53 53 53 53 53 53 53 51 50 48 48 49 47 45 43 42 43 45 47 48 48 49
46 48 49 53 56 56 57 57 57 57 57 57 57 56 55 54 54 55 54 53 54 53 52 53 53 53 55 54 52 50 52 50 47 48 48 48 50 47 46 47 48 48 48
46 49 50 50 55 57 57 57 57 57 57 56 56 55 54 53 54 55 55 54 53 53 52 54 54 53 54 55 55 54 52 54 53 48 47 48 51 52 50 47 48 48 50
46 49 51 51 53 56 56 56 56 56 57 56 56 55 54 53 52 53 54 54 54 54 54 53 55 54 53 54 57 56 54 54 55 54 53 51 49 50 50 49 48 48 48
46 48 51 52 51 55 56 55 56 56 56 56 55 55 54 53 50 53 53 53 53 55 56 54 54 55 55 53 55 57 57 55 56 56 55 55 55 54 52 52 51 50 51
46 48 50 52 52 55 55 55 55 55 56 56 56 55 55 54 51 51 53 53 52 53 55 56 54 55 56 57 57 57 57 57 57 56 56 55 56 55 53 52 51 48 49
43 48 49 51 52 53 55 55 55 55 55 56 56 56 55 54 53 51 51 52 50 51 54 56 55 55 55 57 57 57 56 57 57 56 56 55 54 55 54 54 53 51 47
37 47 49 50 52 54 55 55 55 54 55 56 56 56 56 56 55 54 52 51 50 50 50 55 56 55 55 56 57 57 57 57 56 56 56 56 55 55 57 55 55 54 52
34 38 47 50 52 53 55 54 54 54 54 54 55 56 56 56 55 55 53 53 52 50 50 53 55 56 55 54 56 56 56 56 55 55 55 55 55 55 55 56 55 54 53
38 40 41 44 50 52 53 54 53 54 55 55 55 55 56 56 56 55 55 55 53 52 51 51 53 55 55 55 54 54 55 56 55 55 55 55 55 55 55 55 55 55 54
39 40 41 42 45 50 53 54 54 53 53 56 55 55 55 54 55 55 55 54 55 54 53 52 51 51 52 53 55 55 55 55 55 55 55 54 54 54 55 55 55 55 55
39 40 41 42 44 46 48 52 55 55 54 55 56 55 55 54 54 55 55 55 55 55 54 54 53 53 52 52 52 53 55 55 55 55 54 54 54 54 54 53 53 54 54
40 40 41 42 43 44 46 47 48 52 56 55 54 55 56 56 55 55 55 55 55 55 55 55 54 54 53 52 53 53 53 53 53 53 53 53 52 49 50 53 53 53 53
39 40 40 42 44 46 46 47 47 48 50 55 54 53 56 56 56 56 56 56 56 55 55 54 55 55 53 48 44 49 52 52 52 52 53 53 48 47 44 44 46 51 53
39 40 41 43 44 43 42 42 44 46 47 49 52 55 54 55 56 56 56 56 56 57 56 56 56 55 55 47 45 43 51 52 52 52 52 53 53 48 51 39 38 38 38
38 39 40 42 41 40 39 41 42 44 45 46 46 49 52 53 53 55 56 56 57 57 56 56 56 56 56 48 46 44 50 53 53 54 54 53 52 50 44 38 34 32 32
37 37 39 40 38 35 35 38 39 40 40 41 42 44 49 48 49 53 54 55 55 56 56 57 57 57 56 45 44 44 51 52 40 38 39 42 42 39 40 35 31 29 29
36 35 36 36 34 33 33 35 35 36 36 38 39 43 45 44 45 47 50 55 55 55 55 47 41 39 44 38 41 44 46 36 33 33 34 35 36 35 35 31 29 27 27
33 34 34 32 31 31 32 32 33 33 34 36 39 39 39 39 41 43 44 52 51 41 38 36 36 36 37 38 40 41 41 36 32 32 31 33 33 33 33 32 30 28 29
30 29 30 29 28 28 28 30 30 31 35 35 34 33 33 33 35 39 41 41 40 38 36 34 32 32 33 34 35 35 34 33 31 30 31 32 32 32 31 30 30 30 29
27 27 27 26 27 27 27 28 30 32 33 31 30 29 29 29 30 31 34 36 37 35 34 32 30 29 30 31 32 32 32 31 29 29 31 30 29 29 28 29 29 28 28
25 25 25 25 25 26 27 28 30 31 30 28 28 28 27 26 27 28 29 30 32 32 31 30 28 28 27 27 27 27 27 26 26 26 26 26 25 25 25 25 25 25 24
23 23 24 24 25 26 26 28 30 30 28 27 26 26 26 26 25 26 28 27 29 30 28 29 28 27 25 27 28 27 26 26 26 26 26 24 23 23 23 22 21 21 21
23 23 24 25 26 26 27 28 29 29 28 26 25 26 25 26 25 23 24 29 30 30 30 30 29 30 30 31 31 31 30 30 29 25 23 21 22 21 20 18 17 19 19

GFSMW_sfc_dewp_066.txt.gz
Dewpoint
46 52 58 58 57 57 57 58 59 60 60 60 59 59 59 59 59 59 58 59 58 58 60 57 57 56 55 53 52 51 50 51 52 50 49 49 52 53 53 53 53 53 54
45 53 57 57 57 57 56 57 59 59 59 59 59 59 59 59 59 58 58 58 58 57 58 58 56 57 57 55 52 51 50 50 51 49 48 46 45 48 51 53 53 52 53
45 52 56 56 56 57 56 56 58 58 58 58 58 57 58 58 57 58 58 59 58 55 54 57 55 56 56 54 51 51 49 49 50 49 48 43 43 44 45 48 51 53 53
45 50 55 56 55 56 57 56 57 57 57 58 57 57 55 55 56 57 57 58 57 55 54 55 54 55 55 55 53 51 49 49 48 48 47 46 47 44 42 47 47 48 51
45 49 54 55 56 56 56 56 57 57 57 57 57 56 56 56 56 56 56 57 57 55 53 53 55 53 55 56 55 52 50 49 51 48 47 47 50 50 48 46 47 48 48
45 47 52 55 56 56 57 56 56 56 56 57 57 55 55 54 54 55 54 55 54 53 54 52 53 54 54 55 55 53 50 50 50 52 50 48 47 49 49 48 47 47 47
46 48 49 54 55 55 56 55 55 55 56 56 56 55 54 53 53 54 54 53 53 52 53 53 54 54 54 54 56 55 52 51 53 53 51 52 51 51 51 50 49 48 49
47 49 49 52 55 55 55 55 55 55 56 56 55 55 54 53 52 53 53 53 53 52 53 53 53 54 53 53 54 56 56 54 55 55 55 54 55 54 53 52 51 47 48
47 49 50 50 55 55 55 55 55 55 56 56 56 55 54 54 52 52 53 53 53 54 55 54 53 54 55 55 55 53 55 56 55 55 55 55 55 56 56 54 52 50 46
47 49 51 51 52 55 55 55 55 55 55 56 56 55 55 54 53 52 51 53 53 52 53 56 55 55 54 55 56 56 56 55 55 56 56 56 55 55 55 54 53 53 50
43 48 50 52 52 55 55 55 54 54 55 56 56 56 56 55 55 53 51 51 52 51 51 54 55 55 54 54 54 55 56 56 55 55 56 55 55 55 55 55 55 54 53
42 43 48 51 52 54 55 54 54 54 54 55 55 55 56 56 56 55 54 53 51 51 50 50 54 55 55 54 53 52 52 55 55 55 55 54 55 55 55 55 54 54 53
42 43 44 45 47 50 55 55 55 55 55 54 54 55 55 55 55 55 55 55 53 52 51 50 49 51 54 55 54 53 53 53 55 55 55 54 54 54 54 54 54 54 54
41 42 44 46 47 48 48 49 52 54 55 55 55 54 54 55 55 55 55 55 55 54 53 52 51 50 49 51 53 54 54 53 53 54 55 55 54 54 54 53 54 54 53
40 42 44 44 43 42 43 44 45 47 49 55 55 55 55 55 55 55 55 55 55 55 54 54 54 53 52 50 50 51 51 52 53 53 54 55 53 50 51 53 53 54 53
40 42 41 40 39 39 40 41 43 44 47 47 47 54 56 57 56 55 55 55 55 55 54 54 54 54 53 48 45 48 51 51 51 52 54 55 49 49 45 45 46 50 53
40 40 39 37 35 35 37 39 40 42 42 42 43 45 46 50 55 56 56 55 54 55 55 55 55 53 54 47 45 43 51 52 53 52 52 52 52 48 52 44 41 37 36
38 38 36 34 33 33 34 35 36 37 37 38 39 41 43 46 46 47 50 56 56 55 55 55 55 55 54 47 44 43 50 52 52 53 53 53 52 52 51 44 35 33 33
36 35 33 32 31 31 32 33 33 33 34 35 36 37 40 40 41 43 44 46 47 55 56 56 56 55 55 48 46 45 53 53 52 52 48 49 52 48 44 39 32 30 30
33 32 31 29 29 29 30 31 31 31 32 33 34 34 34 35 36 39 40 42 44 45 52 56 56 52 55 46 43 46 54 53 51 37 36 37 42 39 39 39 32 28 28
30 30 29 27 27 27 29 29 30 31 32 32 31 30 30 30 33 33 37 40 41 41 41 40 36 36 36 37 40 43 50 48 35 33 32 33 34 35 35 33 32 29 29
27 27 26 26 26 27 28 28 29 30 30 29 29 28 28 28 29 31 32 35 37 36 34 32 31 31 31 34 35 35 35 36 34 32 31 32 33 32 32 31 31 30 29
24 24 24 25 26 26 27 28 29 29 28 27 26 27 26 26 27 28 29 30 32 32 31 30 28 28 28 29 31 32 32 31 31 31 31 30 29 28 28 29 28 27 26
22 23 24 24 24 25 26 28 28 27 26 25 24 25 25 24 26 27 28 28 28 28 28 27 26 26 26 27 27 27 27 27 26 25 25 25 25 24 23 23 23 22 22
22 23 23 23 24 24 25 26 27 27 25 24 24 24 24 24 23 25 27 28 29 29 27 27 27 26 25 27 28 27 26 26 26 25 24 22 21 19 19 20 20 20 20
22 21 22 22 23 24 24 24 25 25 24 22 22 22 21 21 21 22 21 25 28 30 30 30 29 28 30 29 29 28 28 27 26 22 20 19 18 17 17 17 16 17 16

GFSMW_sfc_dewp_069.txt.gz
Dewpoint
45 53 57 57 57 57 57 59 58 60 60 60 59 59 58 58 59 58 59 60 61 59 56 55 54 52 48 49 52 51 50 51 52 51 50 51 53 53 53 53 53 54 54
46 55 57 57 57 57 57 58 57 59 60 60 60 60 60 59 59 58 58 59 59 60 57 55 55 52 51 52 52 51 50 50 51 50 49 48 48 51 52 53 53 53 53
45 55 56 56 56 56 56 57 57 57 58 60 58 58 58 58 58 58 58 59 59 59 60 56 56 55 53 53 52 51 50 49 50 50 49 45 47 47 48 51 53 52 53
46 53 55 55 55 55 56 56 57 57 58 58 58 57 57 56 57 58 58 59 58 58 58 59 57 57 56 55 53 51 50 50 49 48 48 47 48 47 45 47 50 52 52
45 51 55 55 55 56 56 56 56 57 57 57 57 57 55 55 57 57 57 58 58 57 56 57 57 56 57 56 55 52 49 50 51 48 48 48 49 49 48 45 46 48 50
44 48 54 55 55 55 55 55 55 55 56 56 56 55 55 55 56 56 56 57 58 57 56 57 56 56 56 56 56 54 52 51 51 51 50 49 49 49 49 47 47 46 47
44 49 54 55 54 55 55 55 55 55 55 56 56 55 54 55 55 55 56 56 56 56 55 55 56 55 56 56 57 56 55 52 51 51 50 51 50 50 50 50 48 48 49
44 49 53 54 54 54 55 54 54 54 55 56 56 56 55 55 54 55 55 55 55 55 54 55 56 56 56 56 56 56 55 55 53 52 52 50 50 51 50 49 48 46 47
44 47 53 54 54 55 54 54 54 54 54 55 55 56 55 53 53 54 54 54 55 54 53 53 55 56 56 55 55 56 55 55 52 52 54 53 52 53 53 52 51 48 46
47 48 51 54 55 55 54 55 55 54 54 55 55 55 55 54 53 52 53 53 53 53 54 53 53 54 55 55 54 53 53 55 53 53 53 54 53 55 55 54 53 53 51
48 50 51 53 54 55 54 55 55 55 54 54 55 55 55 54 53 52 52 53 53 52 53 55 54 53 54 54 53 52 52 52 53 54 54 54 54 54 55 55 54 54 53
48 50 51 53 55 55 55 55 54 54 55 56 55 55 55 55 54 54 53 52 52 53 52 52 55 55 53 53 53 54 54 55 54 53 53 54 54 55 55 55 54 54 54
46 47 47 47 49 54 55 55 55 55 55 55 55 55 55 55 55 55 55 54 52 52 52 51 51 53 54 54 53 52 52 52 54 54 54 54 54 54 54 55 54 54 54
44 43 43 43 45 46 47 48 48 49 49 54 55 55 55 55 55 55 55 55 54 53 52 51 51 51 51 53 54 53 53 52 51 51 52 53 54 53 53 53 54 54 53
40 38 38 39 40 40 42 44 44 45 46 50 50 53 55 56 56 56 55 55 55 54 53 53 52 51 50 49 50 51 53 52 52 52 52 52 52 49 51 52 53 53 52
38 36 33 33 34 35 37 38 39 40 40 41 42 44 46 51 54 56 56 56 56 55 55 54 54 53 52 47 44 46 49 50 51 51 52 52 48 48 45 45 46 49 52
37 34 33 33 32 33 35 35 35 36 37 37 39 40 42 42 44 45 47 53 55 55 55 55 55 54 54 46 45 43 50 50 50 50 51 51 52 49 53 47 43 44 43
34 32 33 31 31 31 33 33 33 34 35 35 35 36 36 37 38 40 42 43 45 47 51 55 55 55 55 47 46 46 52 53 52 51 51 51 51 51 52 52 50 48 47
32 31 29 29 28 29 31 31 31 32 32 32 32 31 32 32 34 36 36 38 42 43 44 46 47 52 55 48 44 45 52 53 53 53 53 53 52 49 46 49 49 38 33
30 28 28 27 28 29 30 30 30 30 30 30 29 28 28 30 31 32 33 35 38 40 41 40 36 35 34 36 36 39 51 52 52 52 51 36 35 37 41 49 49 38 31
28 28 26 26 27 28 29 29 29 28 28 28 28 27 27 28 29 30 31 33 35 36 35 32 31 30 31 32 35 37 41 47 47 37 32 32 34 34 35 35 36 33 29
25 25 25 26 26 27 28 27 27 27 27 27 26 25 26 26 27 28 30 31 31 31 30 29 28 28 28 30 31 33 34 35 33 32 31 31 32 32 32 31 31 30 27
24 24 25 25 25 26 27 26 25 26 25 25 24 24 24 24 25 26 26 27 28 28 27 27 26 26 27 28 29 29 29 30 28 28 28 28 27 27 27 28 27 26 24
23 24 24 24 24 25 25 26 26 25 24 23 23 23 23 22 22 24 24 24 26 26 26 26 25 26 26 26 26 26 26 26 25 24 23 24 23 22 22 21 22 21 21
22 22 22 22 23 24 24 25 24 24 22 22 22 22 22 22 22 24 24 24 26 25 24 24 25 24 24 26 28 27 25 24 24 22 21 20 19 18 18 18 18 18 18
20 20 20 21 22 22 23 24 25 23 22 21 21 21 21 21 20 20 21 23 24 25 26 25 24 25 26 26 26 26 25 24 23 19 17 16 16 15 15 14 14 15 14

GFSMW_sfc_dewp_072.txt.gz
Dewpoint
45 53 56 57 56 55 57 58 59 61 61 60 59 59 58 58 59 60 61 61 61 59 57 56 55 53 52 52 51 50 50 52 53 52 51 51 53 53 54 54 54 54 55
47 54 56 57 56 57 57 57 57 60 61 60 59 59 59 59 59 59 60 61 60 58 57 56 53 52 50 51 51 50 50 52 53 51 50 48 50 52 53 53 53 54 54
45 53 55 56 57 56 57 56 57 59 60 60 59 59 58 59 58 58 59 59 61 59 58 57 53 52 49 50 52 51 50 50 51 52 50 47 48 49 51 52 53 53 53
43 53 54 55 56 56 57 56 56 57 59 59 58 57 57 56 58 58 59 59 60 60 58 57 56 52 51 52 51 52 51 51 50 49 49 49 49 49 47 49 52 53 52
45 53 54 55 55 56 56 56 56 57 58 59 58 58 57 57 57 58 58 59 59 59 59 57 57 55 55 55 54 53 51 51 51 50 48 48 49 49 48 47 47 49 52
45 51 54 55 55 55 55 56 55 54 56 57 58 57 56 55 56 56 57 58 57 58 58 59 57 57 57 56 55 54 52 52 52 51 50 50 48 48 49 47 48 47 48
42 51 54 54 54 54 55 55 54 54 54 56 56 56 56 55 55 56 56 56 57 56 56 58 57 58 56 57 56 54 53 52 52 52 50 52 51 52 50 50 48 48 49
41 49 53 54 54 54 54 55 54 54 54 54 54 55 54 54 55 56 56 57 57 57 56 57 57 57 57 57 57 56 55 55 54 53 53 51 51 51 50 49 48 47 48
36 47 53 54 54 54 54 54 54 54 54 54 54 54 54 54 54 56 56 56 57 56 56 56 57 56 57 57 57 57 56 56 56 55 54 53 51 52 51 51 51 48 45
47 51 53 54 54 54 54 54 54 53 53 54 53 54 54 53 53 54 54 55 56 55 54 54 55 56 56 56 56 56 56 56 56 55 54 54 53 52 53 50 51 51 47
50 52 53 53 54 54 54 54 54 53 53 54 54 53 53 53 52 52 52 54 54 54 53 53 54 54 55 56 56 55 54 55 55 55 54 53 53 52 53 54 53 52 52
47 52 53 54 53 54 55 54 54 54 54 55 54 54 54 54 52 52 52 52 53 53 53 54 53 53 54 54 55 54 53 53 53 54 53 52 52 52 52 53 53 53 54
41 43 45 47 50 53 54 54 54 55 56 55 55 55 55 54 53 53 53 52 52 52 52 52 54 54 54 53 53 54 53 52 52 51 51 52 53 53 53 54 54 54 54
38 39 40 42 44 45 47 47 47 48 48 54 55 55 55 55 55 55 55 54 53 52 52 52 52 52 53 54 53 53 53 53 53 54 53 53 52 52 51 52 53 53 54
33 35 37 38 40 40 41 40 40 41 43 46 46 47 51 56 56 56 56 56 55 54 53 52 52 52 52 51 52 53 53 53 52 52 51 52 52 49 51 52 52 53 53
33 32 32 33 34 35 34 35 37 38 39 39 40 41 43 45 45 47 48 54 56 56 55 54 53 53 51 46 44 47 51 51 52 52 52 52 48 47 44 44 45 48 50
33 32 31 31 31 32 33 33 34 35 35 35 35 35 37 37 38 41 42 43 45 47 48 52 55 55 54 47 45 42 50 50 50 50 50 50 51 48 51 47 42 43 42
33 31 30 29 30 31 31 32 33 32 32 31 31 31 32 33 35 36 36 38 41 43 44 45 45 44 41 35 35 37 48 52 52 52 52 52 52 51 51 51 51 49 48
32 29 29 29 29 29 30 31 30 29 29 28 28 28 30 31 32 32 34 35 37 40 41 37 36 33 34 33 35 36 41 50 52 53 53 53 53 49 46 49 49 49 38
29 28 28 28 28 28 29 29 28 27 27 27 26 27 29 29 29 30 32 34 36 36 35 31 30 30 30 32 34 35 38 41 46 49 34 33 34 35 38 43 49 49 36
27 26 26 27 27 28 28 26 27 26 26 25 25 25 26 27 28 29 30 31 32 31 30 29 29 28 29 29 31 32 35 36 32 30 30 31 32 34 37 33 34 33 28
25 25 25 26 27 27 26 24 25 25 25 25 24 23 24 25 25 26 28 28 29 28 28 27 27 28 27 28 29 28 29 28 27 26 26 27 29 29 29 29 29 28 26
24 25 25 25 25 25 26 25 25 25 24 23 23 22 22 22 24 24 25 25 25 25 25 25 25 26 27 26 27 27 26 25 24 25 24 24 23 23 23 25 24 23 22
23 23 23 23 24 25 25 25 24 23 23 22 22 23 22 22 22 23 24 24 23 23 23 22 22 22 23 24 23 23 22 22 22 22 21 21 21 19 19 19 20 19 19
22 22 22 22 22 23 23 25 23 23 21 21 21 21 21 22 22 23 23 23 25 24 22 23 23 22 22 25 25 23 21 20 20 19 18 17 16 15 16 15 15 16 16
19 19 20 19 20 20 21 21 23 23 22 21 20 20 20 20 20 20 20 23 24 24 25 25 23 24 25 24 24 24 23 21 19 15 14 13 13 13 13 12 12 12 12

GFSMW_sfc_dewp_075.txt.gz
Dewpoint
33 43 54 57 58 60 60 59 60 60 61 60 60 60 59 61 61 62 62 61 61 63 61 59 58 59 57 55 55 54 55 54 55 53 53 54 55 55 55 55 55 55 56
29 45 55 56 57 58 60 59 60 60 61 59 59 60 60 60 60 61 62 63 61 61 60 59 58 57 57 56 55 55 54 54 55 52 52 50 52 53 54 54 55 55 54
29 41 54 56 57 58 59 59 59 60 60 61 60 60 60 59 59 59 60 60 60 59 58 58 57 56 56 55 54 54 54 52 54 55 52 50 49 51 53 54 54 55 55
30 35 52 55 56 57 59 58 58 59 60 60 59 59 57 57 58 59 59 60 60 59 58 56 56 55 55 55 55 53 53 53 53 54 52 54 53 50 50 52 54 54 54
33 42 51 54 56 58 58 57 57 58 59 60 59 58 57 57 58 59 59 59 60 59 58 57 56 54 53 55 55 55 54 54 54 53 52 52 51 53 52 50 50 52 53
36 43 52 54 56 57 57 56 57 57 59 59 59 59 58 57 57 58 58 59 59 60 58 58 57 55 54 54 54 54 55 54 55 54 54 52 50 49 49 48 50 50 50
39 48 52 53 55 56 56 56 56 56 57 58 59 58 57 57 57 57 58 58 58 58 59 58 58 57 56 55 55 54 54 54 54 56 53 54 53 53 49 51 48 46 49
36 48 52 54 55 55 55 55 55 54 55 56 58 58 57 57 57 57 57 57 58 57 58 59 58 57 57 57 56 55 54 54 56 56 56 53 54 53 52 50 50 48 49
45 42 52 54 55 54 54 54 54 54 54 55 56 57 56 56 56 57 57 58 58 57 57 58 58 58 57 57 57 56 55 54 54 55 56 54 53 54 53 52 52 47 45
49 49 53 54 54 54 54 55 55 55 54 54 57 56 56 56 56 56 56 57 58 58 57 58 57 57 57 57 57 57 56 55 56 56 55 55 55 54 54 52 53 53 48
51 51 52 53 54 54 55 54 54 54 54 54 55 57 56 56 56 56 56 56 57 56 56 56 57 56 57 57 57 57 57 56 55 55 55 55 55 55 55 54 53 52 52
45 51 53 54 54 54 54 54 54 53 54 54 54 54 56 56 56 56 56 57 56 56 55 55 56 56 56 57 57 56 56 56 55 56 55 55 55 55 55 54 53 54 54
42 43 45 46 50 51 52 51 52 54 55 55 55 55 54 55 55 55 55 55 56 56 55 54 54 55 55 56 56 56 56 56 56 56 56 55 55 54 54 54 53 53 52
38 39 39 41 42 43 43 44 47 48 53 55 54 54 55 55 55 56 56 55 55 55 55 55 55 55 54 54 54 55 56 56 55 55 55 55 55 55 55 55 55 54 53
34 34 35 36 38 39 41 42 41 42 43 44 44 45 47 48 50 52 54 56 56 54 54 54 54 55 54 54 55 54 54 54 55 56 54 55 54 49 51 52 54 54 54
32 31 31 32 33 34 35 37 37 37 36 36 36 38 39 41 43 45 46 47 47 48 53 54 54 53 48 36 38 45 54 54 54 54 55 55 50 50 44 44 45 49 52
32 30 30 30 31 32 33 33 32 33 33 33 32 33 35 36 37 38 39 41 43 45 45 44 44 42 35 35 36 36 43 50 52 53 53 53 53 50 53 47 42 43 43
31 30 30 30 30 31 31 31 30 29 29 29 29 31 33 33 34 36 37 39 41 42 39 37 35 36 33 34 34 34 41 45 48 51 52 52 51 51 50 52 52 50 50
32 31 30 30 30 30 29 28 28 27 26 27 28 30 31 31 33 34 35 37 38 37 33 32 31 32 31 32 32 34 39 42 44 36 34 33 35 36 37 41 48 49 36
28 28 29 29 28 28 28 27 26 25 25 26 27 28 29 30 30 31 33 33 33 31 30 29 30 30 30 30 31 33 38 38 34 30 29 31 32 33 33 37 38 34 30
27 27 27 27 27 26 26 25 25 25 24 24 25 26 26 28 29 29 30 30 29 29 29 28 28 28 28 29 29 29 29 29 27 26 26 27 28 29 30 29 29 27 27
25 25 25 25 25 26 25 24 23 24 24 23 24 24 25 26 26 27 28 28 28 28 28 27 27 27 27 27 27 27 26 25 24 24 25 25 25 26 26 25 25 24 23
23 23 24 24 24 24 24 23 23 23 24 23 23 23 23 23 24 25 25 25 25 25 25 24 24 25 25 26 25 25 24 24 26 25 24 23 23 23 23 23 22 21 22
21 22 22 22 22 23 23 23 22 22 22 21 22 22 22 22 22 23 24 24 23 23 23 23 24 24 25 26 26 26 26 24 24 23 23 21 21 20 20 22 22 22 22
20 20 20 20 21 21 22 23 22 22 21 21 21 21 22 21 21 23 23 23 26 25 23 23 24 24 24 26 25 25 25 24 21 23 23 22 21 21 20 19 18 19 20
18 19 19 19 20 20 20 21 22 22 21 21 21 21 21 20 20 19 19 22 23 23 23 24 24 25 24 23 23 21 20 19 19 20 19 19 18 17 17 16 15 14 13

GFSMW_sfc_dewp_078.txt.gz
Dewpoint
26 28 38 51 55 59 60 61 62 62 62 62 61 61 62 62 62 62 62 62 62 63 63 62 60 61 58 58 58 57 57 55 55 52 53 54 54 55 53 54 52 52 53
25 27 38 52 56 58 60 60 61 61 61 60 59 60 61 62 62 62 62 62 63 63 62 61 60 59 58 58 59 58 55 55 55 52 52 51 53 54 55 54 53 54 52
26 27 38 51 55 57 60 59 60 61 61 60 59 61 61 61 61 61 61 62 63 61 61 61 60 59 59 58 58 58 57 54 55 54 50 49 47 51 53 55 54 54 54
27 28 33 48 53 56 60 59 60 59 60 59 59 59 58 57 59 59 60 61 61 60 60 60 60 59 60 58 58 56 57 55 54 54 51 51 48 48 51 53 54 54 54
27 31 34 42 51 56 59 60 60 59 59 58 59 57 58 58 58 59 60 60 60 59 59 59 59 59 59 60 59 58 57 56 54 54 54 54 53 52 47 47 52 54 53
36 34 36 45 50 56 59 59 59 58 59 58 59 59 58 58 58 59 59 59 59 59 59 58 58 58 57 58 59 58 57 56 55 55 55 52 51 50 48 47 49 51 53
41 37 43 47 52 56 58 58 58 57 58 58 57 58 58 58 57 58 57 59 59 59 58 58 57 56 56 57 57 58 57 56 55 56 54 55 53 51 49 48 45 47 49
45 38 46 49 52 56 56 57 57 56 57 57 56 59 58 58 57 58 58 59 59 59 60 59 57 57 55 55 56 56 56 57 57 57 56 55 55 53 52 50 49 44 46
49 42 46 51 53 55 55 57 56 56 56 57 57 59 59 59 58 59 58 58 58 58 59 59 59 58 57 55 55 55 55 55 56 56 56 55 54 55 54 53 50 49 48
50 46 49 52 54 55 55 57 56 55 56 56 57 55 57 58 57 57 57 57 58 58 58 59 58 58 58 58 56 55 55 54 54 55 55 55 55 55 54 52 54 53 51
47 50 51 52 53 54 55 56 55 56 55 55 56 55 55 56 57 56 56 56 58 58 57 58 58 58 58 57 57 56 55 54 54 55 54 54 55 55 55 56 55 54 54
44 46 52 53 54 54 55 55 55 55 55 55 55 55 56 56 57 56 56 57 57 57 58 58 58 57 57 57 57 57 57 55 53 54 55 54 55 55 55 55 55 54 54
40 41 43 44 45 49 53 54 55 54 55 54 55 55 55 55 55 55 56 57 56 56 56 56 56 57 57 57 58 57 57 57 57 56 54 54 53 53 54 54 54 54 53
37 37 37 39 41 43 44 46 48 53 54 54 52 52 54 55 55 55 55 55 55 56 55 55 55 55 56 56 57 57 57 57 57 57 57 57 56 56 56 56 56 55 55
33 34 35 36 37 38 40 41 41 44 45 43 43 44 45 47 48 50 50 54 55 55 55 55 55 56 49 39 42 54 56 56 56 57 56 56 54 50 52 56 57 56 55
32 32 32 33 34 35 36 36 37 38 38 37 38 39 41 41 42 43 45 46 47 48 47 45 43 41 36 35 36 39 50 53 54 54 55 55 50 50 45 45 45 50 54
31 30 31 32 32 32 32 32 33 33 34 35 35 36 38 37 39 40 41 43 44 42 40 40 39 35 33 34 34 34 39 45 49 51 49 51 53 48 51 48 43 43 42
33 31 31 31 30 29 30 29 28 29 30 31 32 33 35 36 38 39 40 41 39 37 35 35 35 33 31 32 33 34 40 44 38 34 34 36 38 36 36 40 45 50 37
32 32 31 31 30 28 28 27 27 27 27 28 29 30 33 33 35 36 37 37 36 34 33 32 32 32 30 31 32 37 43 37 33 31 30 31 31 32 33 39 41 37 30
31 29 28 28 28 29 27 26 26 26 26 28 27 29 30 31 33 33 34 33 32 31 31 30 32 31 31 29 30 34 34 31 29 28 28 28 28 29 30 33 36 29 27
30 30 28 27 26 27 27 26 25 24 26 26 27 28 29 30 31 31 31 31 31 31 31 30 30 29 28 28 28 29 30 28 26 26 26 28 27 27 28 28 27 26 25
28 25 25 25 25 25 25 24 25 25 25 25 25 26 27 27 28 29 29 30 29 29 29 29 28 28 28 27 27 27 27 28 28 28 27 27 26 26 26 27 25 24 24
23 23 23 24 24 23 23 23 24 24 25 24 24 25 25 25 25 26 27 27 28 28 28 28 28 28 28 28 26 25 25 25 27 26 25 24 24 25 25 24 25 27 30
22 22 22 22 22 23 23 23 23 23 23 23 23 23 23 23 23 24 25 26 27 27 26 27 27 27 27 27 28 28 28 27 27 27 27 26 25 24 25 25 26 25 25
24 21 21 21 22 22 23 23 23 23 22 23 23 23 23 23 22 24 24 23 26 26 26 26 25 26 25 25 24 24 27 27 26 27 28 27 26 25 24 23 22 22 22
21 21 22 22 22 22 22 23 24 23 23 23 24 24 24 23 22 21 20 22 23 23 23 23 25 25 23 22 21 21 20 20 22 26 25 23 23 21 19 19 18 17 16

GFSMW_sfc_dewp_081.txt.gz
Dewpoint
25 24 30 36 46 53 58 61 62 63 62 61 61 61 61 61 62 63 63 63 64 64 64 62 61 61 61 61 61 60 58 58 56 55 54 57 57 57 50 50 49 50 51
26 25 28 38 50 54 58 61 61 62 61 59 59 59 61 61 61 62 63 62 62 63 62 62 61 61 60 59 59 60 58 56 56 53 52 53 53 55 55 53 50 53 51
28 25 26 37 51 53 58 59 61 61 61 60 59 60 61 61 60 61 62 61 62 62 63 62 61 60 59 58 58 59 57 55 57 55 51 49 48 51 55 55 54 55 52
28 26 25 35 49 53 58 59 60 60 60 60 59 59 59 57 59 59 61 61 61 62 62 61 60 60 59 58 59 60 59 57 54 55 52 53 48 48 51 53 54 53 52
29 27 26 28 45 53 57 59 60 59 59 59 59 57 56 57 58 58 60 61 61 61 61 61 60 59 59 59 59 59 59 57 56 54 54 54 53 54 50 49 52 54 52
29 28 26 27 41 51 58 59 59 58 59 59 58 58 57 57 57 58 59 60 60 59 59 60 60 60 59 59 59 59 59 58 57 56 55 53 53 51 49 49 51 52 52
39 35 31 31 39 51 57 59 58 57 59 59 58 57 57 59 58 58 59 59 58 58 58 58 58 59 60 60 59 59 59 59 57 57 55 55 55 53 52 53 49 50 51
48 43 36 37 44 51 57 58 57 57 58 58 58 57 57 57 57 58 57 59 59 59 59 58 58 58 58 59 59 59 58 59 59 58 57 56 56 55 54 53 51 47 47
48 48 40 46 48 54 59 59 57 57 57 57 57 56 57 57 57 58 59 60 60 60 60 59 57 57 57 57 58 58 58 59 59 58 58 57 56 57 56 53 52 52 48
45 50 45 48 50 57 57 58 57 57 57 57 56 57 57 57 58 59 58 57 58 58 59 59 59 57 56 56 56 56 56 55 56 57 56 57 56 56 55 53 54 54 52
42 46 50 52 55 56 56 58 57 57 57 57 56 56 57 57 58 58 57 57 58 58 58 59 59 58 57 56 55 55 54 54 54 55 55 54 55 55 54 55 55 54 54
40 41 45 48 54 55 56 56 56 55 56 56 56 57 56 56 57 56 56 57 57 57 58 58 57 58 58 57 57 56 55 53 53 53 53 53 52 54 53 54 54 54 54
37 38 40 42 45 47 51 53 56 56 57 56 56 56 56 57 56 56 56 57 56 57 57 58 57 57 58 58 57 57 56 55 54 54 54 53 54 53 54 54 54 53 53
35 35 36 38 40 42 43 44 46 51 54 53 52 53 54 55 55 55 57 58 57 56 56 56 57 57 56 54 55 57 57 57 57 57 57 55 53 53 54 54 54 54 54
33 33 34 35 36 38 39 40 41 43 45 45 45 45 46 47 48 49 52 54 52 51 50 54 47 42 39 36 39 47 55 57 57 58 57 57 55 51 52 55 55 56 55
32 32 33 33 33 34 36 37 38 38 40 40 41 41 42 43 44 45 46 44 43 43 43 40 38 37 34 34 35 37 48 52 52 52 49 51 43 42 40 41 41 44 51
32 32 33 32 32 32 32 35 36 38 37 37 37 39 41 41 42 43 41 40 39 38 38 37 35 33 33 34 35 35 42 42 38 37 37 40 38 35 36 39 40 35 34
34 32 32 30 31 31 32 33 33 34 35 34 36 37 38 39 41 40 38 37 36 35 35 35 34 32 31 33 34 35 39 35 32 31 33 33 32 31 33 37 42 32 30
34 32 33 32 30 28 28 29 29 31 30 31 31 33 35 36 36 36 36 35 35 34 33 32 33 31 30 32 33 38 35 32 30 29 29 30 30 30 33 38 36 30 28
32 33 33 33 33 32 28 26 27 27 28 30 30 31 32 34 34 34 35 34 33 32 32 30 30 31 29 30 32 34 32 30 28 28 28 28 28 29 31 33 30 26 26
32 33 33 32 32 33 33 30 28 27 27 28 28 29 31 32 33 33 34 32 32 31 31 30 29 28 28 28 29 32 31 30 29 28 27 28 27 27 28 28 28 26 26
34 34 32 28 26 26 26 26 28 30 30 29 27 28 30 29 30 32 33 32 31 31 30 30 30 30 28 27 27 28 28 29 28 28 28 28 26 26 27 28 28 28 30
28 25 24 24 24 24 24 25 25 25 26 27 28 28 28 28 29 30 30 30 30 31 30 29 29 28 30 30 28 27 26 26 28 28 26 26 26 25 26 25 25 27 29
25 23 23 23 23 24 24 24 24 25 24 24 24 25 25 25 25 24 26 26 29 28 29 29 28 27 26 26 29 30 29 28 29 29 29 28 27 26 25 26 26 28 26
29 23 22 23 23 23 24 23 24 24 24 25 24 24 24 22 22 23 24 23 26 26 26 25 25 25 24 24 24 25 27 28 28 31 30 27 27 25 25 24 23 22 23
27 25 23 23 23 23 24 25 26 26 25 25 25 26 25 24 22 20 20 21 23 22 23 23 25 24 22 21 21 21 22 23 25 26 24 24 23 21 20 19 19 18 17

GFSMW_sfc_dewp_084.txt.gz
Dewpoint
29 28 31 29 38 51 58 64 64 64 64 63 61 62 61 62 63 63 63 64 64 64 64 63 62 62 61 61 61 61 60 60 57 55 55 55 55 53 52 54 54 53 54
29 31 33 38 49 55 58 63 63 63 63 62 61 60 60 62 61 62 62 63 64 64 63 63 62 61 61 61 60 60 59 59 58 52 53 51 53 55 54 53 51 53 53
29 31 32 37 51 56 59 62 62 63 62 61 61 60 61 61 59 61 62 62 63 62 63 63 61 61 61 60 60 60 59 57 58 53 51 51 49 52 55 54 54 54 53
23 30 32 33 51 54 60 61 62 61 62 61 59 59 58 58 58 59 62 62 62 62 62 62 61 61 60 60 60 60 59 58 55 56 53 52 51 49 50 54 54 55 53
28 31 32 32 50 54 60 61 62 61 61 60 60 59 58 58 59 60 60 60 61 62 62 61 61 60 60 59 59 60 59 59 56 53 54 52 53 51 51 50 53 54 54
30 30 33 33 45 53 59 61 61 60 60 60 60 60 58 57 58 59 59 60 60 59 60 61 60 60 60 59 59 60 59 59 58 56 55 54 53 52 52 51 52 51 53
48 49 44 30 35 53 59 60 60 59 60 60 60 59 59 58 58 58 59 59 59 58 59 59 59 59 59 59 58 59 59 59 58 55 55 55 54 53 53 52 52 52 53
46 48 49 51 42 54 59 59 59 58 59 60 59 59 59 58 58 59 59 59 59 58 59 59 59 59 59 59 59 58 59 59 58 57 56 56 56 55 54 53 52 50 50
44 46 48 51 46 54 59 59 58 57 59 59 59 59 58 58 59 59 59 60 59 59 58 58 58 58 58 59 59 58 58 58 58 57 57 56 57 56 55 55 55 52 50
41 43 45 49 56 57 59 60 58 57 59 59 59 57 58 58 59 59 60 60 60 59 59 58 57 57 57 57 58 58 58 58 58 57 56 56 56 56 56 55 54 53 52
39 40 42 45 50 57 59 58 58 58 58 59 58 58 57 58 59 59 59 58 59 59 59 59 57 56 56 57 57 56 56 56 55 55 55 55 56 55 55 55 54 53 51
37 38 39 41 45 48 53 57 57 58 58 58 57 58 58 58 58 58 58 59 58 59 58 59 58 57 56 56 56 55 55 55 54 55 55 54 55 55 55 55 54 53 51
35 36 37 37 40 42 44 46 52 57 57 57 57 57 57 57 57 57 57 57 57 58 58 58 58 58 57 56 56 55 55 54 53 53 53 53 54 53 53 53 52 53 53
34 34 35 35 36 39 40 41 44 49 54 53 51 51 52 54 54 56 57 57 57 57 57 55 49 47 44 45 49 56 56 55 55 54 54 54 53 53 52 51 52 53 52
33 33 33 34 34 35 37 39 41 42 45 47 47 48 48 48 50 49 48 48 48 46 46 42 41 39 37 36 37 43 53 57 56 56 56 50 44 41 42 51 51 53 53
33 32 32 32 33 33 35 37 39 40 41 42 43 44 44 45 44 43 42 41 41 40 38 36 36 36 34 35 36 38 49 44 43 42 42 42 37 38 38 37 35 35 44
33 33 33 32 32 33 34 34 35 37 39 40 41 42 43 41 40 39 38 38 37 37 35 35 34 33 34 35 38 38 37 35 35 35 35 35 33 33 35 37 33 32 32
33 33 34 33 32 32 32 33 33 34 35 36 38 40 40 40 39 38 37 36 35 35 35 33 32 32 33 37 36 35 34 32 31 31 32 32 31 32 35 37 31 30 30
33 32 33 34 33 32 31 31 32 33 33 34 35 36 38 38 37 36 36 35 35 33 33 32 31 31 31 34 36 34 32 30 29 29 30 29 30 32 37 33 30 27 28
32 33 32 32 33 32 33 32 32 32 32 32 34 34 35 35 35 35 35 34 33 32 30 29 30 29 29 32 33 32 31 29 28 28 28 29 28 29 30 29 27 25 25
33 33 34 33 32 32 32 31 32 31 32 32 33 34 34 34 33 33 33 32 31 31 30 28 27 27 28 29 31 32 30 28 27 26 26 27 27 28 29 28 27 26 28
34 34 33 34 34 34 33 32 30 32 32 31 32 32 33 33 34 33 33 32 31 31 30 30 30 29 28 28 28 28 28 28 27 27 28 27 26 27 27 27 28 30 29
32 32 31 28 26 27 29 27 30 32 33 32 32 31 31 30 29 28 30 31 31 30 29 28 27 27 28 30 29 28 28 28 27 27 27 26 25 26 25 26 25 26 27
30 28 25 23 24 24 24 25 25 24 25 24 24 24 23 24 25 25 25 24 28 28 28 28 26 24 24 25 28 29 29 29 29 29 28 27 27 25 23 22 23 23 24
29 28 27 25 24 24 26 28 25 26 26 25 24 23 22 21 21 23 23 23 24 26 24 23 24 22 21 23 24 26 26 28 28 28 27 25 24 21 20 19 18 18 19
26 26 26 25 24 24 25 26 28 28 26 26 27 27 24 23 21 19 20 22 23 23 23 24 23 23 22 22 22 23 23 25 26 24 22 20 19 17 17 17 16 16 15

GFSMW_sfc_dewp_087.txt.gz
Dewpoint
22 29 30 28 27 26 61 63 63 64 63 62 61 61 60 63 61 61 62 62 62 63 61 62 62 62 61 61 61 61 60 60 61 57 55 53 51 50 54 54 54 54 54
18 28 30 30 29 45 63 63 63 64 62 62 61 60 60 61 60 60 61 63 62 62 62 62 62 61 61 61 61 60 60 60 60 55 52 51 52 53 52 53 53 53 54
21 22 29 32 36 56 62 62 63 63 62 61 61 60 60 59 59 60 60 62 63 62 62 62 62 61 61 61 61 60 59 58 59 57 51 49 48 52 54 52 53 53 54
19 26 29 31 49 61 62 62 62 62 61 61 59 59 59 58 58 59 61 61 61 62 62 62 62 61 61 61 60 60 59 59 57 56 52 52 52 48 49 53 52 54 53
30 27 27 29 48 58 62 62 62 62 60 60 59 58 57 57 57 58 59 60 61 61 61 61 61 61 61 61 61 60 59 59 58 55 53 51 52 52 51 49 51 53 54
46 47 48 50 48 57 61 61 61 61 60 59 59 58 57 57 57 57 58 58 60 60 61 61 61 61 61 60 60 60 59 59 58 57 55 52 52 51 51 50 51 49 52
44 45 46 48 50 52 59 60 60 60 59 59 58 58 58 56 57 58 58 59 58 57 58 60 60 60 60 60 60 60 59 59 58 57 56 56 53 53 53 52 53 52 52
42 43 44 45 48 52 59 60 60 59 59 59 58 59 58 57 58 59 59 58 58 57 58 58 60 59 60 59 59 60 59 59 58 57 57 57 56 55 54 53 52 49 52
40 41 43 44 48 55 58 60 59 59 59 59 59 59 57 57 58 58 58 58 58 58 58 58 59 59 59 59 59 59 58 58 58 57 57 57 57 56 56 55 53 50 47
38 39 40 43 46 50 57 59 59 59 59 60 59 58 57 58 59 60 59 58 58 58 58 58 58 58 58 59 58 57 58 58 58 57 57 56 56 56 56 54 53 53 51
37 37 38 40 43 46 49 51 58 59 59 59 58 58 57 58 59 59 59 59 59 58 58 58 57 57 57 57 58 58 57 57 57 57 56 56 55 55 55 54 53 53 52
36 36 36 37 39 42 44 46 51 58 58 58 58 58 58 59 59 59 58 59 59 59 58 58 57 56 57 57 56 57 57 56 56 55 55 55 55 54 55 55 54 54 53
35 35 35 35 36 39 40 41 44 53 58 58 57 57 58 58 58 58 58 58 58 58 58 58 58 57 56 56 56 56 56 56 56 55 55 55 55 54 54 54 53 53 53
33 34 34 34 34 36 37 40 41 45 51 52 52 52 54 54 53 53 55 56 56 52 48 47 46 46 45 48 54 56 55 55 55 55 55 54 54 54 53 53 52 52 51
32 32 32 33 33 34 35 36 39 41 45 48 48 48 50 49 47 46 46 45 44 43 43 41 40 40 39 38 43 51 54 55 53 52 44 42 41 39 40 51 50 51 52
32 32 32 32 32 33 34 35 36 38 42 43 44 45 44 43 43 42 41 41 39 38 37 36 37 37 37 37 38 43 42 42 42 42 41 38 38 37 36 35 34 34 40
32 32 32 32 32 32 33 33 35 36 37 40 41 41 40 39 38 38 38 37 36 35 35 35 35 37 37 36 36 36 35 34 35 35 36 34 34 37 34 33 32 32 32
31 32 33 33 34 34 33 33 33 34 35 36 39 39 38 37 37 36 35 35 34 33 33 32 33 35 36 35 34 33 32 31 31 31 31 32 34 36 34 31 30 29 30
32 32 33 33 33 33 34 33 33 33 33 33 35 37 37 36 36 35 34 34 33 32 31 31 31 32 34 35 34 31 30 29 29 30 30 30 32 35 33 30 28 27 28
32 32 33 32 32 32 33 32 32 32 32 32 33 34 35 36 35 34 34 33 31 30 30 30 31 32 32 34 33 30 28 27 27 28 29 30 29 30 29 28 26 25 26
32 33 34 32 32 33 32 30 30 30 32 33 33 33 34 34 34 34 33 32 31 30 28 28 29 29 30 31 31 30 28 27 26 26 27 29 30 31 30 30 28 27 28
33 34 32 33 35 34 32 30 29 32 32 32 31 31 31 31 32 33 33 33 31 29 28 28 28 28 28 30 29 29 28 27 26 26 27 27 28 28 28 28 28 28 26
31 32 31 30 30 31 30 29 31 32 30 28 27 27 28 28 28 27 29 31 31 29 26 25 24 25 27 29 28 28 28 28 27 27 26 26 25 25 25 25 26 25 24
29 28 26 25 26 28 29 29 27 26 27 26 25 25 25 25 25 25 25 25 26 26 26 24 23 23 25 26 28 29 29 29 28 28 27 25 23 21 20 20 20 20 19
26 26 25 25 25 26 27 28 28 27 25 23 22 22 21 22 22 23 23 23 25 23 22 22 22 21 22 25 26 26 27 27 26 24 23 21 19 19 17 17 16 17 18
24 23 23 23 24 24 26 27 27 28 27 28 26 24 21 20 19 19 19 23 23 23 23 22 22 22 23 23 24 25 26 25 23 20 18 17 16 16 16 15 14 15 15

GFSMW_sfc_dewp_090.txt.gz
Dewpoint
18 19 26 28 27 27 57 63 65 65 65 64 63 62 62 62 62 62 62 63 63 63 62 61 62 63 62 61 60 60 59 60 61 60 57 55 56 56 57 57 57 56 56
20 20 20 29 30 32 55 63 64 64 64 64 62 61 61 61 63 61 61 61 61 61 61 61 62 62 61 61 60 59 59 59 61 58 55 52 53 53 55 55 55 55 55
29 22 20 25 30 38 60 63 63 63 63 63 61 60 59 59 60 61 59 60 61 61 61 62 62 61 61 60 61 60 59 58 59 59 55 51 49 52 53 53 54 53 54
45 36 38 41 41 42 59 62 63 63 62 61 60 59 58 57 59 60 58 59 60 60 61 62 61 61 61 60 60 60 59 59 57 57 58 55 53 49 50 52 53 53 53
43 45 47 48 50 57 60 62 63 62 61 61 60 59 58 57 58 58 58 58 59 60 61 61 61 61 61 61 60 60 59 59 57 56 55 53 53 52 49 49 51 53 53
42 44 46 47 47 51 61 62 62 61 61 60 60 59 58 57 57 58 58 59 59 60 61 61 61 61 61 60 60 60 59 59 58 57 55 53 52 51 51 50 49 50 51
41 42 43 45 47 50 53 62 62 60 61 59 59 58 58 57 57 57 58 59 59 59 60 61 61 61 61 61 61 60 60 59 58 57 56 55 53 50 53 52 51 49 52
40 41 42 43 46 49 54 62 61 60 59 59 58 58 58 57 57 58 59 58 58 58 59 60 60 60 60 60 60 60 60 59 59 57 57 57 56 54 54 53 52 50 51
38 39 40 41 43 46 52 59 61 60 59 59 58 58 58 57 57 58 58 58 58 57 57 58 58 59 59 59 59 60 59 59 59 58 58 57 57 56 55 54 54 52 49
36 37 38 39 43 45 48 54 59 59 59 59 59 58 57 57 58 58 57 58 58 58 57 57 58 58 59 59 59 59 59 58 58 58 57 57 57 56 55 54 53 52 50
35 35 36 38 41 43 45 49 52 59 59 59 59 57 57 58 59 58 58 58 58 58 57 57 58 57 58 58 57 57 58 58 57 58 57 56 56 56 55 54 53 52 51
34 34 34 35 38 38 42 44 47 50 58 59 58 58 59 59 59 59 59 59 58 58 58 57 57 57 57 57 57 57 57 57 56 56 56 55 56 55 55 54 53 52 52
32 33 33 34 35 36 38 41 44 46 54 58 58 58 58 58 58 58 59 59 59 58 58 57 57 57 57 57 57 57 57 57 57 56 56 55 55 54 54 53 53 53 54
32 32 32 33 34 35 36 37 41 45 47 54 55 54 54 54 54 54 53 54 52 50 49 48 48 49 49 53 56 57 56 56 56 56 56 56 55 55 54 53 53 53 53
32 32 31 32 32 34 34 35 37 41 44 47 48 49 48 48 48 47 45 44 43 43 43 43 42 42 41 41 48 54 55 54 47 45 43 41 41 40 43 53 51 53 52
31 31 32 32 32 32 33 35 36 37 41 42 42 44 45 43 42 41 41 39 39 38 38 38 39 39 39 38 39 45 45 45 43 40 39 39 37 36 35 35 34 35 43
30 31 31 31 32 32 34 34 35 36 37 39 41 39 39 39 38 37 37 36 36 36 36 37 37 36 36 36 36 36 37 36 36 37 36 37 36 35 33 32 32 32 32
31 31 31 31 32 32 33 34 34 35 35 35 37 37 36 36 35 35 34 33 34 33 34 35 35 34 34 34 34 33 32 32 31 32 34 35 36 34 32 31 30 30 30
33 31 32 32 31 32 32 32 33 33 33 33 34 35 35 34 33 32 32 32 32 31 32 33 33 33 33 33 32 31 30 30 31 31 32 34 33 33 32 29 28 28 29
32 32 32 31 30 31 32 32 31 31 31 32 32 33 34 33 32 32 31 31 30 30 30 30 31 33 32 32 32 30 29 28 29 30 30 31 31 31 30 28 27 27 28
32 33 33 31 32 33 32 30 30 29 30 31 32 31 32 32 33 32 32 31 30 29 28 28 29 30 31 32 32 31 29 28 28 28 29 31 32 31 30 29 28 26 27
30 30 29 29 32 32 31 30 28 29 29 28 28 28 28 29 31 32 32 31 30 28 28 27 27 29 30 31 31 31 29 29 27 27 28 29 29 29 29 28 27 27 23
27 27 26 26 27 30 31 28 30 30 28 27 26 26 26 27 27 27 28 28 28 27 26 26 26 26 29 30 30 30 29 28 27 27 27 25 25 25 24 25 24 23 21
25 25 24 24 25 28 29 27 25 27 27 25 25 25 25 25 25 25 26 25 25 25 24 24 23 25 26 27 28 29 29 28 26 24 23 21 21 20 19 19 20 20 19
23 23 23 23 24 26 27 29 32 28 25 25 24 23 23 24 24 24 24 24 25 25 23 23 24 24 24 27 29 28 27 25 24 22 21 20 18 17 17 17 17 17 17
21 21 21 21 21 22 24 27 28 28 27 24 22 21 20 19 19 19 21 25 24 24 23 23 23 25 26 27 28 26 24 22 20 18 16 15 15 14 14 14 14 15 14

GFSMW_sfc_dewp_093.txt.gz
Dewpoint
33 38 25 21 24 26 28 51 64 65 66 65 64 64 63 63 63 64 64 64 64 64 63 62 62 61 61 61 61 61 60 59 61 60 57 56 58 59 59 59 58 57 57
43 45 46 39 24 26 36 49 62 65 65 65 64 63 64 64 63 63 63 64 63 62 63 62 61 62 62 61 61 60 59 59 60 58 55 52 54 56 58 58 57 57 56
42 43 45 47 48 42 41 56 61 64 64 64 62 60 61 61 61 62 62 62 62 61 62 61 62 62 61 61 60 60 59 58 60 57 55 52 51 53 54 55 56 55 55
43 43 44 46 47 47 50 56 61 63 64 64 61 60 60 60 61 62 62 61 60 61 61 61 62 62 61 60 60 60 59 58 58 59 58 56 54 52 50 54 54 54 54
42 42 43 44 46 48 50 57 62 63 64 62 61 60 59 59 59 59 60 59 60 61 61 62 62 61 61 60 60 60 60 59 58 58 57 55 55 54 52 50 52 53 53
41 41 42 43 43 47 51 59 62 62 62 62 61 60 58 57 58 58 58 58 59 60 61 61 61 61 60 61 60 60 60 59 59 58 57 54 53 53 52 51 51 51 52
40 39 39 41 42 44 48 56 62 62 61 61 60 59 58 58 57 58 58 57 58 58 59 61 61 61 61 60 60 60 59 59 59 57 56 55 54 55 54 53 50 50 51
38 38 38 39 41 43 46 52 62 61 61 61 60 59 58 58 58 58 58 58 57 58 59 59 60 61 61 60 60 60 60 60 59 58 57 56 56 55 54 53 53 50 50
37 36 37 38 40 42 44 48 60 60 61 60 59 59 58 58 57 57 58 58 58 58 58 60 60 60 60 60 60 60 60 60 59 58 57 56 56 56 55 54 53 51 49
34 34 35 37 40 41 43 46 52 60 59 59 59 59 58 58 57 57 57 57 56 57 58 57 58 58 58 59 59 59 59 59 59 58 57 57 57 56 56 54 53 53 51
33 33 34 35 38 40 41 44 47 58 59 59 59 58 57 57 57 57 56 56 57 57 57 57 57 56 57 57 58 58 58 58 58 58 57 56 57 55 55 55 53 53 52
32 32 33 34 35 38 40 41 43 48 55 59 59 58 58 58 58 57 57 57 56 56 56 57 57 57 57 57 57 57 57 57 57 57 57 56 56 55 54 54 53 53 52
32 32 32 32 33 35 38 39 41 44 48 57 58 58 58 58 58 59 58 58 57 57 57 57 57 57 57 57 57 57 57 57 57 57 57 56 56 55 55 54 53 53 53
31 32 31 32 32 34 35 37 38 42 44 47 53 55 57 57 56 56 56 55 54 52 50 50 49 50 51 54 56 57 57 57 57 57 57 56 56 55 55 54 53 53 53
30 31 30 31 32 33 34 35 37 39 42 43 43 44 49 51 49 48 46 45 45 44 44 44 43 42 42 41 45 55 56 51 48 46 44 44 44 45 50 54 53 53 52
30 31 30 31 31 32 33 34 35 37 39 39 39 40 41 42 41 41 41 40 39 40 40 39 38 38 37 37 39 47 47 45 43 40 39 38 38 36 36 36 35 37 50
30 30 31 31 31 32 32 32 34 35 36 37 37 36 37 36 36 36 36 36 36 37 37 36 35 34 35 36 36 37 38 38 38 39 38 36 35 35 33 33 33 32 32
30 30 30 30 31 32 32 32 32 33 33 34 35 35 34 33 33 33 33 33 34 34 35 34 34 33 33 34 34 34 34 34 33 34 37 35 34 33 33 32 31 30 30
31 31 32 31 31 31 32 32 31 30 30 31 32 33 34 33 32 31 31 31 31 31 32 33 32 32 32 33 33 32 32 31 32 33 34 33 32 33 33 31 29 29 29
32 31 32 32 31 31 31 29 28 28 28 30 30 32 32 32 32 31 30 30 30 30 30 30 31 32 32 33 32 31 30 30 30 30 31 32 31 31 31 29 28 26 27
30 29 28 30 31 31 29 26 26 25 28 29 30 30 30 32 32 31 31 30 30 29 29 28 29 30 30 31 32 31 30 30 29 30 30 31 32 31 31 29 28 26 24
26 26 27 27 28 28 28 26 26 27 27 27 27 27 28 29 30 29 29 29 29 28 28 27 27 29 30 31 31 30 30 30 28 28 29 30 30 30 29 27 26 23 21
25 24 25 25 27 28 25 25 27 26 25 25 25 26 26 26 27 26 27 26 27 26 26 26 26 26 28 29 30 30 29 28 26 26 27 26 25 25 25 24 23 21 19
22 23 22 22 23 26 28 27 26 25 24 24 24 25 25 25 25 25 25 24 24 24 24 25 25 26 27 27 29 28 26 25 23 22 22 22 21 20 19 19 20 19 18
20 21 20 21 21 23 25 27 30 26 24 23 24 23 23 23 24 25 25 24 26 25 24 24 25 25 26 28 28 26 25 23 23 21 20 19 18 17 17 17 17 18 17
18 18 18 19 19 21 22 24 27 28 25 21 21 21 21 21 21 23 24 28 28 28 28 28 27 29 30 29 28 27 26 24 22 18 16 15 15 14 14 14 14 14 13

GFSMW_sfc_dewp_096.txt.gz
Dewpoint
44 44 44 46 47 47 39 27 47 63 66 66 64 64 63 64 65 64 64 64 63 63 63 62 61 62 61 61 61 61 60 60 61 59 57 57 59 60 60 60 59 59 58
43 43 43 45 47 47 48 45 37 59 65 64 65 64 64 64 64 64 64 64 64 63 63 62 62 61 61 61 61 61 60 60 61 58 56 53 55 57 59 60 59 58 57
42 42 42 44 45 45 47 48 50 54 64 64 65 61 63 62 61 62 63 63 64 63 63 62 61 61 61 60 61 61 60 59 60 59 56 51 51 54 56 58 58 57 57
42 41 42 42 43 44 46 47 50 53 63 64 64 62 61 60 61 62 62 63 63 63 63 62 61 60 62 61 61 61 60 59 58 58 58 56 55 53 51 55 56 56 56
41 40 40 40 41 43 44 47 50 55 62 64 63 62 61 61 61 61 56 60 62 62 62 62 60 61 61 61 60 60 60 60 58 58 57 56 55 55 53 51 52 54 55
39 39 39 39 40 43 44 45 49 58 63 63 63 61 60 58 60 61 60 61 61 61 62 62 61 61 60 60 60 60 60 59 59 59 58 56 54 53 53 52 53 53 53
37 37 37 37 38 40 42 44 47 54 63 62 62 61 60 58 59 60 60 60 60 60 60 60 60 60 60 60 60 60 60 60 59 58 58 57 55 55 54 53 53 52 52
36 36 36 36 37 39 41 43 46 50 62 62 61 61 58 58 58 59 59 59 60 60 60 60 60 59 59 60 60 60 59 59 59 59 58 57 56 55 55 54 52 50 51
35 34 35 36 36 38 41 42 44 48 60 61 60 59 58 58 58 58 59 59 59 58 58 59 59 60 60 60 60 60 59 59 59 59 58 57 56 56 56 55 54 52 49
33 33 33 35 36 38 39 42 44 47 60 60 60 59 59 58 58 58 58 58 58 58 57 58 59 60 60 60 60 60 60 59 59 59 57 57 56 56 56 56 55 54 52
32 32 32 33 35 37 39 39 43 46 51 59 59 58 58 58 58 58 58 57 57 57 57 57 58 58 58 58 58 58 58 58 59 59 58 56 56 56 56 56 54 53 53
31 31 31 32 33 35 36 37 40 44 47 51 58 57 57 58 57 57 57 56 56 56 56 57 56 56 56 57 57 57 57 57 57 57 58 56 56 55 56 55 54 53 53
30 30 30 31 32 33 35 36 38 42 44 48 55 58 58 58 57 57 57 56 56 55 55 55 57 56 57 57 57 57 57 57 57 58 57 56 56 55 55 55 54 53 53
30 30 30 31 32 32 33 34 36 39 40 42 44 46 47 57 58 58 58 57 57 55 53 51 50 50 50 52 55 57 57 57 57 57 57 57 56 55 54 54 54 54 53
30 30 30 30 31 32 32 33 34 36 39 37 38 39 41 42 47 51 49 47 46 46 46 45 43 42 41 40 43 51 56 54 49 46 44 46 53 51 52 54 54 53 52
30 30 29 30 31 31 32 32 33 34 35 36 37 36 37 37 37 40 41 41 41 40 39 38 38 37 37 37 39 47 47 45 44 41 40 39 39 38 37 37 36 41 52
29 29 30 30 30 31 32 32 32 32 33 33 35 36 36 35 34 34 36 37 37 36 35 35 35 34 35 36 37 37 39 38 39 39 38 37 36 36 35 34 34 33 33
29 29 30 30 30 31 30 30 32 31 30 31 32 33 34 34 34 32 32 33 34 34 33 33 33 33 33 34 35 34 35 35 35 35 35 34 34 34 34 33 32 30 30
30 30 31 30 30 29 29 28 28 29 29 30 30 32 32 32 32 32 32 31 31 31 31 32 32 32 33 33 33 33 32 31 32 33 33 33 33 34 34 31 28 27 26
29 28 29 30 29 29 28 27 26 26 26 28 29 30 31 31 30 30 30 31 31 30 30 30 31 32 32 33 33 32 31 30 30 31 32 33 32 32 31 30 28 25 25
28 28 28 28 27 28 27 25 24 24 26 28 28 28 29 29 30 29 29 29 29 29 28 28 29 30 31 32 32 32 30 30 29 29 29 31 31 31 30 28 26 24 24
25 26 26 26 27 26 26 24 24 25 25 25 25 25 26 27 27 27 28 28 28 27 27 27 27 28 30 30 31 30 30 29 27 27 29 29 29 29 28 26 26 25 23
23 24 24 24 25 27 26 24 26 26 24 23 24 24 24 24 25 24 24 25 26 26 26 26 26 26 27 27 28 28 28 27 25 26 27 27 26 25 25 24 23 21 20
20 21 21 20 21 24 26 28 26 25 24 23 23 23 24 23 24 24 24 24 24 24 25 25 25 26 26 26 26 25 24 24 23 23 22 22 22 20 20 20 20 20 19
18 19 19 19 20 21 22 24 27 24 22 22 22 22 21 22 23 24 24 24 27 26 24 25 26 26 25 26 27 24 23 22 22 21 20 19 18 17 17 17 17 18 18
17 16 16 16 17 18 19 21 24 26 25 21 20 20 21 21 21 21 20 27 28 28 29 29 28 28 28 28 28 26 25 24 22 18 16 15 15 15 15 14 14 14 14

GFSMW_sfc_dewp_099.txt.gz
Dewpoint
44 44 45 45 46 48 48 49 50 51 47 64 64 63 63 64 65 65 65 65 65 64 63 63 63 63 63 62 62 61 61 61 62 60 59 59 61 61 62 62 62 61 61
42 43 43 44 45 46 47 48 49 50 49 57 63 63 63 64 65 66 65 65 64 64 63 62 62 63 62 62 62 61 60 61 62 59 57 54 56 59 61 61 61 60 60
41 42 42 43 44 44 45 45 48 49 51 53 62 64 64 65 64 65 64 65 64 63 63 63 63 62 62 62 62 62 60 59 61 60 57 53 53 55 58 60 61 60 59
41 40 41 41 42 42 43 43 45 48 51 54 60 62 60 59 62 63 64 64 64 63 63 63 63 62 62 62 62 62 61 61 59 60 60 58 57 54 53 56 59 59 59
39 39 39 39 39 40 40 42 44 46 50 55 59 62 61 62 63 64 63 63 64 62 59 59 62 62 62 62 62 62 61 61 60 59 58 57 57 57 55 53 55 56 58
38 38 38 38 37 39 40 41 43 45 48 56 59 62 62 62 63 62 62 63 62 59 59 61 62 62 62 62 63 62 61 61 60 60 59 57 55 55 56 55 55 54 55
36 35 35 36 37 37 39 41 42 44 47 52 61 62 62 62 63 62 61 60 59 58 59 62 61 62 62 62 62 61 62 61 60 59 59 59 58 58 56 56 55 54 54
34 34 34 35 36 37 38 40 42 43 47 50 62 63 62 62 63 63 60 60 59 60 62 62 62 62 62 61 61 61 61 61 60 60 59 59 59 58 57 57 55 53 52
34 34 34 35 35 36 37 39 41 42 46 51 62 62 61 60 60 63 63 62 62 61 61 62 61 61 60 60 61 60 61 61 60 60 60 59 58 58 58 57 56 54 50
32 32 32 33 35 37 37 39 40 42 46 50 61 60 60 60 60 60 60 60 60 59 61 60 60 60 60 61 61 60 60 60 60 60 59 59 58 58 58 56 57 55 53
32 31 32 33 34 35 36 37 38 41 45 46 58 60 60 59 59 59 60 60 59 59 59 59 59 59 60 60 60 60 60 59 59 59 59 58 58 57 57 57 56 54 54
32 31 31 32 33 33 34 35 37 39 43 44 50 58 59 59 59 59 59 59 58 58 58 58 58 58 59 59 59 58 59 59 58 58 58 58 57 57 57 56 55 54 54
31 31 31 31 32 32 33 34 36 37 40 42 43 45 46 56 58 59 57 58 57 57 57 58 57 57 57 57 57 57 58 58 58 58 58 57 57 56 56 55 55 54 54
30 30 30 30 31 31 32 33 34 35 37 39 40 40 42 43 49 57 58 58 58 58 58 57 55 55 54 55 57 57 57 57 58 57 57 58 57 56 55 55 54 54 53
28 29 29 30 30 30 31 32 32 33 35 36 37 38 38 38 39 44 44 55 53 50 49 47 45 44 43 41 46 52 56 57 52 48 45 43 51 51 53 55 55 54 53
28 28 28 28 29 30 30 31 32 32 33 33 34 36 37 37 36 36 38 40 42 41 40 39 39 39 38 37 39 48 49 46 44 42 41 39 40 39 39 39 41 50 53
27 28 28 28 29 29 29 30 31 32 30 31 32 33 35 35 36 35 34 34 35 36 35 35 35 35 36 36 37 38 40 39 39 38 38 38 37 37 36 35 34 34 34
28 28 29 29 29 29 29 29 29 30 30 29 30 31 32 33 35 34 33 32 32 33 33 33 34 34 34 35 35 35 36 35 34 34 35 35 35 35 35 34 33 32 32
28 28 29 28 29 28 28 28 27 28 28 28 28 30 30 30 31 32 32 32 32 31 31 32 32 33 33 34 34 34 33 32 32 33 33 33 33 34 34 31 30 28 27
28 28 29 29 27 29 28 26 26 26 26 28 29 30 30 29 28 29 30 32 31 30 30 30 31 32 32 34 33 32 32 31 30 31 32 33 32 32 32 30 29 25 25
27 27 27 27 29 28 28 26 25 25 27 28 28 28 29 29 29 29 30 29 29 29 28 28 28 29 30 32 32 32 30 30 29 28 29 30 30 30 30 28 26 25 26
24 24 25 25 26 27 26 26 25 27 26 26 27 27 27 28 30 28 29 30 30 28 28 27 26 26 28 29 30 29 29 28 27 27 28 29 29 28 27 26 26 25 24
22 22 23 22 23 24 25 25 26 26 26 26 25 27 27 28 29 29 28 28 29 28 28 28 28 27 28 27 28 27 26 26 25 25 26 26 25 25 25 25 24 23 23
21 20 19 19 21 23 24 24 24 22 23 23 24 25 26 26 27 26 27 27 28 28 28 28 27 27 27 27 27 27 27 26 25 25 25 24 23 22 22 23 23 23 22
19 19 19 19 20 21 22 23 25 24 20 21 23 23 23 24 23 26 27 27 30 28 27 27 28 27 26 27 28 27 26 25 24 25 24 24 22 21 21 20 21 21 21
18 17 17 17 18 19 20 21 23 24 24 22 19 21 22 22 21 21 23 25 28 28 27 26 27 28 26 25 25 25 25 24 23 23 22 21 21 19 18 18 17 18 17

GFSMW_sfc_dewp_105.txt.gz
Dewpoint
36 38 42 44 46 47 47 48 50 51 50 50 50 50 47 55 59 61 64 67 66 69 68 66 67 66 65 66 65 65 64 64 64 63 62 63 63 64 63 63 62 62 62
35 38 40 43 45 46 47 48 48 49 49 49 50 51 52 51 55 60 63 65 66 68 67 66 66 66 65 65 64 64 63 63 64 61 59 57 58 61 62 62 61 62 62
37 38 40 42 44 44 46 46 46 47 49 50 50 50 52 53 55 60 61 63 66 67 67 67 66 66 65 64 64 64 62 61 63 62 59 56 55 57 61 61 61 61 61
38 38 39 40 42 43 45 45 46 46 46 49 49 50 50 50 48 55 58 62 65 65 67 67 65 65 65 64 64 64 63 62 60 62 61 60 57 55 55 59 61 61 61
38 38 39 39 39 42 44 45 45 44 46 46 47 47 49 51 53 53 58 62 65 65 66 67 65 65 64 64 64 63 63 63 62 61 60 61 60 59 56 54 57 60 61
38 38 38 38 39 41 43 44 43 43 44 43 44 45 47 50 53 53 57 60 65 65 65 65 65 65 65 64 64 65 65 64 63 62 62 60 58 57 57 56 56 56 59
38 37 36 37 38 40 42 42 41 41 41 41 42 44 47 49 52 55 57 61 64 64 64 64 64 64 64 59 58 61 64 64 63 63 62 61 61 59 57 58 57 56 57
36 36 36 37 37 39 40 40 40 40 40 40 41 44 46 49 52 56 58 60 62 63 63 64 63 63 63 61 63 64 64 64 63 63 63 62 61 61 59 58 57 55 55
35 35 35 36 37 38 39 40 39 39 38 39 41 43 46 50 57 60 61 62 64 62 63 64 63 63 64 63 63 62 63 63 64 64 63 62 61 61 61 60 59 56 53
33 35 35 36 37 38 38 39 39 38 38 39 39 42 45 48 59 61 61 62 63 63 63 63 63 61 60 62 62 61 62 63 64 64 63 62 61 61 60 59 59 58 56
32 33 34 35 36 37 37 37 37 37 37 37 39 41 43 47 52 60 61 61 62 62 61 62 61 61 61 59 60 61 61 61 62 61 61 60 61 61 61 60 60 58 57
32 33 33 34 35 35 35 36 36 36 36 36 37 39 41 43 46 50 57 61 62 62 61 60 60 60 60 61 58 57 59 60 60 60 61 59 59 60 60 60 58 58 58
31 32 32 33 33 34 34 34 34 34 35 35 35 37 38 41 41 43 47 60 61 61 61 60 60 60 61 61 61 58 57 60 60 59 59 59 59 59 59 59 58 59 58
31 31 31 31 32 32 33 33 36 34 34 34 34 34 36 38 40 40 43 43 50 60 60 60 60 59 60 60 61 60 60 60 60 61 60 60 59 58 59 58 58 58 57
29 29 29 30 30 31 31 32 33 34 33 32 32 33 34 36 38 39 39 39 39 41 50 56 54 56 54 54 59 59 59 59 59 56 53 49 44 42 43 54 57 57 56
28 28 28 28 29 30 30 31 31 32 33 31 31 31 33 33 34 35 37 36 36 35 37 40 43 42 40 39 41 54 55 53 52 48 46 44 42 42 38 40 42 50 55
27 28 27 28 29 30 29 30 30 31 31 32 32 32 32 32 32 33 34 34 35 34 33 34 36 36 37 38 41 41 44 41 41 41 41 41 40 40 40 37 36 35 36
28 29 29 29 30 32 30 30 30 29 30 31 32 32 32 32 32 31 31 32 32 32 32 31 33 34 34 36 36 36 37 36 35 35 36 37 38 37 39 36 34 33 33
31 31 30 31 32 32 30 29 28 28 28 30 31 32 33 32 32 31 30 30 28 29 29 30 30 32 32 34 35 34 33 32 32 32 33 34 34 34 36 34 32 31 31
31 31 32 32 32 32 30 28 29 28 29 30 31 32 33 33 32 32 32 32 31 29 28 27 28 30 30 33 33 32 31 30 30 30 31 32 32 32 32 31 30 27 27
31 32 30 31 32 33 33 30 30 29 31 31 31 31 32 33 33 34 33 33 32 32 30 28 27 27 28 29 31 31 29 29 28 28 28 30 30 30 30 29 28 26 27
29 30 30 28 26 26 27 30 30 33 34 32 31 31 31 32 32 32 33 33 32 32 32 31 30 30 28 29 29 29 28 28 26 26 27 28 28 28 28 27 28 27 26
27 24 23 23 23 23 24 25 28 30 32 32 32 32 31 30 31 30 29 29 32 30 30 29 28 27 30 31 30 29 28 27 25 26 27 27 27 26 26 27 26 25 25
23 21 21 20 20 21 21 21 22 22 22 25 26 27 29 28 27 26 26 25 26 28 27 26 27 27 27 27 30 31 30 30 30 30 30 29 28 28 27 27 27 26 25
23 21 20 19 19 18 19 20 20 20 19 20 21 23 25 26 26 25 24 24 26 25 25 26 25 24 23 26 27 28 28 29 30 31 31 30 29 28 28 28 28 28 28
22 21 21 20 19 18 19 20 21 21 20 20 20 22 22 22 21 23 25 23 23 22 23 23 23 25 22 22 23 23 25 27 29 29 28 28 28 26 26 25 26 27 26

GFSMW_sfc_dewp_108.txt.gz
Dewpoint
37 40 45 47 47 49 49 49 50 52 51 51 51 52 52 55 55 57 62 66 67 67 66 66 66 66 65 64 66 65 64 64 64 62 62 62 63 63 63 63 63 62 62
35 39 42 45 47 47 48 47 47 48 49 49 51 51 52 52 54 55 57 62 64 66 66 67 66 66 65 64 65 64 63 63 64 61 59 56 58 60 62 63 62 61 62
37 38 39 43 46 46 47 45 46 46 48 49 48 49 50 51 52 53 53 55 62 64 66 66 66 66 65 64 65 64 62 61 63 61 57 54 54 55 60 61 61 60 61
37 37 39 40 43 45 46 45 46 45 45 47 46 47 47 47 49 51 53 54 63 63 65 66 66 65 64 64 64 64 62 61 61 62 60 59 58 54 54 58 61 61 61
38 38 38 38 40 43 44 45 44 43 44 45 45 44 44 46 48 50 52 54 55 62 64 65 65 64 64 63 64 64 62 61 60 60 60 59 59 59 55 52 56 59 60
38 36 37 38 38 41 43 43 42 41 42 43 42 42 42 43 45 47 49 52 55 59 62 64 66 65 64 64 63 60 63 62 62 61 60 59 58 58 56 54 54 55 58
37 36 36 36 38 40 41 40 40 40 41 41 40 40 41 42 43 45 48 50 54 58 59 63 65 65 64 63 63 63 63 62 62 61 60 60 59 59 58 56 55 55 57
36 35 35 37 37 38 39 39 39 39 40 40 39 39 40 43 44 46 48 50 53 57 61 63 64 64 64 63 63 62 61 60 60 60 61 61 60 60 59 57 55 55 55
33 34 34 36 37 38 39 39 38 37 38 38 39 39 41 43 44 46 49 52 54 57 61 64 63 63 63 63 60 59 59 58 61 58 60 61 61 60 60 59 58 55 52
30 32 33 36 36 37 37 38 37 36 37 37 37 38 39 42 44 46 49 55 57 60 61 63 63 63 63 63 60 60 61 62 62 62 61 61 61 60 60 59 58 57 54
30 31 33 35 35 36 36 37 37 36 35 36 36 37 38 39 42 43 45 47 51 59 61 63 63 62 62 62 62 61 61 61 60 61 60 60 61 60 60 59 58 57 57
30 31 32 33 33 34 33 34 35 35 34 34 35 35 36 37 39 40 42 46 46 52 60 61 62 62 61 60 61 60 59 59 57 58 59 59 60 60 60 59 59 58 58
30 30 30 31 31 32 33 34 34 34 34 33 34 34 34 35 37 38 39 42 43 46 54 59 61 61 60 59 59 59 59 57 57 58 58 59 59 58 59 59 59 58 58
29 29 29 29 30 31 31 32 34 34 34 32 32 32 33 34 35 36 37 39 40 41 42 52 59 60 60 59 58 57 56 55 56 59 59 59 58 57 59 58 58 58 58
28 28 28 28 29 29 30 31 32 33 33 32 32 32 32 33 33 34 34 36 37 38 38 40 42 45 47 47 54 59 57 54 55 56 52 48 45 41 43 53 57 57 57
27 27 27 27 28 29 30 31 31 32 32 31 32 32 32 32 32 32 32 32 33 35 35 35 36 38 39 37 42 54 58 56 54 48 47 43 43 40 38 38 39 42 54
26 26 27 28 28 31 32 31 31 31 32 32 31 32 33 32 32 32 30 29 30 31 32 33 33 33 34 36 39 42 44 41 40 42 43 41 40 40 41 37 36 35 35
27 27 29 30 31 33 32 31 29 30 31 31 31 32 32 32 33 32 31 30 28 28 28 29 31 32 32 34 35 36 36 35 34 34 35 36 36 36 38 36 33 32 32
30 30 31 32 33 32 32 32 29 29 29 30 30 32 32 32 32 32 32 32 29 28 27 27 27 28 30 33 33 33 32 31 31 31 32 32 33 34 37 34 32 31 31
31 31 32 32 32 32 34 30 29 29 29 30 30 31 32 31 31 32 32 32 32 31 30 28 28 29 28 31 32 31 30 28 28 29 29 31 31 32 32 31 30 27 26
31 32 32 31 31 32 33 31 30 29 30 30 30 29 30 30 30 30 32 32 32 31 30 29 30 29 29 29 30 30 28 27 27 27 27 29 30 30 30 29 28 27 27
31 31 30 29 27 24 25 27 30 32 34 32 30 29 28 28 28 27 27 28 29 28 29 27 27 28 29 31 31 30 29 28 25 25 27 28 29 29 28 28 28 27 26
29 27 22 20 20 21 20 21 23 27 28 30 30 30 28 27 26 25 25 25 25 26 24 24 24 25 26 28 30 31 31 30 28 28 29 29 28 27 27 28 26 25 25
22 20 18 17 18 19 20 21 21 20 21 22 24 26 27 28 25 24 23 22 22 22 23 22 21 22 23 25 27 28 29 30 30 30 30 29 28 28 28 28 27 26 25
24 20 20 19 18 17 19 20 21 21 21 22 22 23 23 24 25 24 23 22 22 21 21 21 22 20 20 22 24 26 28 30 30 30 29 28 27 25 26 26 26 27 27
22 21 21 19 18 17 19 22 22 22 22 21 22 23 23 23 22 22 24 24 23 22 21 21 21 22 22 23 23 23 24 27 27 26 25 24 24 24 24 24 24 25 25

GFSMW_sfc_dewp_111.txt.gz
Dewpoint
41 44 44 44 45 45 45 46 47 47 48 48 48 48 50 50 51 52 53 54 64 67 67 66 66 66 66 64 65 65 64 62 64 61 60 60 63 63 63 63 63 63 62
40 42 43 43 44 45 45 45 45 45 45 47 47 48 49 50 51 52 52 53 54 58 66 66 66 66 66 65 64 64 63 62 63 60 59 57 57 60 63 63 62 62 61
39 40 40 42 43 43 44 44 44 43 44 44 45 45 45 46 48 49 49 50 52 54 58 65 66 66 66 65 64 63 63 61 61 60 57 54 52 54 57 61 62 61 60
38 38 38 39 41 42 43 42 42 41 41 43 42 42 42 42 43 45 47 48 49 52 55 58 63 65 65 64 62 59 59 57 59 61 61 57 55 52 53 56 59 61 60
36 36 37 38 39 41 41 41 41 41 41 41 41 40 39 41 42 43 44 46 48 50 53 56 61 62 64 63 59 57 59 61 61 57 60 59 58 56 53 52 56 59 60
35 36 37 37 38 39 40 39 39 39 39 39 39 39 38 39 40 41 42 44 46 49 51 55 59 62 62 63 62 60 60 61 60 60 59 57 57 57 56 52 51 55 58
35 36 36 36 37 38 38 37 37 36 37 38 38 38 38 38 39 41 43 44 46 48 50 54 57 60 61 61 62 62 62 61 61 61 59 60 59 57 57 55 53 53 57
34 35 35 36 36 36 37 36 36 35 36 37 37 37 38 39 39 42 43 44 46 48 50 52 56 58 61 62 62 62 60 59 61 60 60 60 59 59 58 57 54 53 54
33 34 35 35 35 35 36 36 36 34 34 36 36 36 37 39 39 40 42 45 47 49 53 52 54 53 56 58 61 60 60 58 56 56 61 60 60 60 59 58 56 54 52
32 33 34 34 34 34 35 35 34 35 34 34 35 36 36 37 38 39 41 42 45 47 50 55 55 57 54 57 60 60 60 59 59 57 59 59 60 60 60 59 57 56 53
31 31 32 32 33 32 33 34 34 34 34 33 34 35 35 36 37 38 39 40 42 45 48 50 59 59 59 59 59 60 59 59 58 59 58 56 59 60 59 59 59 56 55
30 30 30 30 31 31 31 32 33 34 34 33 33 34 34 35 35 36 37 39 39 42 44 49 56 59 58 58 60 59 59 58 59 59 58 57 59 59 59 59 58 58 57
29 29 29 29 30 30 31 32 32 33 33 33 33 33 33 33 33 34 34 36 37 38 40 43 45 52 59 59 61 60 60 60 60 59 59 58 58 59 59 58 58 58 58
28 28 27 28 29 29 30 31 32 32 32 32 32 32 33 33 32 32 32 33 34 35 36 38 40 42 44 46 50 60 59 57 57 57 56 55 57 57 59 58 58 58 57
26 27 26 27 28 29 30 30 31 31 31 31 32 32 33 33 32 31 30 30 31 31 33 35 36 36 38 36 39 46 57 55 55 53 51 50 48 47 51 57 57 57 57
25 25 26 26 28 28 30 30 31 31 31 31 32 33 32 32 32 31 30 29 29 29 30 31 32 33 34 36 36 40 56 55 52 47 45 44 41 40 41 40 38 43 56
25 26 28 28 29 30 32 30 32 32 31 31 32 32 32 33 32 32 30 29 29 28 28 28 30 30 32 35 34 35 40 43 43 42 42 40 41 42 39 37 36 34 35
26 27 28 30 30 32 32 32 32 31 31 30 30 32 30 30 32 32 32 32 30 29 28 28 28 29 31 34 34 33 32 32 32 33 34 35 36 38 39 36 34 32 32
29 27 30 31 32 32 33 33 31 30 29 29 29 30 30 29 29 29 31 31 29 29 28 29 29 28 29 32 32 32 30 29 29 30 32 32 33 36 37 34 32 31 30
29 30 31 31 30 32 32 32 31 30 30 29 27 28 28 27 27 27 28 30 30 29 28 27 27 29 29 32 30 29 29 27 27 29 29 31 32 32 32 31 31 27 26
31 31 30 30 30 31 30 29 31 30 31 31 29 27 27 25 25 25 26 26 26 25 26 25 26 26 28 30 32 30 27 26 26 26 27 29 31 31 30 29 27 27 27
30 30 29 27 26 22 23 24 26 29 29 30 30 27 26 26 25 23 23 24 23 23 21 22 23 24 26 29 30 32 31 30 27 27 28 29 30 29 29 28 28 27 26
29 26 20 18 19 20 20 21 22 25 25 25 26 27 26 25 25 23 21 20 21 21 21 20 20 21 23 25 27 30 31 31 29 29 30 30 30 29 27 28 27 25 25
21 19 17 17 18 20 22 22 22 21 23 22 23 24 24 25 24 23 21 20 19 19 19 19 20 21 23 24 25 27 28 28 29 29 29 28 27 27 27 27 27 26 25
21 20 19 18 18 19 20 22 23 23 22 23 22 22 23 23 23 24 23 23 22 21 21 20 20 21 22 24 23 24 25 26 25 25 25 24 24 24 24 25 25 26 27
20 19 19 18 17 17 18 20 21 24 22 22 23 22 22 23 23 22 22 26 23 21 20 21 23 21 22 24 22 22 22 22 22 20 19 20 21 21 22 22 23 24 24

GFSMW_sfc_dewp_114.txt.gz
Dewpoint
44 44 44 44 44 44 44 44 44 45 44 45 45 46 46 46 48 49 51 52 55 56 55 63 66 65 65 64 64 64 63 63 64 61 59 60 63 63 63 63 63 62 62
42 43 43 43 43 43 42 42 42 42 42 43 45 45 44 47 46 48 48 49 50 52 53 55 60 65 65 64 63 64 63 64 64 62 61 58 59 61 62 63 63 62 63
41 41 41 42 41 41 41 41 41 41 41 42 42 41 42 43 44 43 44 46 47 48 50 52 54 56 64 65 64 63 62 60 61 61 59 55 55 56 58 61 61 61 61
39 39 39 40 39 39 40 40 40 39 40 40 40 39 39 39 40 41 42 43 45 47 49 51 53 55 58 62 64 63 62 59 56 56 58 58 57 53 53 57 61 61 60
40 37 38 38 38 38 38 37 37 37 37 38 39 39 38 38 39 40 41 42 44 46 48 49 50 52 54 58 63 61 57 57 55 54 56 56 58 57 54 51 57 60 60
37 36 37 37 37 37 36 36 35 34 36 37 37 37 37 37 38 39 40 42 44 45 47 48 50 52 55 58 61 62 60 57 56 55 56 57 57 55 54 51 54 55 58
37 35 35 35 36 36 35 35 35 34 34 35 35 36 36 37 38 38 40 40 42 44 46 48 50 51 52 55 60 60 59 58 58 57 56 57 54 56 57 54 52 53 56
36 34 34 34 34 34 33 33 34 34 34 34 34 35 36 37 37 37 38 39 42 43 45 47 49 50 52 54 57 61 60 59 59 59 59 57 58 59 58 57 54 52 54
35 34 34 33 33 33 34 33 34 34 34 34 34 35 36 36 37 37 38 39 40 41 43 44 47 49 53 53 55 60 59 60 60 59 59 59 59 60 59 59 57 54 52
34 33 33 32 32 32 33 33 34 33 34 33 33 34 34 35 36 37 37 37 39 40 41 42 45 48 52 54 54 56 59 59 59 59 59 59 59 59 59 59 57 56 53
29 30 31 32 31 31 32 32 32 32 32 32 33 33 33 34 35 35 35 36 37 38 39 40 43 47 49 56 55 54 57 59 59 58 57 59 59 59 59 59 58 57 55
29 28 29 29 30 30 31 31 31 31 32 32 32 32 32 32 32 33 33 34 34 36 37 38 40 43 44 48 58 56 57 58 58 58 57 56 58 58 59 59 58 57 57
28 28 28 28 28 30 30 31 30 31 32 32 31 32 32 31 31 31 31 31 32 32 33 36 37 38 39 40 46 57 57 58 57 58 57 55 55 55 56 57 57 58 57
27 26 26 26 28 29 29 30 30 31 31 31 32 32 31 32 31 31 30 30 30 30 30 32 34 35 36 37 38 43 52 57 58 58 58 58 55 55 57 57 55 56 57
25 25 25 25 27 28 28 29 29 31 30 30 31 31 32 32 32 32 32 30 30 29 30 30 31 32 34 35 36 42 48 51 56 57 55 56 56 52 53 56 57 57 57
25 25 25 25 26 26 27 27 28 29 29 28 30 30 30 30 32 32 31 30 29 29 29 29 30 30 31 35 35 37 37 36 42 49 46 44 43 41 41 41 43 53 56
25 26 27 27 28 30 31 30 29 29 28 29 29 29 29 29 30 31 30 30 29 27 28 28 30 30 30 33 34 34 33 32 32 33 37 41 41 41 39 37 37 36 36
25 27 28 30 31 32 32 31 30 30 27 27 27 28 27 28 28 28 29 28 29 28 27 27 28 30 31 32 31 32 33 31 30 31 32 33 34 36 39 37 34 33 33
28 29 30 30 30 29 32 32 30 31 28 27 26 26 25 24 25 25 26 27 26 26 26 27 27 28 30 33 32 29 29 29 30 30 31 31 31 34 35 35 33 31 30
30 29 27 24 26 28 29 31 31 29 29 28 27 26 26 24 22 21 23 24 24 23 23 24 25 27 28 32 33 30 28 27 28 28 29 31 30 31 31 30 31 28 27
29 27 27 26 26 28 28 25 26 25 28 30 27 26 25 24 23 22 22 22 22 22 21 22 23 24 26 28 32 32 28 28 27 27 27 29 30 30 30 30 28 27 27
27 25 24 24 24 23 23 24 24 25 26 26 27 26 25 25 24 22 22 21 21 20 20 21 22 24 25 26 28 29 29 29 27 26 28 28 30 30 29 28 28 28 27
24 21 19 18 20 21 23 22 23 25 24 24 24 25 25 24 24 22 22 21 21 21 20 20 21 22 24 24 25 27 26 27 26 27 28 28 28 28 27 29 28 26 25
19 18 17 17 19 20 21 22 23 23 23 21 22 23 23 24 24 23 22 19 18 20 20 20 20 20 23 22 23 23 24 23 23 23 23 24 25 25 26 26 27 27 26
19 19 17 17 18 18 19 20 21 22 22 23 22 22 23 23 23 24 25 20 19 21 21 22 22 20 20 23 22 21 21 21 21 20 20 20 20 20 22 23 24 25 25
17 16 15 14 15 15 16 17 19 21 20 20 22 22 21 21 21 20 20 24 18 18 21 22 22 20 19 20 21 21 20 20 20 17 17 17 17 17 18 19 21 22 23

GFSMW_sfc_dewp_117.txt.gz
Dewpoint
44 43 43 43 43 42 41 42 42 42 43 43 43 45 43 45 45 47 46 47 50 50 50 52 54 57 63 64 63 64 63 64 65 62 61 60 62 62 63 63 63 62 62
42 42 42 41 40 40 40 40 41 41 41 41 42 42 42 44 43 44 43 46 45 47 48 50 51 54 55 58 64 64 62 62 63 60 60 58 59 61 63 63 62 62 62
41 40 39 39 39 38 39 38 39 38 39 40 40 40 41 40 41 40 41 42 44 45 47 48 50 51 53 53 57 63 63 62 61 62 58 53 55 57 59 61 62 61 62
39 38 38 38 39 36 36 35 36 36 38 38 38 38 38 38 39 39 40 41 43 45 47 48 48 49 51 53 55 59 63 63 58 57 58 56 56 54 51 58 60 61 61
39 38 38 37 36 37 36 35 34 34 36 36 37 37 37 38 38 39 39 41 43 44 46 48 47 48 49 50 53 54 58 63 61 56 55 56 55 55 52 51 54 60 61
37 37 38 38 36 34 34 35 34 33 34 35 35 36 36 36 37 37 38 39 40 42 45 46 47 49 50 51 52 54 57 61 60 58 57 55 54 54 53 51 52 53 57
37 36 34 34 34 34 33 33 34 33 33 34 34 35 35 36 36 36 37 38 39 41 43 44 45 46 49 50 52 52 54 59 60 57 56 57 55 55 55 54 53 53 56
36 35 35 33 32 32 32 33 33 33 34 33 34 34 34 35 36 36 36 37 38 39 41 42 43 44 46 48 50 53 53 56 60 58 56 56 57 57 56 55 54 52 53
34 34 34 34 32 32 32 32 32 32 33 33 34 34 34 35 35 35 36 36 36 37 39 40 41 42 44 47 50 53 53 54 59 59 58 57 57 58 57 57 56 53 51
34 34 34 33 33 33 32 32 32 32 32 33 33 33 34 34 34 34 34 34 34 36 37 37 39 41 42 45 47 50 54 54 58 59 58 58 58 57 57 58 58 56 53
32 31 31 31 32 33 33 31 31 31 31 32 32 33 34 33 32 32 32 32 33 34 34 35 37 38 38 41 42 44 54 54 55 58 58 57 58 58 59 58 58 57 56
31 31 31 29 29 30 30 29 30 30 31 32 32 33 33 32 32 31 31 32 31 32 32 33 34 35 36 38 38 40 43 54 55 57 57 56 56 56 57 58 57 57 57
27 26 26 27 28 28 29 29 29 29 31 31 31 32 32 31 31 30 30 31 31 31 31 32 32 33 35 35 36 37 40 45 56 56 57 56 57 57 58 58 58 57 57
26 25 25 26 27 28 27 28 29 29 30 31 31 30 31 31 31 31 30 29 29 29 29 30 31 32 33 33 34 35 41 46 51 56 58 58 57 56 57 57 57 57 56
24 25 25 26 27 28 28 28 29 30 30 29 30 30 30 29 30 29 29 28 28 28 28 29 30 31 31 31 33 34 36 38 39 40 45 51 50 51 53 57 56 55 55
24 25 25 26 27 28 29 29 30 30 30 29 29 28 28 27 28 29 27 28 27 26 27 27 28 29 31 33 32 33 33 33 34 35 35 38 38 43 44 45 46 51 53
23 24 25 27 28 30 31 30 31 27 26 26 26 25 25 25 25 25 26 25 26 26 25 25 26 28 31 33 33 31 31 31 31 32 33 33 34 35 40 38 37 37 38
25 24 27 25 28 29 32 31 32 29 26 25 26 25 23 22 22 22 22 23 23 23 23 24 25 26 29 33 33 31 30 29 29 30 31 32 32 33 36 36 34 32 33
25 26 28 27 25 27 29 32 31 31 26 26 25 26 24 22 21 19 20 21 21 21 22 23 24 25 27 32 32 30 29 28 28 29 30 30 31 33 34 32 33 32 30
28 27 24 21 24 27 28 28 27 27 28 26 25 25 25 22 20 19 19 20 20 20 22 23 24 24 24 28 30 29 28 27 27 28 28 31 31 31 31 28 28 29 27
25 26 25 24 26 27 27 24 24 24 26 28 26 25 24 23 22 22 21 21 20 20 20 21 23 23 23 24 27 27 26 26 25 25 26 28 30 31 30 29 27 27 27
24 25 23 23 23 23 23 24 23 23 25 25 25 25 24 24 23 21 20 21 21 20 20 20 21 23 23 23 23 25 24 24 23 23 25 26 28 29 29 29 29 28 27
22 20 19 20 20 21 22 22 23 24 24 24 23 23 23 24 23 21 18 19 20 20 20 19 19 19 22 23 23 22 23 22 21 23 23 24 25 25 25 28 28 26 26
17 17 18 18 19 20 20 21 22 22 23 22 22 23 23 23 24 21 17 17 19 20 20 18 17 17 18 21 22 21 20 20 20 20 20 19 21 20 21 23 24 25 25
18 18 18 17 17 17 18 18 20 21 20 22 21 21 20 21 21 22 17 16 18 18 18 19 16 16 15 18 20 19 19 19 18 17 16 16 16 17 18 19 20 22 22
15 15 15 14 14 14 15 16 19 20 19 19 17 19 19 18 18 18 15 18 17 17 17 17 16 15 15 16 17 18 18 17 17 13 12 12 13 14 15 15 16 18 19

GFSMW_sfc_dewp_120.txt.gz
Dewpoint
42 40 39 39 39 40 39 40 40 40 41 42 43 43 41 44 44 43 44 46 46 48 48 49 50 53 54 55 59 64 62 61 63 62 61 62 63 64 64 64 63 62 62
39 38 37 37 36 36 36 36 37 38 38 39 41 41 41 43 43 41 43 43 44 46 46 47 48 50 51 52 53 58 63 62 63 61 58 54 56 60 63 64 63 62 63
37 37 36 37 37 36 35 34 35 35 37 38 39 39 40 40 40 40 40 41 43 45 46 47 48 48 49 50 52 54 56 61 62 63 59 55 55 57 60 60 63 63 62
37 36 36 35 35 36 37 37 36 35 35 36 37 37 38 37 39 39 40 40 42 43 45 47 48 49 50 50 50 53 53 57 60 60 62 58 57 55 54 58 61 62 61
38 37 38 36 35 35 36 36 37 37 34 34 35 36 36 37 38 38 38 39 40 42 43 46 46 47 48 50 50 51 51 53 55 59 57 57 56 55 54 53 55 60 60
37 37 36 37 36 35 35 36 34 34 35 34 34 35 35 35 36 36 37 37 39 40 42 42 44 44 46 47 49 52 52 52 53 56 59 57 56 54 53 51 52 54 58
35 35 35 34 35 35 35 35 34 33 34 34 34 34 34 34 35 35 36 36 37 38 39 40 41 42 44 45 47 48 50 52 53 53 57 59 58 56 55 54 52 51 53
35 34 34 34 34 34 33 32 32 33 34 34 34 34 34 34 34 34 34 35 35 35 37 38 39 41 42 43 45 47 49 52 53 53 54 59 59 58 56 54 53 51 52
34 33 34 33 34 34 33 32 32 32 32 33 34 33 33 34 33 33 33 33 33 34 35 36 37 39 40 41 43 45 47 49 53 54 54 58 58 59 58 57 55 53 51
34 32 32 32 33 33 33 32 32 32 32 33 33 33 33 33 33 33 32 32 32 33 34 34 35 36 37 38 40 41 43 45 48 54 55 56 58 58 58 58 58 57 54
30 30 31 31 32 32 32 31 31 31 32 32 32 33 32 33 32 32 32 32 32 32 32 33 34 34 35 36 37 38 39 40 43 53 55 56 57 58 58 58 58 57 56
29 28 28 28 29 29 30 30 31 31 31 31 31 32 32 32 31 30 30 30 30 31 31 32 32 33 33 34 34 35 37 39 41 45 53 55 57 57 57 57 57 57 57
26 25 26 26 27 28 29 29 30 30 31 31 30 30 30 30 30 30 28 28 29 29 30 30 31 32 33 32 33 35 36 37 40 43 47 55 56 56 56 56 56 57 57
25 24 25 27 27 28 28 28 30 30 30 30 29 29 29 29 29 29 29 28 28 27 27 29 30 32 32 32 32 33 33 34 35 38 39 41 40 42 52 56 57 57 57
25 24 24 26 27 26 28 28 28 28 28 27 26 26 27 27 27 27 26 26 26 26 26 27 28 31 31 32 31 30 31 31 32 32 34 36 37 37 38 46 56 57 57
24 23 25 26 27 28 28 28 28 26 26 26 25 24 24 23 24 24 24 23 23 24 25 26 26 28 30 33 32 30 29 29 29 29 30 32 34 34 36 38 40 43 56
24 25 26 27 28 30 30 29 29 28 26 26 25 24 24 23 22 22 21 22 22 23 24 25 25 26 28 31 30 30 29 28 28 28 29 29 30 31 34 36 35 34 34
23 26 26 27 28 29 30 30 29 28 25 25 25 24 23 22 21 21 20 20 20 21 23 23 23 24 27 29 28 28 28 27 28 28 29 28 29 31 32 34 34 32 32
26 27 27 26 25 26 29 29 29 29 25 25 24 25 23 21 20 19 18 19 19 19 20 24 23 22 23 26 27 25 25 25 25 26 28 28 28 31 31 29 30 31 30
25 24 23 24 25 26 28 26 25 26 25 25 24 24 23 21 19 19 19 19 14 19 20 20 22 23 22 24 25 25 23 22 23 24 25 27 29 31 30 27 26 25 25
24 24 24 22 24 26 24 21 22 23 25 26 25 24 24 22 21 19 19 19 17 18 18 17 18 20 22 21 23 23 22 21 21 21 22 25 27 28 29 29 27 26 27
23 23 22 22 23 23 23 23 20 21 25 24 25 24 23 24 22 18 19 19 20 18 16 16 16 17 19 21 21 22 21 21 20 20 21 22 23 25 26 26 27 27 26
21 21 20 20 20 21 21 21 23 24 24 24 22 23 23 24 20 18 17 17 18 18 15 14 14 15 17 19 20 20 20 19 17 19 19 20 20 20 21 23 24 23 23
17 18 18 18 18 19 19 20 21 22 21 20 20 21 21 20 19 17 16 16 16 16 15 13 13 13 14 15 17 17 17 16 15 14 15 14 17 15 16 17 19 20 21
15 18 18 17 16 17 17 18 20 20 16 17 18 19 19 19 18 16 16 15 16 15 14 14 12 12 12 13 14 14 14 14 13 10 10 10 10 11 12 13 14 16 16
15 15 16 15 14 15 15 16 19 19 17 16 17 18 17 17 16 15 14 17 17 16 16 16 15 13 14 14 13 13 13 12 11 7 6 5 7 8 8 9 10 11 12

GFSMW_sfc_dewp_123.txt.gz
Dewpoint
38 37 37 37 37 37 37 37 37 39 39 40 41 43 43 45 44 44 46 47 48 50 50 49 51 53 53 55 56 58 62 64 66 64 63 62 64 64 65 66 67 66 66
36 35 35 35 36 37 37 37 36 37 37 39 40 41 42 43 43 43 44 44 46 48 48 50 50 51 51 53 54 55 57 64 64 61 61 58 61 62 63 65 65 65 66
36 35 34 34 34 35 35 36 36 36 37 38 38 39 40 40 40 41 41 43 44 45 48 48 48 48 50 50 50 53 55 56 62 64 61 56 55 57 60 61 63 65 66
36 36 35 35 35 35 36 35 35 35 37 37 37 38 36 36 38 39 40 41 43 44 44 46 47 48 49 50 50 51 52 54 55 60 63 63 61 58 57 61 62 64 63
38 37 37 36 35 35 36 35 36 35 36 37 38 37 35 36 37 38 39 39 41 41 42 43 44 44 46 47 48 50 52 52 52 54 59 62 62 61 57 56 59 61 61
36 36 35 36 36 36 34 35 34 34 35 36 37 37 36 35 35 35 36 36 37 38 39 40 41 42 43 44 46 47 49 51 53 53 54 55 58 57 57 56 56 57 60
35 35 35 34 35 35 35 35 34 34 34 35 34 34 35 35 34 33 34 34 34 35 36 37 39 39 41 42 44 45 47 49 50 52 53 53 55 58 56 56 56 56 56
35 34 34 34 34 33 33 33 33 33 33 35 34 34 34 34 33 33 33 33 33 34 35 36 37 37 39 40 41 43 46 48 50 51 53 53 54 56 59 57 56 56 56
34 34 33 33 32 32 32 32 32 32 32 33 33 33 33 33 33 33 33 33 33 33 34 34 35 36 37 38 39 40 42 44 45 48 49 53 54 57 57 59 57 55 53
32 31 31 31 32 31 32 32 32 32 32 32 32 33 32 32 32 32 31 31 32 32 32 33 34 35 35 36 36 38 39 40 43 44 46 50 54 56 57 59 59 57 55
31 29 30 30 31 31 31 31 31 32 32 32 32 31 31 32 31 30 30 30 31 31 31 32 34 34 34 35 35 36 38 39 41 43 45 47 52 55 57 58 58 57 57
28 27 27 28 28 28 29 30 30 31 31 31 31 31 31 30 30 30 29 29 29 30 30 31 32 32 33 34 34 35 35 36 37 39 40 43 42 49 57 57 57 57 57
26 25 26 26 27 28 29 29 30 30 30 30 29 30 29 29 28 28 28 28 28 28 28 29 31 32 32 32 32 32 32 33 34 34 36 37 37 37 39 42 55 57 56
25 25 26 26 26 27 28 28 28 29 28 27 26 26 27 27 27 27 27 27 27 27 27 28 29 32 31 31 31 31 31 31 31 32 33 33 34 34 35 38 42 47 56
24 25 25 25 26 26 26 26 27 26 26 25 25 25 25 24 25 25 25 25 26 26 25 26 27 30 30 31 31 30 30 29 29 31 30 31 33 33 34 37 38 39 42
24 24 25 24 26 26 26 26 27 26 25 24 23 23 23 22 23 23 24 23 23 24 24 24 24 27 26 29 29 29 29 28 28 28 29 29 30 31 31 34 35 34 34
24 24 25 27 27 28 27 27 26 25 24 23 23 23 23 23 23 23 23 23 24 24 24 24 24 25 26 26 27 27 28 28 28 28 28 28 28 30 30 30 32 33 32
25 26 27 27 28 29 30 30 26 24 24 23 23 22 22 23 23 23 23 23 24 24 24 24 24 25 26 24 24 26 29 29 28 27 29 29 30 30 29 28 28 29 29
28 28 27 27 28 29 29 28 27 24 22 23 23 23 22 22 22 22 23 23 23 23 23 23 23 24 25 23 23 24 26 27 27 27 27 27 29 28 29 28 26 27 27
27 26 26 27 26 27 27 26 26 24 24 24 23 23 21 22 21 22 23 24 22 21 21 21 21 21 23 21 22 23 23 22 24 24 25 24 25 25 26 26 26 25 26
26 26 25 24 25 26 26 25 25 24 25 25 24 23 22 21 21 22 23 23 21 19 19 19 20 20 21 22 20 20 22 21 20 21 22 24 22 23 24 24 24 25 27
25 25 24 24 25 23 22 24 24 26 26 25 25 24 22 21 21 21 21 21 20 18 18 18 19 21 21 18 18 18 17 17 19 19 20 21 19 19 20 21 21 21 22
24 23 22 21 21 21 21 21 23 23 24 23 24 23 21 21 20 19 20 19 19 17 16 16 16 18 20 21 17 17 15 14 16 17 15 15 15 16 17 17 18 18 19
22 20 19 19 19 20 20 21 20 19 19 17 18 19 18 17 17 15 15 15 16 16 15 14 15 15 16 18 18 18 17 13 13 12 13 12 13 12 13 14 16 16 16
21 19 18 18 18 18 18 19 19 16 15 16 16 16 16 15 14 17 16 14 17 15 15 16 14 15 15 16 14 15 15 14 11 11 12 11 12 11 11 11 11 13 14
20 19 18 17 16 15 17 18 18 16 15 14 15 16 14 14 12 11 12 16 15 15 14 14 15 16 14 12 12 11 11 10 9 8 9 9 9 8 7 7 7 9 9